[[{"header":{"parameterUnit":"m.s-1","parameterCategory":1,"la1":30.6,"la2":29.2853,"lo1":-89.7004,"lo2":-87.6739,"dy":0.0162,"dx":0.0183,"nx":112,"ny":82,"refTime":"2024-02-25T18:00:00:Z","depth":0,"parameterNumber":2,"parameterNumberName":"U-component_of_WINDS"},"data":[0.0,0.0,0.0,0.0,0.0,0.0,0.0,0.0,0.0,0.0,0.0,0.0,0.0,0.0,0.0,0.0,0.0,0.0,0.0,0.0,0.0,0.0,0.0,0.0,0.0,0.0,0.0,0.0,0.0,0.0,0.0,0.0,0.0,0.0,0.0,0.0,0.0,0.0,0.0,0.0,0.0,0.0,0.0,0.0,0.0,0.0,0.0,0.0,0.0,0.0,0.0,0.0,0.0,0.0,0.0,0.0,0.0,0.0,0.0,0.0,0.0,0.0,0.0,0.0,0.0,0.0,0.0,0.0,0.0,0.0,0.0,0.0,0.0,0.0,0.0,0.0,0.0,0.0,0.0,0.0,0.0,0.0,0.0,0.0,0.0,0.0,0.0,0.0,0.0,0.0,0.0,0.7416,0.7384,0.7372,0.7372,0.7372,0.7547,0.7955,0.0,0.0,0.0,0.0,0.0,0.0,0.0,0.0,0.0,0.0,0.0,0.0,0.0,0.0,0.0,0.0,0.0,0.0,0.0,0.0,0.0,0.0,0.0,0.0,0.0,0.0,0.0,0.0,0.0,0.0,0.0,0.0,0.0,0.0,0.0,0.0,0.0,0.0,0.0,0.0,0.0,0.0,0.0,0.0,0.0,0.0,0.0,0.0,0.0,0.0,0.0,0.0,0.0,0.0,0.0,0.0,0.0,0.0,0.0,0.0,0.0,0.0,0.0,0.0,0.0,0.0,0.0,0.0,0.0,0.0,0.0,0.0,0.0,0.0,0.0,0.0,0.0,0.0,0.0,0.0,0.0,0.0,0.0,0.0,0.0,0.0,0.0,0.0,0.0,0.0,0.0,0.0,0.0,0.0,0.0,0.0,0.0,0.0,0.0,0.0,0.0,0.0,0.0,0.0,0.6062,0.4753,0.4612,0.4601,0.4601,0.4601,0.5186,0.6516,0.0,0.0,0.0,0.0,0.0,0.0,0.0,0.0,0.0,0.0,0.0,0.0,0.0,0.0,0.0,0.0,0.0,0.0,0.0,0.0,0.0,0.0,0.0,0.0,0.0,0.0,0.0,0.0,0.0,0.0,0.0,0.0,0.0,0.0,0.0,0.0,0.0,0.0,0.0,0.0,0.0,0.0,0.0,0.0,0.0,0.0,0.0,0.0,0.0,0.0,0.0,0.0,0.0,0.0,0.0,0.0,0.0,0.0,0.0,0.0,0.0,0.0,0.0,0.0,0.0,0.0,0.0,0.0,0.0,0.0,0.0,0.0,0.0,0.0,0.0,0.0,0.0,0.0,0.0,0.0,0.0,0.0,0.0,0.0,0.0,0.0,0.0,0.0,0.0,0.0,0.0,0.0,0.0,0.0,0.0,0.0,0.0,0.0,0.0,0.0,0.0,0.0,0.0,0.6251,0.5704,0.4165,0.4011,0.4004,0.4004,0.4004,0.4339,0.5103,0.574,0.0,0.0,0.0,0.0,0.0,0.0,0.0,0.0,0.0,0.0,0.0,0.0,0.0,0.0,0.0,0.0,0.0,0.0,0.0,0.0,0.0,0.0,0.0,0.0,0.0,0.0,0.0,0.0,0.0,0.0,0.0,0.0,0.0,0.0,0.0,0.0,0.0,0.0,0.0,0.0,0.0,0.0,0.0,0.0,0.0,0.0,0.0,0.0,0.0,0.0,0.0,0.0,0.0,0.0,0.0,0.0,0.0,0.0,0.0,0.0,0.0,0.0,0.0,0.0,0.0,0.0,0.0,0.0,0.0,0.0,0.0,0.0,0.0,0.0,0.0,0.0,0.0,0.0,0.0,0.0,0.0,0.0,0.0,0.0,0.0,0.0,0.0,0.0,0.0,0.0,0.0,0.0,0.0,0.0,0.0,0.0,0.0,0.0,0.0,0.0,0.0,0.0,0.5041,0.4349,0.3177,0.3056,0.3061,0.3061,0.3061,0.3242,0.3695,0.3726,0.0,0.0,0.0,0.0,0.0,0.0,0.0,0.0,0.0,0.0,0.0,0.0,0.0,0.0,0.0,0.0,0.0,0.0,0.0,0.0,0.0,0.0,0.0,0.0,0.0,0.0,0.0,0.0,0.0,0.0,0.0,0.0,0.0,0.0,0.0,0.0,0.0,0.0,0.0,0.0,0.0,0.0,0.0,0.0,0.0,0.0,0.0,0.0,0.0,0.0,0.0,0.0,0.0,0.0,0.0,0.0,0.0,0.0,0.0,0.0,0.0,0.0,0.0,0.0,0.0,0.0,0.0,0.0,0.0,0.0,0.0,0.0,0.0,0.0,0.0,0.0,0.0,0.0,0.0,0.0,0.0,0.0,0.0,0.0,0.0,0.0,0.0,0.0,0.0,0.0,0.0,0.0,0.0,0.0,0.0,0.0,0.0,0.0,0.0,0.0,0.0,0.0,0.1282,0.041,0.03,0.0277,0.0279,0.0279,0.0279,0.0865,0.226,0.2344,0.0,0.0,0.0,0.0,0.0,0.0,0.0,0.0,0.0,0.0,0.0,0.0,0.0,0.0,0.0,0.0,0.0,0.0,0.0,0.0,0.0,0.0,0.0,0.0,0.0,0.0,0.0,0.0,0.0,0.0,0.0,0.0,0.0,0.0,0.0,0.0,0.0,0.0,0.0,0.0,0.0,0.0,0.0,0.0,0.0,0.0,0.0,0.0,0.0,0.0,0.0,0.0,0.0,0.0,0.0,0.0,0.0,0.0,0.0,0.0,0.0,0.0,0.0,0.0,0.0,0.0,0.0,0.0,0.0,0.0,0.0,0.0,0.0,0.0,0.0,0.0,0.0,0.0,0.0,0.0,0.0,0.0,0.0,0.0,0.0,0.0,0.0,0.0,0.0,0.0,0.0,0.0,0.0,0.0,0.0,0.0,0.0,0.0,0.0,0.0,0.0,0.0,0.1718,0.1026,0.0,0.0,0.0,0.0,0.0,0.0224,0.0784,0.0,0.0,0.0,0.0,0.0,0.0,0.0,0.0,0.0,0.0,0.0,0.0,0.0,0.0,0.0,0.0,0.0,0.0,0.0,0.0,0.0,0.0,0.0,0.0,0.0,0.0,0.0,0.0,0.0,0.0,0.0,0.0,0.0,0.0,0.0,0.0,0.0,0.0,0.0,0.0,0.0,0.0,0.0,0.0,0.0,0.0,0.0,0.0,0.0,0.0,0.0,0.0,0.0,0.0,0.0,0.0,0.0,0.0,0.0,0.0,0.0,0.0,0.0,0.0,0.0,0.0,0.0,0.0,0.0,0.0,0.0,0.0,0.0,0.0,0.0,0.0,0.0,0.0,0.0,0.0,0.0,0.0,0.0,0.0,0.0,0.0,0.0,0.0,0.0,0.0,0.0,0.0,0.0,0.0,0.0,0.0,0.0,0.0,0.0,0.0,0.0,0.0,0.165,0.151,0.112,0.0,0.0,0.0,0.0,0.0,0.0,0.0,0.0,0.0,0.0,0.0,0.0,0.0,0.0,0.0,0.0,0.0,0.0,0.0,0.0,0.0,0.0,0.0,0.0,0.0,0.0,0.0,0.0,0.0,0.0,0.0,0.0,0.0,0.0,0.0,0.0,0.0,0.0,0.0,0.0,0.0,0.0,0.0,0.0,0.0,0.0,0.0,0.0,0.0,0.0,0.0,0.0,0.0,0.0,0.0,0.0,0.0,0.0,0.0,0.0,0.0,0.0,0.0,0.0,0.0,0.0,0.0,0.0,0.0,0.0,0.0,0.0,0.0,0.0,0.0,0.0,0.0,0.0,0.0,0.0,0.0,0.0,0.0,0.0,0.0,0.0,0.0,0.0,0.0,0.0,0.0,0.0,0.0,0.0,0.0,0.0,0.0,0.0,0.0,0.0,0.0,0.0,0.0,0.0,0.0,0.0,0.0,0.0,0.0,0.0,0.0,0.0,0.0,0.0,0.0,0.0,0.0,0.0,0.0,0.0,0.0,0.0,0.0,0.0,0.0,0.0,0.0,0.0,0.0,0.0,0.0,0.0,0.0,0.0,0.0,0.0,0.0,0.0,0.0,0.0,0.0,0.0,0.0,0.0,0.0,0.0,0.0,0.0,0.0,0.0,0.0,0.0,0.0,0.0,0.0,0.0,0.0,0.0,0.0,0.0,0.0,0.0,0.0,0.0,0.0,0.0,0.0,0.0,0.0,0.0,0.0,0.0,0.0,0.0,0.0,0.0,0.0,0.0,0.0,0.0,0.0,0.0,0.0,0.0,0.0,0.0,0.0,0.0,0.0,0.0,0.0,0.0,0.0,0.0,0.0,0.0,0.0,0.0,0.0,0.0,0.0,0.0,0.0,0.0,0.0,0.0,0.0,0.0,0.0,0.0,0.0,0.0,0.0,0.0,0.0,0.0,0.0,0.0,0.0,0.0,0.0,0.0,0.0,0.0,0.0,0.0,0.0,0.0,0.0,0.0,0.0,0.0,0.0,0.0,0.0,0.0,0.0,0.0,0.0,0.0,0.0,0.0,0.0,0.0,0.0,0.0,0.0,0.0,0.0,0.0,0.0,0.0,0.0,0.0,0.0,0.0,0.0,0.0,0.0,0.0,0.0,0.0,0.0,0.0,0.0,0.0,0.0,0.0,0.0,0.0,0.0,0.0,0.0,0.0,0.0,0.0,0.0,0.0,0.0,0.0,0.0,0.0,0.0,0.0,0.0,0.0,0.0,0.0,0.0,0.0,0.0,0.0,0.0,0.0,0.0,0.0,0.0,0.0,0.0,0.0,0.0,0.0,0.0,0.0,0.0,0.0,0.0,0.0,0.0,0.0,0.0,0.0,0.0,0.0,0.0,0.0,0.0,0.0,0.0,0.0,0.0,0.0,0.0,0.0,0.0,0.0,0.0,0.0,0.0,0.0,0.0,0.0,0.0,0.0,0.0,0.0,0.0,0.0,0.0,0.0,0.0,0.0,0.0,0.0,0.0,0.0,0.0,0.0,0.0,0.0,0.0,0.0,0.0,0.0,0.0,0.0,0.0,0.0,0.0,0.0,0.0,0.0,0.0,0.0,0.0,0.0,0.0,0.0,0.0,0.0,0.0,0.0,0.0,0.0,0.0,0.0,0.0,0.0,0.0,0.0,0.0,0.0,0.0,0.0,0.0,0.0,0.0,0.0,0.0,0.0,0.0,0.0,0.0,0.0,0.0,0.0,0.0,0.0,0.0,0.0,0.0,0.0,0.0,0.0,0.0,0.0,0.0,0.0,0.0,0.0,0.0,0.0,0.0,0.0,0.0,0.0,0.0,0.0,0.0,0.0,0.0,0.0,0.0,0.0,0.0,0.0,0.0,0.0,0.0,0.0,0.0,0.0,0.0,0.0,0.0,0.0,0.0,0.0,0.0,0.0,0.0,0.0,0.0,0.0,0.0,-0.0196,-0.0336,-0.042,-0.042,-0.042,-0.042,-0.042,-0.028,-0.0252,-0.042,0.0,0.0,0.0,0.0,0.0,0.0,0.0,0.0,0.0,0.0,0.0,0.0,0.0,0.0,0.0,0.0,0.0,0.0,0.0,0.0,0.0,0.0,0.0,0.0,0.0,0.0,0.0,0.0,0.0,0.0,0.0,0.0,0.0,0.0,0.0,0.0,0.0,0.0,0.0,0.0,0.0,0.0,0.0,0.0,0.0,0.0,0.0,0.0,0.0,0.0,0.0,0.0,0.0,0.0,0.0,0.0,0.0,0.0,0.0,0.0,1.5808,0.0,0.0,0.0,0.0,0.0,0.0,0.0,0.0,0.0,0.0,0.0,0.0,0.0,0.0,0.0,0.0,0.0,0.0,0.0,0.0,0.0,0.0,0.0,0.0,0.0,0.0,0.0,0.0,0.0,0.0,0.0,0.0,0.0,0.0,0.0,0.0,0.0,0.0,0.0,0.0,0.0,-0.1733,-0.2796,-0.355,-0.355,-0.355,-0.355,-0.355,-0.2431,-0.2235,-0.3466,-0.2403,0.0,0.0,0.0,0.0,0.0,0.0,0.0,0.0,0.0,0.0,0.0,0.0,0.0,0.0,0.0,0.0,0.0,0.0,0.0,0.0,0.0,0.0,0.0,0.0,0.0,0.0,0.0,0.0,0.0,0.0,0.0,0.0,0.0,0.0,0.0,0.0,0.0,0.0,0.0,0.0,0.0,0.0,0.0,0.0,0.0,0.0,0.0,0.0,0.0,0.0,0.0,0.0,0.0,0.0,0.0,0.0,0.0,0.0,0.0,0.0,1.4902,0.0,0.0,0.0,0.0,0.0,0.0,0.0,0.0,0.0,0.0,0.0,0.0,0.0,0.0,0.0,0.0,0.0,0.0,0.0,0.0,0.0,0.0,0.0,0.0,0.0,0.0,0.0,0.0,0.0,0.0,0.0,0.0,0.0,0.0,0.0,0.0,0.0,0.0,0.0,0.0,-0.2346,-0.3675,-0.462,-0.4686,-0.469,-0.469,-0.469,-0.3945,-0.3834,-0.4633,-0.3945,0.0,0.0,0.0,0.0,0.0,0.0,0.0,0.0,0.0,0.0,0.0,0.0,0.0,0.0,0.0,0.0,0.0,0.0,0.0,0.0,0.0,0.0,0.0,0.0,0.0,0.0,0.0,0.0,0.0,0.0,0.0,0.0,0.0,0.0,0.0,0.0,0.0,0.0,0.0,0.0,0.0,0.0,0.0,0.0,0.0,0.0,0.0,0.0,0.0,0.0,0.0,0.0,0.0,1.8788,1.8188,1.8139,1.715,1.5909,1.4498,1.3919,1.3662,1.3552,1.2454,0.0,0.0,0.0,0.0,0.0,0.0,0.0,0.0,0.0,0.0,0.0,0.0,0.0,0.0,0.0,0.0,0.0,0.0,0.0,0.0,0.0,0.0,0.0,0.0,0.0796,0.0307,0.0,0.0,0.0,0.0,0.0,0.0,0.0,0.0,0.0,0.0,0.0,0.0,-0.3243,-0.4596,-0.557,-0.5677,-0.5685,-0.5685,-0.5685,-0.5451,-0.5393,-0.5656,-0.5422,-0.5276,0.0,0.0,0.0,0.0,0.0,0.0,0.0,0.0,0.0,0.0,0.0,0.0,0.0,0.0,0.0,0.0,0.0,0.0,0.0,0.0,0.0,0.0,0.0,0.0,0.0,0.0,0.0,0.0,0.0,0.0,0.0,0.0,1.9747,1.9747,0.0,0.0,0.0,0.0,0.0,0.0,0.0,0.0,0.0,0.0,0.0,0.0,0.0,2.0454,2.0336,1.924,1.8709,1.8754,1.7509,1.695,1.6925,1.6775,1.5934,1.4521,1.33,0.0,1.2567,1.2414,0.0,0.0,0.0,0.0,0.0,0.0,0.0,0.0,0.0,0.0,0.0,0.0,0.0,0.0,0.0,0.0,0.0,0.0,0.0,0.0,0.0,0.0,0.0502,0.0306,0.014,0.0056,0.0,0.0112,0.0,0.0,0.0,0.0,0.0,0.0,0.0,0.0,0.0,0.0,-0.6308,-0.7829,-0.8804,-0.8816,-0.8823,-0.8823,-0.8823,-0.759,-0.7386,-0.8736,-0.7561,-0.6798,-0.6798,-0.6618,0.0,0.0,0.0,0.0,0.0,0.0,0.0,0.0,0.0,0.0,0.0,0.0,0.0,0.0,0.0,0.0,0.0,0.0,0.0,0.0,0.0,0.0,0.0,0.0,0.0,0.0,0.0,0.0,0.0,2.1003,2.0714,2.0534,2.1334,2.2126,0.0,0.0,0.0,0.0,0.0,0.0,0.0,0.0,0.0,1.9375,1.9326,1.91,1.86,1.8038,1.786,1.8002,1.7452,1.7194,1.7169,1.6355,1.5187,1.3799,1.2363,1.1256,1.0428,1.0269,0.9849,0.9335,0.0,0.0,0.0,0.0,0.8505,0.8519,0.8581,0.8608,0.0,0.871,0.0,0.0,0.0,0.0,0.0,0.0,0.0,0.0,0.0,0.0,0.1036,0.0196,0.0,0.0,0.0,0.0,-0.0255,0.0,-0.1325,-0.1362,-0.1249,0.0,0.0,0.0,0.0,-0.635,-0.7152,-0.8584,-0.9537,-0.9618,-0.9632,-0.9632,-0.9632,-0.8993,-0.8904,-0.9566,-0.8993,-0.8629,-0.8629,-0.7758,-0.6618,0.0,0.0,0.0,0.0,0.0,0.0,0.0,0.0,0.0,0.0,0.0,0.0,0.0,0.0,0.0,0.0,0.0,0.0,0.0,0.0,0.0,0.0,0.0,0.0,0.0,0.0,0.0,0.0,2.1263,2.1049,2.1149,2.1316,2.1819,0.0,0.0,0.0,0.0,0.0,0.0,2.011,2.0142,1.9614,1.8311,1.8261,1.7961,1.7313,1.7313,1.7394,1.7608,1.7608,1.7384,1.7015,1.5902,1.4422,1.267,1.1592,1.0268,0.8892,0.8696,0.8601,0.8601,0.8601,0.8601,0.8548,0.8169,0.8035,0.7995,0.7717,0.7611,0.7629,0.7729,0.0,0.7765,0.7765,0.0,0.0,0.0,0.0,0.3547,0.2042,0.1627,0.1352,0.0254,0.0,0.0,0.0,-0.0344,-0.0977,0.0,-0.2395,-0.2595,-0.2852,0.0,0.0,0.0,0.0,-0.7385,-0.7959,-0.8965,-0.9677,-0.9778,-0.9792,-0.9792,-0.9792,-0.9792,-0.9792,-0.9792,-0.9792,-0.9792,-0.9792,-0.8653,-0.7812,-0.7395,0.0,0.0,0.0,0.0,0.0,0.0,0.0,0.0,0.0,0.0,0.0,0.0,0.0,0.0,0.0,0.0,0.0,0.0,0.0,0.0,0.0,0.0,0.0,0.0,0.0,0.0,0.0,0.0,0.0,2.0664,1.9562,0.0,0.0,0.0,0.0,2.0497,2.0859,2.0488,1.9144,1.9444,1.9014,1.7686,1.7647,1.7621,1.7582,1.7582,1.7595,1.7608,1.7608,1.6882,1.5503,1.5438,1.3884,1.1219,1.1137,1.0268,0.8912,0.8892,0.8885,0.8885,0.8885,0.8885,0.872,0.7299,0.6795,0.6601,0.5186,0.4714,0.4717,0.4721,0.4721,0.4721,0.4721,0.4665,0.0,0.0,0.2375,0.1984,0.0504,0.0113,0.0086,0.0029,0.0,0.0,0.0,-0.1262,-0.2393,0.0,-0.2495,-0.2991,-0.4509,0.0,-0.5425,-0.6926,-0.7281,-0.7925,-0.9468,-0.9748,-0.9785,-0.9792,-0.9792,-0.9792,-0.9792,-0.9792,-0.9792,-0.9792,-0.9792,-0.9792,-0.9792,-0.9731,-0.8958,-0.7444,-0.7322,0.0,0.0,0.0,0.0,0.0,0.0,0.0,0.0,0.0,0.0,0.0,0.0,0.0,0.0,0.0,0.0,0.0,0.0,0.0,0.0,0.0,0.0,0.0,0.0,0.0,0.0,0.0,0.0,2.041,1.9763,0.0,2.0737,2.1106,2.0864,1.9952,2.0009,1.9499,1.8163,1.8248,1.8094,1.7608,1.7608,1.7608,1.7608,1.7608,1.7608,1.7582,1.6768,1.6088,1.5546,1.3729,1.2319,1.1315,1.0398,0.9703,0.9225,0.9225,0.9082,0.8802,0.7848,0.7482,0.7315,0.5838,0.5278,0.5194,0.4693,0.4498,0.4498,0.4498,0.4501,0.451,0.451,0.3802,0.2914,0.2366,0.1502,0.0665,0.0145,0.0,0.0,0.0,0.0,0.0,0.0,-0.1305,-0.2799,-0.3844,-0.4923,-0.5801,-0.625,-0.729,-0.7911,-0.7458,-0.8284,-0.914,-0.9731,-0.9792,-0.9792,-0.9792,-0.9792,-0.9792,-0.9792,-0.9792,-0.9792,-0.9792,-0.9792,-0.9792,-0.9792,-0.9792,-0.9542,-0.8958,-0.8958,-0.8903,0.0,0.0,0.0,0.0,0.0,0.0,0.0,0.0,0.0,0.0,0.0,0.0,0.0,0.0,0.0,0.0,0.0,0.0,0.0,0.0,0.0,0.0,0.0,0.0,0.0,0.0,1.9603,2.072,1.9715,1.9358,2.0411,2.0397,1.9922,1.8994,1.8942,1.8581,1.7782,1.7742,1.7782,1.7916,1.7889,1.7889,1.7889,1.7889,1.7889,1.7889,1.6499,1.5553,1.5,1.2587,1.1228,1.0747,0.9809,0.9084,0.8555,0.8555,0.8099,0.7376,0.6925,0.6445,0.5762,0.429,0.3723,0.3666,0.3155,0.2985,0.2985,0.2985,0.2979,0.2974,0.2974,0.2271,0.147,0.147,0.0765,0.0,0.0,0.0,0.0,0.0,0.0,0.0,0.0,-0.1747,-0.3633,-0.469,-0.6258,-0.7526,-0.7952,-0.8993,-0.9451,-0.8374,-0.911,-0.9792,-0.9792,-0.9792,-0.9792,-0.9792,-0.9792,-0.9792,-0.9792,-0.9792,-0.9792,-0.9792,-0.9792,-0.9792,-0.9792,-0.9792,-0.9792,-0.9792,-0.9792,-0.9792,-0.9792,0.0,0.0,0.0,0.0,0.0,0.0,0.0,0.0,0.0,0.0,0.0,0.0,0.0,0.0,0.0,0.0,0.0,0.0,0.0,0.0,0.0,0.0,0.0,2.1364,2.041,2.0025,2.1415,1.9213,1.8094,1.9409,1.837,1.7622,1.7635,1.7635,1.7742,1.7995,1.8009,1.8169,1.8477,1.849,1.849,1.849,1.849,1.849,1.849,1.6838,1.5299,1.3857,1.2212,1.0705,0.9424,0.9424,0.8451,0.692,0.692,0.5927,0.4578,0.6152,0.5798,0.4249,0.27,0.2144,0.1939,0.05,0.0,0.0,0.0,0.0,0.0,0.0,0.0,0.0,0.0,0.0,0.0,0.0,0.0,0.0,0.0,0.0,0.0,-0.0062,-0.2616,-0.4916,-0.4977,-0.632,-0.7972,-0.9542,-0.9792,-0.9792,-0.9792,-0.9792,0.0,-0.9792,-0.9792,-0.9792,-0.9792,-0.9792,-0.9792,-0.9792,-0.9792,-0.9792,-0.9792,-0.9792,-0.9792,-0.9792,-0.9792,-0.9792,-0.9792,-0.9792,-0.9792,-0.9792,0.0,0.0,0.0,0.0,0.0,0.0,0.0,0.0,0.0,0.0,0.0,0.0,0.0,0.0,0.0,0.0,0.0,0.0,0.0,0.0,0.0,0.0,1.8515,1.871,1.8394,1.8304,1.8681,1.8068,1.7821,1.8398,1.8104,1.7982,1.8223,1.8237,1.8277,1.837,1.837,1.841,1.849,1.849,1.849,1.849,1.849,1.849,1.8463,1.5921,1.451,1.403,1.1436,1.0053,0.97,0.97,0.8756,0.7271,0.7271,0.5607,0.3091,0.3374,0.3225,0.2641,0.1147,0.0618,0.0559,0.0147,0.0,0.0,0.0,0.0,0.0,0.0,0.0,0.0,0.0,0.0,0.0,0.0,0.0,0.0,0.0,0.0,-0.0339,-0.154,-0.3444,-0.5253,-0.6473,-0.8039,-0.9299,-0.9731,-0.9792,-0.9792,-0.9792,-0.9792,0.0,-0.9792,-0.9792,-0.9792,-0.9792,-0.9792,-0.9792,-0.9792,-0.9792,-0.9792,-0.9792,-0.9792,-0.9792,-0.9792,-0.9792,-0.9792,-0.9792,-0.9792,-0.9792,0.0,0.0,0.0,0.0,0.0,0.0,0.0,0.0,0.0,0.0,0.0,0.0,0.0,0.0,0.0,0.0,0.0,0.0,0.0,0.0,0.0,0.0,1.8196,1.817,1.7983,1.7996,1.7996,1.7996,1.7996,1.8036,1.8183,1.8209,1.8276,1.8477,1.849,1.8544,1.8664,1.8677,1.8731,1.8879,1.8893,1.8893,1.8893,1.8893,1.854,1.7834,1.5471,1.4015,1.328,1.0884,0.9792,0.9761,0.9079,0.7856,0.6289,0.5617,0.3812,0.0,0.0,0.0,0.0,0.0,0.0,0.0,0.0,0.0,0.0,0.0,0.0,0.0,0.0,0.0,0.0,0.0,0.0,0.0,0.0,0.0,0.0,0.0,-0.0524,-0.1326,-0.2279,-0.4303,-0.6228,-0.7205,-0.8708,0.0,-0.9792,-0.9792,-0.9792,-0.9792,-0.9792,-0.9792,-0.9792,-0.9792,-0.9792,-0.9792,-0.9792,-0.9792,-0.9792,-0.9792,0.0,0.0,0.0,-0.9792,-0.9792,-0.9792,0.0,0.0,0.0,-0.9792,-0.9792,0.0,0.0,0.0,-0.9751,-0.9744,0.0,0.0,0.0,0.0,0.0,0.0,0.0,0.0,0.0,0.0,0.0,0.0,0.0,0.0,0.0,0.0,1.8544,1.8544,1.8544,1.8571,1.8598,1.8504,1.849,1.8504,1.8544,1.8544,1.8557,1.8584,1.8584,1.8704,1.893,0.0,0.0,0.0,0.0,1.9401,1.9401,1.9214,1.8402,1.6962,1.5192,1.3586,1.2157,1.0543,0.97,0.9451,0.8003,0.635,0.4518,0.3077,0.1509,0.0154,0.1633,0.1295,0.0,0.0,0.0,0.0,0.0,0.0,0.0,0.0,0.0,0.0,0.0,0.0,0.0,0.0,0.0,0.0,0.0,-0.0154,-0.0278,-0.0278,-0.154,-0.2831,-0.3016,-0.5341,-0.7454,-0.7637,-0.8836,-0.9792,-0.9792,-0.9792,-0.9792,-0.9792,-0.9792,-0.9792,-0.9792,-0.9792,-0.9792,-0.9792,0.0,0.0,-0.9792,-0.9792,-0.9792,-0.9792,-0.9792,-0.9792,-0.9792,-0.9792,-0.9792,-0.9792,-0.9792,-0.9792,-0.9792,-0.9792,-0.9792,-0.9792,-0.9997,-1.0058,0.0,0.0,0.0,0.0,0.0,0.0,0.0,0.0,0.0,0.0,0.0,0.0,0.0,0.0,0.0,1.881,1.881,1.881,1.881,1.9052,1.9053,1.8544,1.849,1.8584,1.8783,1.881,1.8945,1.9214,1.9227,1.9254,1.9308,1.9308,1.9334,1.9401,1.9401,1.9401,1.9401,1.8098,1.7325,1.6962,0.0,0.0,1.2157,1.0543,0.9079,0.785,0.7545,0.5708,0.2954,0.2616,0.1509,0.0031,0.037,0.0278,0.0,0.0,0.0,0.0,0.0,0.0,0.0,0.0,0.0,0.0,0.0,0.0,0.0,0.0,0.0,0.0,0.0,-0.1017,-0.2002,-0.2002,-0.3262,-0.4794,-0.6167,-0.6961,-0.7789,-0.9079,-0.9572,-0.9792,-0.9792,-0.9792,-0.9792,-0.9792,-0.9792,-0.9792,-0.9792,-0.9792,-0.9792,-0.9792,-0.9792,-0.9792,-0.9792,-0.9792,-0.9792,-0.9792,-0.9792,-0.9792,-0.9792,-0.9792,-0.9792,-0.9792,-0.9792,-0.9792,-0.9792,-0.9792,-0.9792,-0.9822,-1.114,-1.1736,0.0,0.0,0.0,0.0,0.0,0.0,0.0,0.0,0.0,0.0,0.0,1.9145,1.9145,0.0,1.9145,1.9145,1.9145,1.9145,1.9145,1.9308,1.9281,1.9,1.896,1.8985,1.9132,1.9145,1.9212,1.9388,1.9401,1.9401,1.9401,1.9401,1.9401,1.9401,1.8619,1.8198,1.8198,1.6591,1.54,1.4589,1.2958,1.1766,1.0929,0.9316,0.816,0.7296,0.5647,0.4027,0.2431,0.1602,0.074,0.0,0.0,0.0,0.0,0.0,0.0,0.0,0.0,0.0,0.0,0.0,0.0,0.0,0.0,0.0,0.0,0.0,-0.0617,-0.1264,-0.1264,-0.2507,-0.3792,-0.3792,-0.5091,-0.6594,-0.7406,-0.8253,-0.9106,-0.989,-1.0053,-1.0053,-1.0053,-1.0053,-0.9998,-0.9812,-0.9792,-0.9792,-0.9792,-0.9792,-0.9792,-0.9792,-0.9792,-0.9792,-0.9792,-0.9792,-0.9792,-0.9792,-0.9859,-0.9907,-0.9907,-1.0012,-1.0053,-1.0053,-1.0053,-1.0053,-1.0053,-1.0938,-1.1364,-1.1425,-1.3887,-1.4104,0.0,0.0,0.0,0.0,0.0,0.0,0.0,0.0,1.9401,1.9401,1.9401,1.9401,1.9401,1.9401,1.9401,1.9401,1.9401,1.9401,1.9401,1.9401,1.9401,1.9401,1.9401,1.9401,1.9401,1.9401,1.9415,1.9481,1.9481,1.9508,1.9562,1.9226,1.905,1.905,1.7452,1.661,1.661,1.502,1.3588,1.2288,1.1993,1.0966,0.9321,0.8013,0.7085,0.628,0.332,0.202,0.1896,0.056,0.0,0.0,0.0,0.0,0.0,0.0,0.0,0.0,0.0,0.0,0.0,0.0,-0.0247,-0.0527,-0.0527,-0.0776,-0.1058,-0.1058,-0.2019,-0.3072,-0.3072,-0.4346,-0.5611,-0.5611,-0.7,-0.8284,-0.8284,-0.9347,-1.0315,-1.0315,-1.0315,-1.0315,-1.0315,-1.0315,-1.0195,-0.9951,-0.991,-0.991,-0.991,-0.991,-0.991,-0.991,-0.991,-0.991,-0.991,-0.991,-0.991,-0.991,-0.9994,-1.0062,-1.0062,-1.0215,-1.0467,-1.0816,-1.0809,-1.0968,-1.1316,-1.2712,-1.3403,-1.3488,-1.6495,-1.6355,1.9029,1.8624,1.9189,2.0841,2.0287,1.9348,0.0,0.0,1.9401,1.9401,1.9401,1.9401,1.9401,1.9401,1.9401,1.9401,1.9401,1.9401,1.9401,1.9401,1.9401,1.9401,1.9401,1.9401,1.9401,1.9401,1.9508,1.9733,1.976,1.9867,2.009,1.8642,1.7807,1.7807,1.6111,1.5206,1.5206,1.3697,1.2832,1.2645,1.1193,0.9583,0.7854,0.7663,0.5906,0.2943,0.109,0.0289,0.0257,0.0064,0.0,0.0,0.0,0.0,0.0,0.0,0.0,0.0,0.0,0.0,0.0,0.0,-0.1088,-0.2384,-0.2384,-0.3512,-0.4795,-0.4795,-0.4922,-0.5082,-0.5082,-0.6268,-0.7493,-0.7493,-0.8788,-1.0022,-1.0022,-1.0181,-1.0315,-1.0315,-1.0315,-1.0315,-1.0315,-1.0315,-1.0301,-1.0236,-1.0229,-1.0229,-1.0229,-1.0229,-1.0229,-1.0229,-1.0229,-1.0229,-1.0229,-1.0229,-1.0229,-1.0229,-1.0243,-1.0288,-1.0288,-1.0301,-1.1031,-1.2595,-1.2618,-1.3371,-1.4924,-1.5111,-1.5204,-1.5266,-1.7049,-1.7683,1.8958,1.8958,1.9385,0.0,1.9866,1.9401,1.9401,1.9401,1.9401,1.9401,1.9401,1.9401,1.9401,1.9401,1.9401,0.0,1.9401,1.9401,1.9401,1.9401,1.9401,1.9401,1.9401,1.9401,1.9401,1.9548,1.9666,1.9786,1.996,1.9641,1.8728,1.7982,1.7153,1.6124,1.451,1.3667,1.3667,1.2083,1.1309,1.1277,0.9557,0.8342,0.7539,0.555,0.331,0.0999,0.029,0.0,0.0,0.0,0.0,0.0,0.0,-0.0645,-0.1448,-0.0382,0.0,-0.0158,-0.1202,-0.1581,-0.1739,-0.2811,-0.3643,-0.4264,-0.4264,-0.4795,-0.5394,-0.5394,-0.6066,-0.6805,-0.6805,-0.8071,-0.9355,-0.9355,-0.998,-1.0534,-1.0534,-1.0534,-1.0534,-1.0534,-1.0534,-1.0534,-1.0534,-1.0534,-1.0534,-1.0534,-1.0392,-1.0315,-1.0315,-1.0315,-1.0315,-1.0315,-1.0315,-1.0315,-1.0315,-1.0315,-1.0315,-1.0315,-1.1335,-1.1923,-1.1923,-1.2973,-1.3892,-1.4619,-1.4661,-1.5003,-1.5736,-1.6752,-1.7237,-1.73,-1.898,-1.9743,1.8985,1.9227,0.0,1.9401,1.9401,1.9401,1.9401,1.9401,1.9401,1.9401,1.9401,1.9401,1.9401,1.9401,1.9401,1.9401,1.9401,1.9401,1.9401,1.9401,1.9401,1.9401,1.9401,1.9428,1.9508,1.9679,1.9867,2.0027,1.9772,1.9105,1.7917,1.6941,1.5846,1.4556,1.2982,1.2163,1.2163,1.1002,1.0173,0.9652,0.8345,0.7209,0.6138,0.3154,0.1141,0.0,0.0,0.0,0.0,0.0,0.0,-0.0065,-0.0555,-0.1532,-0.2604,-0.1793,-0.1492,-0.1675,-0.2991,-0.3438,-0.3663,-0.4977,-0.5729,-0.6102,-0.6102,-0.6472,-0.6854,-0.6854,-0.7699,-0.8608,-0.8608,-0.9591,-1.0555,-1.0555,-1.0636,-1.0684,-1.0684,-1.0684,-1.0684,-1.0684,-1.0684,-1.0684,-1.0684,-1.0684,-1.0684,-1.0684,-1.0541,-1.0399,-1.0399,-1.0399,-1.0399,-1.0399,-1.0399,-1.0399,-1.0399,-1.0841,-1.113,-1.113,-1.2853,-1.3886,-1.3886,-1.5187,-1.614,-1.6592,-1.6625,-1.6851,-1.7345,-1.8608,-1.9228,-1.9259,-2.0526,-2.1109,1.9388,0.0,1.9401,1.9401,1.9401,1.9401,1.9401,1.9401,1.9401,1.9401,1.9401,1.9401,1.9401,1.9401,1.9401,1.9401,1.9401,1.9401,1.9401,1.9401,1.9401,1.9401,1.9401,1.9508,0.0,1.98,2.004,2.0632,1.9094,1.825,1.8465,1.5278,1.3406,1.334,1.1681,1.077,1.077,1.0704,0.9796,0.8053,0.802,0.6185,0.2782,0.094,0.0034,0.0,0.0,0.0,0.0,0.0,0.0,-0.0168,-0.1946,-0.2648,-0.2916,-0.462,-0.5231,-0.5233,-0.5298,-0.533,-0.533,-0.5394,-0.6541,-0.7922,-0.7922,-0.916,-1.0538,-1.0538,-1.0571,-1.0604,-1.0604,-1.0644,-1.0677,-1.0677,-1.0684,-1.0684,-1.0684,-1.0684,-1.0684,-1.0684,-1.0684,-1.0684,-1.0684,-1.0684,-1.0684,-1.0684,-1.0677,-1.0704,-1.0704,-1.0704,-1.0704,-1.0704,-1.0704,-1.0704,-1.0704,-1.2233,-1.3209,-1.3209,-1.4832,-1.5806,-1.5806,-1.5881,-1.6689,-1.8372,-1.8404,-1.9259,-2.0951,-2.1014,-2.1014,-2.1014,-2.1077,-2.1109,1.9401,0.0,1.9401,1.9401,1.9401,1.9401,1.9401,1.9401,1.9401,1.9401,1.9548,1.9653,1.9653,1.9653,1.9653,1.9653,1.9522,1.9401,1.9401,1.9401,1.9401,1.9401,1.9562,0.0,0.0,0.0,0.0,1.8926,1.7517,1.6154,1.5102,1.3938,1.2767,1.1597,1.1016,1.0684,1.0684,1.0684,0.9775,0.7964,0.5626,0.322,0.0874,0.0269,0.0,0.0,0.0,0.0,-0.0101,-0.131,-0.178,-0.1981,-0.3789,-0.5195,-0.6293,-0.6898,-0.7885,-0.8749,-0.7557,-0.713,-0.7327,-0.8514,-0.9309,-0.9806,-0.9806,-1.0207,-1.0684,-1.0684,-1.0684,-1.0684,-1.0684,-1.0684,-1.0684,-1.0684,-1.0684,-1.0684,-1.0684,-1.0684,-1.0684,-1.0684,-1.0684,-1.0684,-1.0684,-1.0684,-1.0684,-1.0684,-1.0684,-1.0684,-1.0684,-1.0684,-1.0684,-1.0684,-1.0684,-1.1174,-1.2314,-1.2964,-1.3774,-1.4949,-1.6657,-1.7634,-1.7634,-1.8736,-1.9642,-2.0195,-2.0227,-2.0526,-2.1109,-2.1109,-2.1109,-2.1109,-2.1109,-2.1109,1.9401,1.9401,1.9401,1.9401,1.9401,1.9401,1.9401,1.9401,1.9401,1.9401,1.9599,1.98,1.98,1.98,1.9826,1.9933,1.9706,1.9589,1.9666,1.9679,1.9679,1.9679,1.984,1.9361,0.0,0.0,0.0,1.7282,1.5865,1.4493,1.3357,1.2709,1.1861,1.075,1.0684,1.0386,0.9742,0.9742,0.8501,0.606,0.3119,0.1109,0.0,0.0,0.0,0.0,0.0,-0.037,-0.1042,-0.2216,-0.3088,-0.3856,-0.5629,-0.7031,-0.8064,-0.8734,-0.9709,-1.0518,-0.9371,-0.8972,-0.9172,-1.0313,-1.0684,-1.0684,-1.0684,-1.0684,-1.0684,-1.0684,-1.0684,-1.0684,-1.0684,-1.0684,-1.0684,-1.0684,-1.0684,-1.0684,-1.0684,-1.0684,-1.0684,-1.0684,-1.0684,-1.0684,-1.0684,-1.1207,-1.163,-1.163,-1.2157,-1.2124,-1.085,-1.0684,-1.0949,-1.1571,-1.163,-1.2314,-1.4068,-1.4819,-1.5654,-1.6754,-1.848,-1.9419,-1.9419,-2.0494,-2.1109,-2.1109,-2.1109,-2.1109,-2.1109,-2.1109,-2.1109,-2.1109,-2.1216,-2.1269,1.9401,1.9401,1.9401,1.9401,1.9401,1.9401,1.9401,1.9401,1.9401,1.9415,1.9626,1.9826,0.0,0.0,1.992,2.0184,2.0,1.9907,2.0157,2.0197,2.0197,0.0,0.0,0.0,0.0,0.0,0.0,1.5612,0.0,1.3161,1.3161,1.1604,1.0684,1.0684,1.0684,0.9842,0.803,0.7831,0.6027,0.2685,0.0874,0.0,0.0,0.0,-0.0067,-0.0135,-0.0135,-0.1176,-0.2853,-0.292,-0.399,-0.5696,-0.7464,-0.813,-0.833,-1.0081,-1.0684,-1.0684,-1.0684,-1.0684,-1.0684,-1.0684,-1.0684,-1.0684,-1.0684,-1.0684,-1.0684,-1.0684,-1.0684,-1.0684,-1.0684,-1.0684,-1.0684,-1.0684,-1.0684,-1.0684,-1.0684,-1.0684,-1.0684,-1.0684,-1.0684,-1.0717,-1.0817,-1.2183,-1.3325,-1.3423,-1.4851,-1.4721,-1.1406,-1.0982,-1.1604,-1.3259,-1.3423,-1.4134,-1.5881,-1.7538,-1.8544,-1.864,-2.0195,-2.1109,-2.1109,-2.1109,-2.1109,-2.1109,-2.1109,-2.1109,-2.1109,-2.1122,-2.1136,-2.1136,-2.1475,-2.1609,1.9401,1.9401,1.9401,1.9401,1.9401,1.9401,1.9401,1.9401,1.9455,1.9639,1.992,2.0157,0.0,0.0,0.0,2.0508,2.0134,0.0,2.0157,2.0197,0.0,2.0197,0.0,1.7992,1.6308,1.4778,0.0,0.0,1.1597,1.1372,1.1372,1.0949,1.0684,1.0684,1.0684,0.9842,0.803,0.5359,0.3588,0.2685,0.0874,0.0,0.0,0.0,-0.074,-0.2016,-0.2016,-0.3054,-0.4827,-0.6127,-0.6927,-0.7531,-0.9305,-1.0014,-1.0081,-1.0518,-1.0684,-1.0684,-1.0684,-1.0684,-1.0684,-1.0684,-1.0684,-1.0684,-1.0684,-1.0684,-1.0684,-1.0684,-1.0684,-1.0684,-1.0684,-1.0684,-1.0684,-1.0684,-1.0684,-1.0684,-1.0684,-1.0684,-1.0684,-1.0684,-1.0684,-1.1108,-1.2413,-1.2997,-1.3742,-1.5037,-1.5622,-1.5589,-1.4688,-1.4558,-1.4744,-1.52,-1.5232,-1.5946,-1.7699,-1.8244,-1.9056,-2.0354,-2.0856,-2.1109,-2.1109,-2.1109,-2.1109,-2.1109,-2.1109,-2.1109,-2.1109,-2.1368,-2.1475,-2.1475,-2.177,-2.1903,1.9401,1.9401,1.9401,1.9401,1.9401,1.9428,1.9562,1.9589,1.9639,1.9933,2.0227,0.0,0.0,0.0,0.0,0.0,0.0,0.0,2.053,1.9952,1.9442,0.0,1.8081,0.0,1.4704,1.3778,1.2578,0.0,1.0684,1.0684,1.0684,1.0684,1.0684,1.0684,0.9948,0.8268,0.5693,0.2918,0.1512,0.1512,0.0471,0.0,0.0,0.0,-0.0975,-0.2685,0.0,-0.4158,-0.6631,-0.7598,-0.8468,-0.9271,-1.0313,-1.0684,-1.0684,-1.0684,-1.0684,-1.0684,-1.0684,-1.0684,-1.0684,-1.0684,-1.0684,-1.0684,-1.0684,-1.0684,-1.0684,-1.0684,-1.0738,-1.0786,-1.0786,-1.0867,-1.0914,-1.0914,-1.0914,-1.0914,-1.0914,-1.0914,-1.0894,-1.0799,-1.1356,-1.215,-1.3128,-1.3938,-1.5037,-1.6786,-1.7699,-1.818,-1.818,-1.6851,-1.6205,-1.6947,-1.7044,-1.7763,-1.9483,-1.9642,-2.0068,-2.1046,-2.1109,-2.1109,-2.1109,-2.1109,-2.1109,-2.1109,-2.1243,-2.1309,-2.1309,-2.1636,-2.1783,-2.1783,-2.2044,-2.2178,1.9401,1.9401,1.9401,1.9401,1.9401,1.9468,1.9733,1.98,1.9893,2.0197,0.0,2.0712,2.0753,2.0494,2.0424,2.0962,0.0,2.0376,2.0661,1.9426,1.8404,1.818,1.6625,1.4972,1.3456,1.3095,1.2314,1.0817,1.0684,1.0684,1.0684,1.0684,1.0585,1.0352,0.8368,0.5826,0.2719,0.0908,0.0,0.0,0.0,0.0,0.0,-0.0235,-0.1344,-0.3088,-0.3287,0.0,-0.8363,-0.8363,-0.9271,-1.0684,-1.0684,-1.0684,-1.0684,-1.0684,-1.0684,-1.0684,-1.0684,-1.0684,-1.0684,-1.0684,-1.0684,-1.0691,-1.0711,-1.0718,-1.0718,-1.0772,-1.084,-1.0941,-1.0941,-1.107,-1.12,-1.12,-1.12,-1.12,-1.12,-1.14,-1.1468,-1.1036,-1.2453,-1.3754,-1.3721,-1.5169,-1.6904,-1.8655,-2.0157,-2.1109,-2.1109,-1.848,-1.7184,-1.8672,-1.8864,-1.9451,-2.0982,-2.1109,-2.1109,-2.1109,-2.1109,-2.1122,-2.1162,-2.1162,-2.1189,-2.1229,-2.1515,-2.1649,-2.1649,-2.193,-2.2044,-2.2044,-2.2338,-2.2472,1.9401,1.9401,1.9401,1.9401,1.9401,1.9468,1.9733,1.98,0.0,0.0,2.0672,2.0779,2.0989,2.0788,0.0,2.0766,0.0,0.0,0.0,0.0,1.7956,0.0,0.0,0.0,0.0,0.0,0.0,0.0,0.0,1.0684,1.0684,1.0684,1.0014,0.8501,0.5325,0.332,0.2719,0.0908,0.0,0.0,0.0,0.0,-0.0067,-0.1545,-0.3222,-0.5028,-0.646,0.0,-1.0213,-1.0213,-1.0419,-1.0684,-1.0684,-1.0684,-1.0684,-1.0684,-1.0684,-1.0684,-1.0684,-1.0684,-1.0684,-1.0684,-1.0684,-1.0711,-1.084,-1.0874,-1.0901,-1.1084,-1.1138,-1.1159,-1.1159,-1.1179,-1.12,-1.12,-1.12,-1.12,-1.12,-1.2425,-1.3062,-1.1468,-1.3866,-1.6158,-1.6033,-1.7378,-1.9057,-2.0812,-2.1065,-2.1109,-2.1109,-2.0557,-2.0291,-2.0621,-2.0652,-2.0779,-2.1077,-2.1109,-2.1109,-2.1109,-2.1109,-2.1216,-2.1502,-2.1502,-2.1622,-2.183,-2.1884,-2.1943,-2.1943,-2.2205,-2.2338,-2.2352,-2.2645,-2.2813,1.9401,1.9401,1.9401,1.9401,1.9401,1.9468,1.9733,0.0,0.0,0.0,2.0712,2.0762,2.1056,0.0,0.0,0.0,0.0,0.0,0.0,0.0,0.0,0.0,0.0,0.0,0.0,0.0,0.0,0.0,0.0,1.0684,1.0684,0.9809,0.8064,0.5325,0.3588,0.2249,0.131,0.0437,0.0,0.0,0.0,-0.0505,-0.1445,-0.2316,-0.4191,-0.6798,-0.7631,0.0,-1.0684,-1.0684,-1.0684,-1.0684,-1.0684,-1.0684,-1.0684,-1.0684,-1.0684,-1.0684,-1.0684,-1.0738,-1.0806,-1.0806,-1.0806,-1.0833,-1.1016,-1.1056,-1.1077,-1.1179,-1.1254,-1.1315,-1.1315,-1.1376,-1.1402,-1.1402,-1.2163,-1.313,-1.41,-1.5675,-1.6377,-1.4569,-1.6346,-1.8128,-1.8061,-1.8705,-1.9792,-2.1548,-2.1657,-2.1563,-2.1563,-2.1563,-2.1443,-2.1136,-2.1109,-2.1176,-2.1355,-2.1368,-2.1435,-2.155,-2.1563,-2.163,-2.181,-2.181,-2.1877,-2.201,-2.2138,-2.2205,-2.2218,-2.2498,-2.2645,-2.2645,-2.2827,-2.2893,1.9401,1.9401,1.9401,1.9401,1.9401,1.9468,1.9733,1.98,0.0,0.0,2.0659,2.0748,2.0975,0.0,0.0,0.0,0.0,0.0,0.0,0.0,0.0,0.0,0.0,0.0,0.0,0.0,0.0,0.0,0.0,0.0,1.0114,0.8064,0.5593,0.2786,0.2316,0.1445,0.0,0.0,0.0,0.0,-0.0404,-0.131,-0.2719,-0.3488,-0.5359,-0.803,-0.8402,0.0,0.0,-1.0684,-1.0684,-1.0684,-1.0684,-1.0684,-1.0684,-1.0684,-1.0684,-1.0691,-1.0725,-1.0813,-1.0928,-1.0988,-1.0988,-1.0988,-1.12,-1.1247,-1.1323,-1.1768,-1.1965,-1.2136,-1.2552,-1.2719,-1.2789,-1.2789,-1.3943,-1.538,-1.6861,-1.8506,-1.9164,-1.7399,-1.8721,-2.0023,-1.962,-1.9807,-2.0505,-2.1872,-2.2031,-2.1991,-2.1991,-2.1991,-2.1804,-2.1349,-2.1296,-2.139,-2.1662,-2.1676,-2.1783,-2.201,-2.1991,-2.2017,-2.2071,-2.2084,-2.2111,-2.2211,-2.2405,-2.2512,-2.2512,-2.2786,-2.2893,-2.2893,-2.2893,-2.2893,1.9401,1.9401,1.9401,1.9401,1.9401,1.9468,1.9733,0.0,0.0,2.0184,2.0494,2.0712,2.0739,2.0909,0.0,0.0,0.0,1.722,0.0,0.0,0.0,0.0,0.0,0.0,0.0,0.0,0.0,0.0,0.0,0.0,0.823,0.5025,0.3054,0.2719,0.1109,0.0168,0.0,0.0,0.0,-0.0034,-0.168,-0.2551,-0.2819,-0.6027,-0.7698,-0.8097,-0.9742,0.0,0.0,-1.0684,-1.0684,-1.0684,-1.0684,-1.0684,-1.0684,-1.0684,-1.0684,-1.0704,-1.0846,-1.0901,-1.0961,-1.1267,-1.1253,-1.1206,-1.1321,-1.1369,-1.1741,-1.3597,-1.4115,-1.4513,-1.6199,-1.6676,-1.6695,-1.6695,-1.6826,-1.7002,-1.7142,-1.8707,-1.9496,-1.7568,-2.0096,-2.2048,-2.0338,-2.1204,-2.2177,-2.2345,-2.2151,-2.1991,-2.1991,-2.1991,-2.1964,-2.1911,-2.1911,-2.1911,-2.197,-2.1951,-2.1951,-2.1991,-2.1991,-2.2111,-2.2331,-2.2345,-2.2498,-2.2813,-2.284,-2.2853,-2.2853,-2.288,-2.2893,-2.2893,-2.2893,-2.2893,1.9401,1.9401,1.9401,1.9401,1.9401,1.9428,1.9535,0.0,1.9655,1.9907,2.0067,2.0201,2.0374,1.9743,1.892,1.8099,1.6282,0.0,0.0,0.0,0.0,0.0,0.0,0.0,0.0,0.0,0.0,0.0,0.0,0.0,0.4824,0.3454,0.2216,0.1109,0.037,0.0,0.0,0.0,-0.0538,-0.1646,-0.235,-0.3823,-0.5926,-0.736,-0.8601,-0.9676,-1.0386,0.0,0.0,-1.0684,-1.0684,-1.0684,-1.0684,-1.0684,-1.0684,-1.0684,-1.0684,-1.0711,-1.086,-1.0968,-1.1111,-1.1321,-1.1409,-1.145,-1.1511,-1.2301,-1.3358,-1.4167,-1.5203,-1.6263,-1.7002,-1.7213,-1.7493,-1.8659,-1.8938,-1.9252,-2.0409,-2.1252,-2.1562,-2.079,-2.1872,-2.2654,-2.1906,-2.2274,-2.2686,-2.2686,-2.2626,-2.2546,-2.2546,-2.2546,-2.2546,-2.2546,-2.2224,-2.2058,-2.2231,-2.2245,-2.2325,-2.2532,-2.2546,-2.2599,-2.2719,-2.2686,-2.2773,-2.2893,-2.2893,-2.2893,-2.2893,-2.2893,-2.2893,-2.2893,-2.2893,-2.2893,1.9401,1.9401,1.9401,1.9401,1.9401,1.9401,0.0,0.0,1.9455,1.9626,1.9733,1.9704,1.9408,1.8587,1.7583,1.6587,1.4323,1.2493,1.1919,0.0,0.0,0.0,0.0,0.0,0.0,0.0,0.0,0.0,0.0,0.0,0.1915,0.1915,0.131,0.0034,0.0,0.0,0.0,-0.0538,-0.1445,-0.2719,-0.3756,-0.5593,-0.803,-0.8568,-0.951,-1.0684,-1.0684,0.0,0.0,-1.0684,-1.0684,-1.0684,-1.0684,-1.0684,-1.0684,-1.0684,-1.0684,-1.0718,-1.0907,-1.1077,-1.1234,-1.1396,-1.1916,-1.2431,-1.2431,-1.3345,-1.4645,-1.5769,-1.7458,-1.8903,-1.8903,-1.8903,-1.9252,-2.0617,-2.0928,-2.1286,-2.2619,-2.2893,-2.2893,-2.2893,-2.2893,-2.2893,-2.2893,-2.2893,-2.2893,-2.2893,-2.2893,-2.2893,-2.2893,-2.2893,-2.2893,-2.2893,-2.2532,-2.2325,-2.2539,-2.2552,-2.2645,-2.288,-2.2893,-2.2893,-2.2893,-2.2893,-2.2893,-2.2893,-2.2893,-2.2893,-2.2893,-2.2893,-2.2893,-2.2893,-2.2893,-2.3201,1.9401,1.9401,1.9401,1.9401,1.9401,1.9401,0.0,0.0,1.9401,1.9401,1.9629,1.9311,1.7721,1.7682,1.6803,1.3488,1.2932,1.2246,1.0284,0.0,0.0,0.0,0.0,0.0,0.0,0.0,0.0,0.0,0.0,0.0,0.0135,0.0034,0.0034,0.0,0.0,0.0,0.0,-0.178,-0.2685,-0.2752,-0.626,-0.7964,-0.8064,-0.9842,-1.0684,0.0,0.0,0.0,0.0,-1.0684,-1.0684,-1.0684,-1.0684,-1.0684,-1.0684,-1.0684,-1.0684,-1.0765,-1.1091,-1.1193,-1.1247,-1.1518,-1.2853,-1.4361,-1.4361,-1.4397,-1.5203,-1.8962,-2.139,-2.2825,-2.2825,-2.2825,-2.2859,-2.2859,-2.2859,-2.2859,-2.2893,-2.2893,-2.2893,-2.2893,-2.2893,-2.2893,-2.2893,-2.2893,-2.2893,-2.2893,-2.2893,-2.2893,-2.2893,-2.2893,-2.2893,-2.2893,-2.2893,-2.2893,-2.2893,-2.2893,-2.2893,-2.2893,-2.2893,-2.2893,-2.2893,-2.2893,-2.2893,-2.2893,-2.2893,-2.2893,-2.2893,-2.2893,-2.2893,-2.2893,-2.2893,-2.3822,1.9401,1.9401,1.9401,1.9401,1.9401,1.9401,1.9401,0.0,1.9098,1.7981,1.7838,1.7386,1.5774,1.4661,1.3653,1.2599,1.1517,1.0551,0.0,0.0,0.0,0.0,0.0,0.0,0.0,0.0,0.0,0.0,0.0,0.0,0.0034,0.0,0.0,0.0,0.0,0.0,0.0,-0.178,-0.332,-0.4559,-0.6898,-0.8634,-0.9875,-1.0452,-1.0684,0.0,0.0,0.0,0.0,-1.0684,-1.0684,-1.0684,-1.0684,-1.0684,-1.0684,-1.0684,-1.0684,-1.0718,-1.0914,-1.1084,-1.1234,-1.1396,-1.1916,-1.2745,-1.4006,-1.6228,-1.8822,-2.1321,-2.2435,-2.2893,-2.2893,-2.2893,-2.2893,-2.2893,-2.2893,-2.2893,-2.2893,-2.2893,-2.2893,-2.2893,-2.2893,-2.2893,-2.2893,-2.2893,-2.2893,-2.2893,-2.2893,-2.2893,-2.2893,-2.2893,-2.2893,-2.2893,-2.2893,-2.2893,-2.2893,-2.2893,-2.2893,-2.2893,-2.2893,-2.2893,-2.2893,-2.2893,-2.2893,-2.2893,-2.2893,-2.2893,-2.2893,-2.2893,-2.2893,-2.2928,-2.4128,-2.4979,1.9361,1.9401,1.9401,1.9401,1.9401,1.9401,0.0,0.0,1.8939,1.7325,1.6991,1.6315,1.4093,1.2868,1.2006,1.1374,1.0452,0.0,0.0,0.0,0.0,0.0,0.0,0.0,0.0,0.0,0.0,0.0,0.0,0.0,0.0,0.0,0.0,0.0,0.0,-0.0336,-0.1009,-0.2819,-0.4626,-0.6398,-0.8169,-0.9609,-1.0684,-1.0684,-1.0684,0.0,0.0,0.0,0.0,-1.0684,-1.0684,-1.0684,-1.0684,-1.0684,-1.0684,-1.0684,-1.0684,-1.0711,-1.086,-1.1043,-1.122,-1.1376,-1.2434,-1.4085,-1.5981,-1.8194,-2.0479,-2.2366,-2.2893,-2.2893,-2.2893,-2.2893,-2.2893,-2.2893,-2.2893,-2.2893,-2.2893,-2.2893,-2.2893,-2.2893,-2.2893,-2.2893,-2.2893,-2.2893,-2.2893,-2.2893,-2.2893,-2.2893,-2.2893,-2.2893,-2.2893,-2.2893,-2.2893,-2.2893,-2.2893,-2.2893,-2.2893,-2.2893,-2.2893,-2.2893,-2.2893,-2.2893,-2.2893,-2.2893,-2.2893,-2.2893,-2.2893,-2.2893,-2.2893,-2.2928,-2.4689,-2.5886,0.0,1.9388,1.9401,1.9401,1.9401,1.9401,1.9401,0.0,0.0,1.7149,1.6727,1.5714,1.2599,1.2037,1.1525,1.0028,0.0,0.0,0.0,0.0,0.0,0.0,0.0,0.0,0.0,0.0,0.0,0.0,0.0,0.0,0.0,0.0,0.0,0.0,0.0,-0.0874,-0.2685,-0.4492,-0.6264,-0.803,-0.9842,-1.0684,-1.0684,-1.0684,-1.0684,0.0,0.0,0.0,0.0,-1.0684,-1.0684,-1.0684,-1.0684,-1.0684,-1.0684,-1.0684,-1.0684,-1.0711,-1.0846,-1.1029,-1.1241,-1.151,-1.4042,-1.7388,-1.946,-2.019,-2.0652,-2.24,-2.2893,-2.2893,-2.2893,-2.2893,-2.2893,-2.2893,-2.2893,-2.2893,-2.2893,-2.2893,-2.2893,-2.2893,-2.2893,-2.2893,-2.2893,-2.2893,-2.2893,-2.2893,-2.2893,-2.2893,-2.2893,-2.2893,-2.2893,-2.2893,-2.2893,-2.2893,-2.2893,-2.2893,-2.2893,-2.2893,-2.2893,-2.2893,-2.2893,-2.2893,-2.2893,-2.2893,-2.2893,-2.2893,-2.2893,-2.2893,-2.2893,-2.2928,-2.4689,-2.6473,1.8945,0.0,1.9401,1.9401,1.9401,1.9401,0.0,0.0,0.0,0.0,0.0,1.2719,1.0717,1.0361,1.024,0.0,0.0,0.0,0.0,0.0,0.0,0.0,0.0,0.0,0.0,0.0,0.0,0.0,0.0,0.0,0.0,0.0,0.0,0.0,0.0,-0.0874,-0.2685,-0.4492,-0.6264,-0.803,-0.9842,-1.0684,-1.0684,-1.0684,-1.0684,0.0,0.0,0.0,-1.0684,-1.0684,-1.0684,-1.0684,-1.0684,-1.0684,-1.0684,-1.0684,-1.0684,-1.0691,-1.0725,-1.084,-1.1241,-1.2986,-1.4245,-1.5698,-1.9066,-2.1101,-2.2332,-2.2791,-2.2893,-2.2893,-2.2893,-2.2893,-2.2893,-2.2893,-2.2893,-2.2893,-2.2893,-2.2893,-2.2893,-2.2893,-2.2893,-2.2893,-2.2893,-2.2893,-2.2893,-2.2893,-2.2893,-2.2893,-2.2893,-2.2893,-2.2893,-2.2893,-2.2893,-2.2893,-2.2893,-2.2893,-2.2893,-2.2893,-2.2893,-2.2893,-2.2893,-2.2893,-2.2893,-2.2893,-2.2893,-2.2893,-2.2893,-2.2893,-2.2893,-2.2928,-2.4689,-2.6473,1.8651,1.8945,1.9199,1.9361,1.9401,1.9214,1.846,0.0,0.0,0.0,0.0,1.1705,1.0088,0.0,0.0,0.0,0.0,0.0,0.0,0.0,0.0,0.0,0.0,0.0,0.0,0.0,0.0,0.0,0.0,0.0,0.0,0.0,0.0,0.0,-0.0807,-0.2115,-0.3923,-0.4894,-0.6698,-0.9238,-1.0213,-1.0684,-1.0684,-1.0684,-1.0684,0.0,0.0,0.0,-1.0684,-1.0684,-1.0684,-1.0684,-1.0684,-1.0684,-1.0684,-1.0684,-1.0684,-1.0684,-1.0684,-1.1397,-1.2539,-1.3783,-1.5498,-1.7388,-1.946,-2.1424,-2.2893,-2.2893,-2.2893,-2.2893,-2.2893,-2.2893,-2.2893,-2.2893,-2.2893,-2.2893,-2.2893,-2.2893,-2.2893,-2.2893,-2.2893,-2.2893,-2.2893,-2.2893,-2.2893,-2.2893,-2.2893,-2.2893,-2.2893,-2.2893,-2.2893,-2.2893,-2.2893,-2.2893,-2.2893,-2.2893,-2.2893,-2.2893,-2.2893,-2.2893,-2.2893,-2.2893,-2.2893,-2.2893,-2.2893,-2.2893,-2.2893,-2.2893,-2.2893,-2.2928,-2.4689,-2.6473,1.8343,1.8597,1.8836,1.9187,1.9294,1.8903,1.7295,0.0,0.0,0.0,0.0,0.0,0.0,0.0,0.0,0.0,0.0,0.0,0.0,0.0,0.0,0.0,0.0,0.0,0.0,0.0,0.0,0.0,0.0,0.0,0.0,0.0,0.0,0.0,-0.1747,-0.3557,-0.5396,-0.5663,-0.7436,-1.0684,-1.0684,-1.0684,-1.0684,-1.0684,-1.0684,-1.0684,0.0,0.0,-1.0684,-1.0684,-1.0684,-1.0684,-1.0684,-1.0684,-1.0684,-1.0684,-1.0684,-1.0684,-1.0684,-1.2146,-1.4079,-1.4466,-1.7095,-2.0155,-2.0444,-2.1631,-2.2893,-2.2893,-2.2893,-2.2893,-2.2893,-2.2893,-2.2893,-2.2893,-2.2893,-2.2893,-2.2893,-2.2893,-2.2893,-2.2893,-2.2893,-2.2893,-2.2893,-2.2893,-2.2893,-2.2893,-2.2893,-2.2893,-2.2893,-2.2893,-2.2893,-2.2893,-2.2893,-2.2893,-2.2893,-2.2893,-2.2893,-2.2893,-2.2893,-2.2893,-2.2893,-2.2893,-2.2893,-2.2893,-2.2893,-2.2893,-2.2893,-2.2893,-2.2893,-2.2928,-2.4419,-2.6072,1.8009,1.8116,1.8223,1.8557,1.8811,1.8544,1.6932,0.0,0.0,0.0,0.0,0.0,0.0,0.0,0.0,0.0,0.0,0.0,0.0,0.0,0.0,0.0,0.0,0.0,0.0,0.0,0.0,0.0,0.0,0.0,0.0,0.0,0.0,0.0,-0.1747,-0.3557,-0.5396,-0.6865,-0.8634,-1.0684,-1.0684,-1.0684,-1.0684,-1.0684,-1.0684,-1.0684,0.0,-1.0684,-1.0684,-1.0684,-1.0684,-1.0684,-1.0684,-1.0684,-1.0684,-1.0684,-1.0684,-1.0684,-1.0684,-1.2146,-1.4258,-1.5876,-1.8071,-2.0409,-2.1988,-2.2688,-2.2893,-2.2893,-2.2893,-2.2893,-2.2893,-2.2893,-2.2893,-2.2893,-2.2893,-2.2893,-2.2893,-2.2893,-2.2893,-2.2893,-2.2893,-2.2893,-2.2893,-2.2893,-2.2893,-2.2893,-2.2893,-2.2893,-2.2893,-2.2893,-2.2893,-2.2893,-2.2893,-2.2893,-2.2893,-2.2893,-2.2893,-2.2893,-2.2893,-2.2893,-2.2893,-2.2893,-2.2893,-2.2893,-2.2893,-2.2893,-2.2893,-2.2893,-2.2893,-2.2893,-2.3154,-2.4249,1.7756,1.7769,1.7635,1.6998,1.7147,1.6855,1.4513,0.0,0.0,0.0,0.0,0.0,0.0,0.0,0.0,0.0,0.0,0.0,0.0,0.0,0.0,0.0,0.0,0.0,0.0,0.0,0.0,0.0,0.0,0.0,0.0,0.0,-0.0437,-0.1445,-0.3222,-0.5028,-0.6798,-0.8568,-0.9875,-1.0684,-1.0684,-1.0684,-1.0684,-1.0684,-1.0684,-1.0684,0.0,-1.0684,-1.0684,-1.0684,-1.0684,-1.0684,-1.0684,-1.0684,-1.0684,-1.0684,-1.0684,-1.0684,-1.0684,-1.2809,-1.5498,-1.5338,-1.8152,-2.1562,-2.1424,-2.2091,-2.2893,-2.2893,-2.2893,-2.2893,-2.2893,-2.2893,-2.2893,-2.2893,-2.2893,-2.2893,-2.2893,-2.2893,-2.2893,-2.2893,-2.2893,-2.2893,-2.2893,-2.2893,-2.2893,-2.2893,-2.2893,-2.2893,-2.2893,-2.2893,-2.2893,-2.2893,-2.2893,-2.2893,-2.2893,-2.2893,-2.2893,-2.2893,-2.2893,-2.2893,-2.2893,-2.2893,-2.2893,-2.2893,-2.2893,-2.2893,-2.2893,-2.2893,-2.2893,-2.2893,-2.2893,-2.3822,1.7608,1.7608,1.7173,1.537,0.0,1.5423,1.236,0.0,0.0,0.0,0.0,0.0,0.0,0.0,0.0,0.0,0.0,0.0,0.0,0.0,0.0,0.0,0.0,0.0,0.0,0.0,0.0,0.0,0.0,0.0,0.0,0.0,-0.084,-0.2652,-0.4459,-0.6231,-0.7997,-0.9809,-1.0684,-1.0684,-1.0684,-1.0684,-1.0684,-1.0684,-1.0684,-1.0684,-1.0684,-1.0684,-1.0684,-1.0684,-1.0684,-1.0684,-1.0684,-1.0684,-1.0684,-1.0684,-1.0684,-1.0684,-1.0684,-1.3102,-1.5905,-1.4463,-1.7741,-2.1988,-2.0548,-2.1424,-2.2893,-2.2893,-2.2893,-2.2893,-2.2893,-2.2893,-2.2893,-2.2893,-2.2893,-2.2893,-2.2893,-2.2893,-2.2893,-2.2893,-2.2893,-2.2893,-2.2893,-2.2893,-2.2893,-2.2893,-2.2893,-2.2893,-2.2893,-2.2893,-2.2893,-2.2893,-2.2893,-2.2893,-2.2893,-2.2893,-2.2893,-2.2893,-2.2893,-2.2893,-2.2893,-2.2893,-2.2893,-2.2893,-2.2893,-2.2893,-2.2893,-2.2893,-2.2893,-2.2893,-2.2893,-2.3631,1.7608,1.7608,1.6935,1.4153,1.4701,0.0,1.2032,1.1589,0.0,0.9729,0.0,0.0,0.0,0.0,0.0,0.0,0.0,0.0,0.0,0.0,0.0,0.0,0.0,0.0,0.0,0.0,0.0,0.0,0.0,0.0,0.0,0.0,-0.084,-0.2652,-0.4459,-0.6231,-0.7997,-0.9809,-1.0684,-1.0684,-1.0684,-1.0684,-1.0684,-1.0684,-1.0684,-1.0684,-1.0684,-1.0684,-1.0684,-1.0684,-1.0684,-1.0684,-1.0684,-1.0684,-1.0684,-1.0684,-1.0684,-1.0684,-1.0684,-1.2246,-1.419,-1.4053,-1.6849,-2.0271,-2.0132,-2.1424,-2.2893,-2.2893,-2.2893,-2.2893,-2.2893,-2.2893,-2.2893,-2.2893,-2.2893,-2.2893,-2.2893,-2.2893,-2.2893,-2.2893,-2.2893,-2.2893,-2.2893,-2.2893,-2.2893,-2.2893,-2.2893,-2.2893,-2.2893,-2.2893,-2.2893,-2.2893,-2.2893,-2.2893,-2.2893,-2.2893,-2.2893,-2.2893,-2.2893,-2.2893,-2.2893,-2.2893,-2.2893,-2.2893,-2.2893,-2.2893,-2.2893,-2.2893,-2.2893,-2.2893,-2.2893,-2.2962,1.7608,1.6935,1.5769,1.3777,1.3108,0.0,0.0,0.9922,0.9827,0.0,0.0,0.0,0.0,0.0,0.0,0.0,0.0,0.0,0.0,0.0,0.0,0.0,0.0,0.0,0.0,0.0,0.0,0.0,0.0,0.0,0.0,0.0,-0.1344,-0.4292,-0.5028,-0.6765,-0.9643,-1.0352,-1.0684,-1.0684,-1.0684,-1.0684,-1.0684,-1.0684,-1.0684,-1.0684,-1.0684,-1.0684,-1.0684,-1.0684,-1.0684,-1.0684,-1.0684,-1.0684,-1.0684,-1.0684,-1.0684,-1.0684,-1.0684,-1.2146,-1.3985,-1.3985,-1.6781,-2.0097,-2.0097,-2.1424,-2.2893,-2.2893,-2.2893,-2.2893,-2.2893,-2.2893,-2.2893,-2.2893,-2.2893,-2.2893,-2.2893,-2.2893,-2.2893,-2.2893,-2.2893,-2.2893,-2.2893,-2.2893,-2.2893,-2.2893,-2.2893,-2.2893,-2.2893,-2.2893,-2.2893,-2.2893,-2.2893,-2.2893,-2.2893,-2.2893,-2.2893,-2.2893,-2.2893,-2.2893,-2.2893,-2.2893,-2.2893,-2.2893,-2.2893,-2.2893,-2.2893,-2.2893,-2.2893,-2.2893,-2.2893,-2.2893,1.6909,1.6168,1.4957,1.3075,0.0,0.0,0.9348,0.8912,0.8912,0.0,0.0,0.0,0.0,0.0,0.0,0.0,0.0,0.0,0.0,0.0,0.0,0.0,0.0,0.0,0.0,0.0,0.0,0.0,0.0,0.0,0.0,-0.0537,-0.2249,-0.5295,-0.593,-0.7669,-1.0684,-1.0684,-1.0684,-1.0684,-1.0684,-1.0684,-1.0684,-1.0684,-1.0684,-1.0684,-1.0684,-1.0684,-1.0684,-1.0684,-1.0684,-1.0684,-1.0684,-1.0684,-1.0684,-1.0684,-1.0684,-1.0684,-1.0684,-1.175,-1.3207,-1.3814,-1.6333,-1.9286,-1.9912,-2.1424,-2.2893,-2.2893,-2.2893,-2.2893,-2.2893,-2.2893,-2.2893,-2.2893,-2.2893,-2.2893,-2.2893,-2.2893,-2.2893,-2.2893,-2.2893,-2.2893,-2.2893,-2.2893,-2.2893,-2.2893,-2.2893,-2.2893,-2.2893,-2.2893,-2.2893,-2.2893,-2.2893,-2.2893,-2.2893,-2.2893,-2.2893,-2.2893,-2.2893,-2.2893,-2.2893,-2.2893,-2.2893,-2.2893,-2.2893,-2.2893,-2.2893,-2.2893,-2.2893,-2.2893,-2.2893,-2.2893,1.5384,1.5384,1.469,0.0,0.0,0.0,0.9561,0.8912,0.8912,0.0,0.0,0.0,0.0,0.0,0.0,0.0,0.0,0.0,0.0,0.0,0.0,0.0,0.0,0.0,0.0,0.0,0.0,0.0,0.0,0.0,0.0,-0.17,-0.3521,-0.5329,-0.7098,-0.8867,-1.0684,-1.0684,-1.0684,-1.0684,-1.0684,-1.0684,-1.0684,-1.0684,-1.0684,-1.0684,-1.0684,-1.0684,-1.0684,-1.0684,-1.0684,-1.0684,-1.0684,-1.0684,-1.0684,-1.0684,-1.0684,-1.0684,-1.0684,-1.0914,-1.1538,-1.3412,-1.548,-1.7599,-1.953,-2.1424,-2.2893,-2.2893,-2.2893,-2.2893,-2.2893,-2.2893,-2.2893,-2.2893,-2.2893,-2.2893,-2.2893,-2.2893,-2.2893,-2.2893,-2.2893,-2.2893,-2.2893,-2.2893,-2.2893,-2.2893,-2.2893,-2.2893,-2.2893,-2.2893,-2.2893,-2.2893,-2.2893,-2.2893,-2.2893,-2.2893,-2.2893,-2.2893,-2.2893,-2.2893,-2.2893,-2.2893,-2.2893,-2.2893,-2.2893,-2.2893,-2.2893,-2.2893,-2.2893,-2.2893,-2.2893,-2.2893,1.5689,1.469,0.0,0.0,0.0,0.0,0.0,0.8912,0.0,0.0,0.0,0.0,0.0,0.0,0.0,0.0,0.0,0.0,0.0,0.0,0.0,0.0,0.0,0.0,0.0,0.0,0.0,0.0,0.0,0.0,0.0,-0.1717,-0.3519,-0.5329,-0.7098,-0.8867,-1.0684,-1.0684,-1.0684,-1.0684,-1.0684,-1.0684,-1.0684,-1.0684,-1.0684,-1.0684,-1.0684,-1.0684,-1.0684,-1.0684,-1.0684,-1.0684,-1.0684,-1.0684,-1.0684,-1.0684,-1.0684,-1.0684,-1.0684,-1.1783,-1.3472,-1.5362,-1.7467,-1.96,-2.1493,-2.2482,-2.2893,-2.2893,-2.2893,-2.2893,-2.2893,-2.2893,-2.2893,-2.2893,-2.2893,-2.2893,-2.2893,-2.2893,-2.2893,-2.2893,-2.2893,-2.2893,-2.2893,-2.2893,-2.2893,-2.2893,-2.2893,-2.2893,-2.2893,-2.2893,-2.2893,-2.2893,-2.2893,-2.2893,-2.2893,-2.2893,-2.2893,-2.2893,-2.2893,-2.2893,-2.2893,-2.2893,-2.2893,-2.2893,-2.2893,-2.2893,-2.2893,-2.2893,-2.2893,-2.2893,-2.2893,-2.2893,1.41,1.3075,0.0,0.0,0.0,0.0,0.0,0.0,0.0,0.0,0.0,0.0,0.0,0.0,0.0,0.0,0.0,0.0,0.0,0.0,0.0,0.0,0.0,0.0,0.0,0.0,0.0,0.0,0.0,0.0,0.0,-0.2775,-0.458,-0.6312,-0.811,-0.9609,-1.0684,-1.0684,-1.0684,-1.0684,-1.0684,-1.0684,-1.0684,-1.0684,-1.0684,-1.0684,-1.0684,-1.0684,-1.0684,-1.0684,-1.0684,-1.0684,-1.0684,-1.0684,-1.0684,-1.0684,-1.0684,-1.0824,-1.1644,-1.2831,-1.4437,-1.7123,-1.8947,-2.0444,-2.2332,-2.2893,-2.2893,-2.2893,-2.2893,-2.2893,-2.2893,-2.2893,-2.2893,-2.2893,-2.2893,-2.2893,-2.2893,-2.2893,-2.2893,-2.2893,-2.2893,-2.2893,-2.2893,-2.2893,-2.2893,-2.2893,-2.2893,-2.2893,-2.2893,-2.2893,-2.2893,-2.2893,-2.2893,-2.2893,-2.2893,-2.2893,-2.2893,-2.2893,-2.2893,-2.2893,-2.2893,-2.2893,-2.2893,-2.2893,-2.2893,-2.2893,-2.2893,-2.2893,-2.2893,-2.2893,-2.2893,-2.2893,1.1701,0.0,0.0,0.0,0.0,0.0,0.0,0.0,0.0,0.0,0.0,0.0,0.0,0.0,0.0,0.0,0.0,0.0,0.0,0.0,0.0,0.0,0.0,0.0,0.0,0.0,0.0,0.0,0.0,0.0,0.0,-0.4321,-0.6113,-0.7727,-0.9656,-1.0664,-1.0664,-1.0677,-1.0684,-1.0684,-1.0684,-1.0684,-1.0684,-1.0684,-1.0684,-1.0684,-1.0684,-1.0684,-1.0684,-1.0684,-1.0684,-1.0684,-1.0684,-1.0684,-1.0684,-1.0684,-1.0684,-1.1003,-1.3077,-1.3992,-1.4864,-1.8585,-2.0045,-2.0652,-2.2366,-2.2893,-2.2893,-2.2893,-2.2893,-2.2893,-2.2893,-2.2893,-2.2893,-2.2893,-2.2893,-2.2893,-2.2893,-2.2893,-2.2893,-2.2893,-2.2893,-2.2893,-2.2893,-2.2893,-2.2893,-2.2893,-2.2893,-2.2893,-2.2893,-2.2893,-2.2893,-2.2893,-2.2893,-2.2893,-2.2893,-2.2893,-2.2893,-2.2893,-2.2893,-2.2893,-2.2893,-2.2893,-2.2893,-2.2893,-2.2893,-2.2893,-2.2893,-2.2893,-2.2893,-2.2893,-2.2893,-2.2893,1.321,1.1973,0.0,0.0,0.0,0.0,0.0,0.0,0.0,0.0,0.0,0.0,0.0,0.0,0.0,0.0,0.0,0.0,0.0,0.0,0.0,0.0,0.0,0.0,0.0,0.0,0.0,0.0,0.0,0.0,-0.2424,-0.4204,-0.5926,-0.7606,-0.9514,-1.0541,-1.0541,-1.0663,-1.0684,0.0,-1.0684,-1.0684,-1.0684,-1.0684,-1.0684,-1.0684,-1.0684,-1.0684,-1.0684,-1.0684,-1.0684,-1.0684,-1.0684,-1.0684,-1.0684,-1.0684,-1.0684,-1.1003,-1.3077,-1.4858,-1.6611,-1.9027,-2.0947,-2.2366,-2.2791,-2.2893,-2.2893,-2.2893,-2.2893,-2.2893,-2.2893,-2.2893,-2.2893,-2.2893,-2.2893,-2.2893,-2.2893,-2.2893,-2.2893,-2.2893,-2.2893,-2.2893,-2.2893,-2.2893,-2.2893,-2.2893,-2.2893,-2.2893,-2.2893,-2.2893,-2.2893,-2.2893,-2.2893,-2.2893,-2.2893,-2.2893,-2.2893,-2.2893,-2.2893,-2.2893,-2.2893,-2.2893,-2.2893,-2.2893,-2.2893,-2.2893,-2.2893,-2.2893,-2.2893,-2.2893,-2.2893,-2.2893,0.0,0.0,0.0,0.0,0.0,0.0,0.0,0.0,0.0,0.0,0.0,0.0,0.0,0.0,0.0,0.0,0.0,0.0,0.0,0.0,0.0,0.0,0.0,0.0,0.0,0.0,0.0,0.0,0.0,-0.1916,-0.3546,-0.5317,-0.7055,-0.8701,-0.9825,-1.0392,-1.0392,-1.0534,-1.0609,-1.0609,-1.0683,-1.0684,-1.0684,-1.0684,-1.0684,-1.0684,-1.0684,-1.0684,-1.0684,-1.0684,-1.0684,-1.0684,-1.0684,-1.0684,-1.0684,-1.0684,-1.1323,-1.2463,-1.4535,-1.655,-1.8575,-2.0622,-2.203,-2.2893,-2.2893,-2.2893,-2.2893,-2.2893,-2.2893,-2.2893,-2.2893,-2.2893,-2.2893,-2.2893,-2.2893,-2.2893,-2.2893,-2.2893,-2.2893,-2.2893,-2.2893,-2.2893,-2.2893,-2.2893,-2.2893,-2.2893,-2.2893,-2.2893,-2.2893,-2.2893,-2.2893,-2.2893,-2.2893,-2.2893,-2.2893,-2.2893,-2.2893,-2.2893,-2.2893,-2.2893,-2.2893,-2.2893,-2.2893,-2.2893,-2.2893,-2.2893,-2.2893,-2.2893,-2.2893,-2.2893,-2.2893,-2.2893,0.0,0.0,0.0,0.0,0.0,0.0,0.0,0.0,0.0,0.0,0.0,0.0,0.0,0.0,0.0,0.0,0.0,0.0,0.0,0.0,0.0,0.0,0.0,0.0,0.0,0.0,0.0,0.0,0.0,-0.3323,-0.5223,-0.6739,-0.8313,-0.9919,-1.0161,-1.0243,-1.0243,-1.0385,-1.0453,-1.046,-1.0609,-1.0697,-1.0684,-1.0684,-1.0684,-1.0684,-1.0684,-1.0684,-1.0684,-1.0684,-1.0684,-1.0684,-1.0684,-1.0684,-1.075,-1.1049,-1.2257,-1.4123,-1.6466,-1.8384,-2.0153,-2.224,-2.2893,-2.2893,-2.2893,-2.2893,-2.2893,-2.2893,-2.2893,-2.2893,-2.2893,-2.2893,-2.2893,-2.2893,-2.2893,-2.2893,-2.2893,-2.2893,-2.2893,-2.2893,-2.2893,-2.2893,-2.2893,-2.2893,-2.2893,-2.2893,-2.2893,-2.2893,-2.2893,-2.2893,-2.2893,-2.2893,-2.2893,-2.2893,-2.2893,-2.2893,-2.2893,-2.2893,-2.2893,-2.2893,-2.2893,-2.2893,-2.2893,-2.2893,-2.2893,-2.2893,-2.2893,-2.2893,-2.2893,-2.2893,-2.2893,-2.2893,0.0,0.0,0.0,0.0,0.0,0.0,0.0,0.0,0.0,0.0,0.0,0.0,0.0,0.0,0.0,0.0,0.0,0.0,0.0,0.0,0.0,0.0,0.0,0.0,0.0,0.0,0.0,0.0,-0.237,-0.3843,-0.69,-0.7281,-0.8152,-0.9788,-0.9967,-1.0049,-1.0049,-1.0229,-1.0342,-1.0342,-1.0453,-1.0595,-1.0684,-1.0684,-1.0684,-1.0684,-1.0684,-1.0684,-1.0684,-1.0684,-1.0684,-1.0684,-1.0684,-1.0684,-1.0883,-1.2413,-1.3311,-1.429,-1.7839,-1.9373,-2.0153,-2.224,-2.2893,-2.2893,-2.2893,-2.2893,-2.2893,-2.2893,-2.2893,-2.2893,-2.2893,-2.2893,-2.2893,-2.2893,-2.2893,-2.2893,-2.2893,-2.2893,-2.2893,-2.2893,-2.2893,-2.2893,-2.2893,-2.2893,-2.2893,-2.2893,-2.2893,-2.2893,-2.2893,-2.2893,-2.2893,-2.2893,-2.2893,-2.2893,-2.2893,-2.2893,-2.2893,-2.2893,-2.2893,-2.2893,-2.2893,-2.2893,-2.2893,-2.2893,-2.2893,-2.2893,-2.2893,-2.2893,-2.2893,-2.2893,-2.2893,-2.2893,1.0958,0.0,0.0,0.0,0.0,0.0,0.0,0.0,0.0,0.0,0.0,0.0,0.0,0.0,0.0,0.0,0.0,0.0,0.0,0.0,0.0,0.0,0.0,0.0,0.0,0.0,0.0,0.0,-0.3323,-0.4882,-0.7266,-0.8252,-0.9079,-0.9792,-0.9852,-0.9893,-0.9893,-1.0042,-1.0195,-1.0315,-1.0376,-1.0453,-1.0595,-1.0595,-1.0636,-1.0684,-1.0684,-1.0684,-1.0684,-1.0684,-1.0684,-1.0684,-1.0684,-1.1306,-1.2248,-1.3029,-1.4851,-1.7185,-1.8829,-2.0322,-2.1705,-2.2601,-2.2893,-2.2893,-2.2893,-2.2893,-2.2893,-2.2893,-2.2893,-2.2893,-2.2893,-2.2893,-2.2893,-2.2893,-2.2893,-2.2893,-2.2893,-2.2893,-2.2893,-2.2893,-2.2893,-2.2893,-2.2893,-2.2893,-2.2893,-2.2893,-2.2893,-2.2893,-2.2893,-2.2893,-2.2893,-2.2893,-2.2893,-2.2893,-2.2893,-2.2893,-2.2893,-2.2893,-2.2893,-2.2893,-2.2893,-2.2893,-2.2893,-2.2893,-2.2893,-2.2893,-2.2893,-2.2893,-2.2893,-2.2893,-2.2893,-2.2893,0.0,0.0,0.0,0.0,0.0,0.0,0.0,0.0,0.0,0.0,0.0,0.0,0.0,0.0,0.0,0.0,0.0,0.0,0.0,0.0,0.0,0.0,0.0,0.0,0.0,0.0,0.0,0.0,-0.461,-0.6263,-0.7911,-0.914,-0.9792,-0.9792,-0.9792,-0.9792,-0.9792,-0.99,-1.0035,-1.0222,-1.0222,-1.0317,-1.0493,-1.0493,-1.0575,-1.0684,-1.0684,-1.0684,-1.0684,-1.0684,-1.0684,-1.0684,-1.0684,-1.1762,-1.3357,-1.3807,-1.6262,-1.9442,-1.992,-2.1297,-2.2893,-2.2893,-2.2893,-2.2893,-2.2893,-2.2893,-2.2893,-2.2893,-2.2893,-2.2893,-2.2893,-2.2893,-2.2893,-2.2893,-2.2893,-2.2893,-2.2893,-2.2893,-2.2893,-2.2893,-2.2893,-2.2893,-2.2893,-2.2893,-2.2893,-2.2893,-2.2893,-2.2893,-2.2893,-2.2893,-2.2893,-2.2893,-2.2893,-2.2893,-2.2893,-2.2893,-2.2893,-2.2893,-2.2893,-2.2893,-2.2893,-2.2893,-2.2893,-2.2893,-2.2893,-2.2893,-2.2893,-2.2893,-2.2893,-2.2893,-2.2893,-2.2893,0.0,0.0,0.0,0.0,0.0,0.0,0.0,0.0,0.0,0.0,0.0,0.0,0.0,0.0,0.0,0.0,0.0,0.0,0.0,0.0,0.0,0.0,0.0,0.0,0.0,0.0,0.0,0.0,-0.632,-0.7978,-0.9572,-0.9761,-0.9792,-0.9792,-0.9792,-0.9792,-0.9792,-0.9798,-0.9879,-1.0028,-1.0028,-1.0184,-1.0493,-1.0493,-1.0575,-1.0684,-1.0684,-1.0684,-1.0684,-1.0684,-1.0684,-1.0684,-1.0684,-1.1762,-1.3488,-1.5167,-1.7314,-1.9654,-2.1304,-2.2331,-2.2893,-2.2893,-2.2893,-2.2893,-2.2893,-2.2893,-2.2893,-2.2893,-2.2893,-2.2893,-2.2893,-2.2893,-2.2893,-2.2893,-2.2893,-2.2893,-2.2893,-2.2893,-2.2893,-2.2893,-2.2893,-2.2893,-2.2893,-2.2893,-2.2893,-2.2893,-2.2893,-2.2893,-2.2893,-2.2893,-2.2893,-2.2893,-2.2893,-2.2893,-2.2893,-2.2893,-2.2893,-2.2893,-2.2893,-2.2893,-2.2893,-2.2893,-2.2893,-2.2893,-2.2893,-2.2893,-2.2893,-2.2893,-2.2893,-2.2893,-2.2893,-2.2893,0.0,0.0,0.0,0.0,0.0,0.0,0.0,0.0,0.0,0.0,0.0,0.0,0.0,0.0,0.0,0.0,0.0,0.0,0.0,0.0,0.0,0.0,0.0,0.0,0.0,0.0,0.0,0.0,0.0,-0.8094,-0.9731,-0.9792,-0.9792,-0.9792,-0.9792,-0.9792,-0.9792,-0.9792,-0.9819,-0.9873,-0.9873,-0.9981,-1.0177,-1.031,-1.0432,-1.0582,-1.0644,-1.0684,-1.0684,-1.0684,-1.0684,-1.0817,-1.1927,-1.3423,-1.5167,-1.6915,-1.9069,-2.1172,-2.178,-2.2398,-2.2893,-2.2893,-2.2893,-2.2893,-2.2893,-2.2893,-2.2893,-2.2893,-2.2893,-2.2893,-2.2893,-2.2893,-2.2893,-2.2893,-2.2893,-2.2893,-2.2893,-2.2893,-2.2893,-2.2893,-2.2893,-2.2893,-2.2893,-2.2893,-2.2893,-2.2893,-2.2893,-2.2893,-2.2893,-2.2893,-2.2893,-2.2893,-2.2893,-2.2893,-2.2893,-2.2893,-2.2893,-2.2893,-2.2893,-2.2893,-2.2893,-2.2893,-2.2893,-2.2893,-2.2893,-2.2893,-2.2893,-2.2893,-2.2893,-2.2893,-2.2893,-2.2893,0.0,0.0,0.0,0.0,0.0,0.0,0.0,0.0,0.0,0.0,0.0,0.0,0.0,0.0,0.0,0.0,0.0,0.0,0.0,0.0,0.0,0.0,0.0,0.0,0.0,0.0,0.0,0.0,0.0,0.0,-0.9731,-0.9792,-0.9792,-0.9792,-0.9792,-0.9792,-0.9792,-0.9792,-0.9792,-0.9792,-0.9792,-0.9873,-1.0021,-1.0209,-1.0358,-1.05,-1.0656,-1.0684,-1.0684,-1.0684,-1.0684,-1.0883,-1.261,-1.4003,-1.5307,-1.7756,-1.9707,-2.1218,-2.1886,-2.2492,-2.2893,-2.2893,-2.2893,-2.2893,-2.2893,-2.2893,-2.2893,-2.2893,-2.2893,-2.2893,-2.2893,-2.2893,-2.2893,-2.2893,-2.2893,-2.2893,-2.2893,-2.2893,-2.2893,-2.2893,-2.2893,-2.2893,-2.2893,-2.2893,-2.2893,-2.2893,-2.2893,-2.2893,-2.2893,-2.2893,-2.2893,-2.2893,-2.2893,-2.2893,-2.2893,-2.2893,-2.2893,-2.2893,-2.2893,-2.2893,-2.2893,-2.2893,-2.2893,-2.2893,-2.2893,-2.2893,-2.2893,-2.2893,-2.2893,-2.2893,-2.2893,-2.2893,0.0,0.0,0.0,0.0,0.0,0.0,0.0,0.0,0.0,0.0,0.0,0.0,0.0,0.0,0.0,0.0,0.0,0.0,0.0,0.0,0.0,0.0,0.0,0.0,0.0,0.0,0.0,0.0,-0.8927,-0.9792,-0.9792,-0.9792,-0.9792,-0.9792,-0.9792,-0.9792,-0.9792,-0.9792,-0.9792,-0.9792,-0.9792,-0.9866,-0.9984,-1.0209,-1.0358,-1.0493,-1.0649,-1.0684,-1.0684,-1.0684,-1.0717,-1.0949,-1.2709,-1.3423,-1.3899,-1.7674,-1.9262,-1.9757,-2.1729,-2.2619,-2.2893,-2.2893,-2.2893,-2.2893,-2.2893,-2.2893,-2.2893,-2.2893,-2.2893,-2.2893,-2.2893,-2.2893,-2.2893,-2.2893,-2.2893,-2.2893,-2.2893,-2.2893,-2.2893,-2.2893,-2.2893,-2.2893,-2.2893,-2.2893,-2.2893,-2.2893,-2.2893,-2.2893,-2.2893,-2.2893,-2.2893,-2.2893,-2.2893,-2.2893,-2.2893,-2.2893,-2.2893,-2.2893,-2.2893,-2.2893,-2.2893,-2.2893,-2.2893,-2.2893,-2.2893,-2.2893,-2.2893,-2.2893,-2.2893,-2.2893,-2.2893,-2.2893,0.7988,0.0,0.0,0.0,0.0,0.0,0.8403,0.741,0.0,0.0,0.0,0.0,0.0,0.0,0.0,0.0,0.0,0.0,0.0,0.0,0.0,0.0,0.0,0.0,0.0,0.0,0.0,0.0,-0.9542,-0.9792,-0.9792,-0.9792,-0.9792,-0.9792,-0.9792,-0.9792,-0.9792,-0.9792,-0.9792,-0.9792,-0.9792,-0.9812,-0.9859,-1.0161,-1.0335,-1.0383,-1.0609,-1.0684,-1.0684,-1.0684,-1.1439,-1.2742,-1.4493,-1.5946,-1.7367,-1.9953,-2.1058,-2.1376,-2.2144,-2.2619,-2.2893,-2.2893,-2.2893,-2.2893,-2.2893,-2.2893,-2.2893,-2.2893,-2.2893,-2.2893,-2.2893,-2.2893,-2.2893,-2.2893,-2.2893,-2.2893,-2.2893,-2.2893,-2.2893,-2.2893,-2.2893,-2.2893,-2.2893,-2.2893,-2.2893,-2.2893,-2.2893,-2.2893,-2.2893,-2.2893,-2.2893,-2.2893,-2.2893,-2.2893,-2.2893,-2.2893,-2.2893,-2.2893,-2.2893,-2.2893,-2.2893,-2.2893,-2.2893,-2.2893,-2.2893,-2.2893,-2.2893,-2.2893,-2.2893,-2.2893,-2.2893,-2.2893,0.0,0.0,0.0,0.0,0.0,0.0,0.7578,0.6412,0.5063,0.0,0.0,0.0,0.0,0.0,0.0,0.0,0.0,0.0,0.0,0.0,0.0,0.0,0.0,0.0,0.0,-0.6551,-0.7829,-0.9577,-0.9758,-0.9792,-0.9792,-0.9792,-0.9792,-0.9792,-0.9792,-0.9792,-0.9792,-0.9792,-0.9792,-0.9792,-0.9792,-0.9792,-0.9798,-1.0141,-1.0315,-1.0297,-1.0588,-1.0684,-1.075,-1.1472,-1.238,-1.348,-1.5232,-1.6528,-1.7776,-2.0676,-2.1405,-2.1091,-2.2209,-2.2746,-2.2893,-2.2893,-2.2893,-2.2893,-2.2893,-2.2893,-2.2893,-2.2893,-2.2893,-2.2893,-2.2893,-2.2893,-2.2893,-2.2893,-2.2893,-2.2893,-2.2893,-2.2893,-2.2893,-2.2893,-2.2893,-2.2893,-2.2893,-2.2893,-2.2893,-2.2893,-2.2893,-2.2893,-2.2893,-2.2893,-2.2893,-2.2893,-2.2893,-2.2893,-2.2893,-2.2893,-2.2893,-2.2893,-2.2893,-2.2893,-2.2893,-2.2893,-2.2893,-2.2893,-2.3027,-2.3148,-2.3268,-2.3014,-2.2893,-2.2893,-2.2893,-2.2893,0.0,0.0,0.0,0.0,0.0,0.0,0.6511,0.4976,0.3472,0.2405,0.0,0.0,0.0,0.0,0.0,0.0,0.0,0.0,0.0,0.0,0.0,0.0,0.0,0.0,-0.663,-0.7163,-0.7951,-0.9486,-0.971,-0.9792,-0.9792,-0.9792,-0.9792,-0.9792,-0.9792,-0.9792,-0.9792,-0.9792,-0.9792,-0.9792,-0.9792,-0.9792,-0.9798,-1.0141,-1.0315,-1.0297,-1.0588,-1.0684,-1.085,-1.2578,-1.3423,-1.3742,-1.5492,-1.6302,-1.6947,-2.0626,-2.1027,-1.9993,-2.2136,-2.2893,-2.2893,-2.2893,-2.2893,-2.2893,-2.2893,-2.2893,-2.2893,-2.2893,-2.2893,-2.2893,-2.2893,-2.2893,-2.2893,-2.2893,-2.2893,-2.2893,-2.2893,-2.2893,-2.2893,-2.2893,-2.2893,-2.2893,-2.2893,-2.2893,-2.2893,-2.2893,-2.2893,-2.2893,-2.2893,-2.2893,-2.2893,-2.2893,-2.2893,-2.2893,-2.2893,-2.2893,-2.2893,-2.2893,-2.2893,-2.2907,-2.2947,-2.2947,-2.296,-2.3,-2.3233,-2.3514,-2.3803,-2.3255,-2.3,-2.3,-2.3,-2.3,0.0,0.0,0.0,0.0,0.0,0.0,0.6107,0.4152,0.2326,0.0,0.0,0.0,0.0,0.0,0.0,0.0,0.0,0.0,0.0,0.0,0.0,0.0,0.0,0.0,-0.6824,-0.8052,-0.9022,-0.9562,-0.971,-0.9792,-0.9792,-0.9792,-0.9792,-0.9792,-0.9792,-0.9792,-0.9792,-0.9792,-0.9792,-0.9792,-0.9792,-0.9792,-0.9798,-1.0141,-1.0315,-1.0297,-1.0588,-1.0684,-1.085,-1.2578,-1.4134,-1.5557,-1.7313,-1.8864,-2.0227,-2.1535,-2.178,-2.1627,-2.2591,-2.2893,-2.2893,-2.2893,-2.2893,-2.2893,-2.2893,-2.2893,-2.2893,-2.2893,-2.2893,-2.2893,-2.2893,-2.2893,-2.2893,-2.2893,-2.2893,-2.2893,-2.2893,-2.2893,-2.2893,-2.2893,-2.2893,-2.2893,-2.2893,-2.2893,-2.2893,-2.2893,-2.2893,-2.2893,-2.2893,-2.2893,-2.2893,-2.2893,-2.2893,-2.2893,-2.2893,-2.2893,-2.2893,-2.2893,-2.2893,-2.3014,-2.322,-2.3233,-2.3354,-2.3629,-2.3696,-2.375,-2.3803,-2.3683,-2.3629,-2.3629,-2.3629,-2.3629,0.0,0.0,0.0,0.716,0.0,0.0,0.0,0.2962,0.1816,0.1138,0.0,0.0,0.0,0.0,0.0,0.0,0.0,0.0,0.0,0.0,0.0,0.0,0.0,0.0,-0.7819,-0.868,-0.9308,-0.9585,-0.971,-0.9792,-0.9792,-0.9792,-0.9792,-0.9792,-0.9792,-0.9792,-0.9792,-0.9792,-0.9792,-0.9792,-0.9792,-0.9792,-0.9798,-1.0141,-1.0315,-1.0297,-1.0588,-1.1174,-1.2117,-1.3872,-1.5622,-1.728,-1.8148,-1.9578,-2.1176,-2.1764,-2.1991,-2.2104,-2.2693,-2.2893,-2.2893,-2.2893,-2.2893,-2.2893,-2.2893,-2.2893,-2.2893,-2.2893,-2.2893,-2.2893,-2.2893,-2.2893,-2.2893,-2.2893,-2.2893,-2.2893,-2.2893,-2.2893,-2.2893,-2.2893,-2.2893,-2.2893,-2.2893,-2.2893,-2.2893,-2.2893,-2.2893,-2.2893,-2.2893,-2.2893,-2.2893,-2.2893,-2.2893,-2.2893,-2.2893,-2.3006,-2.31,-2.31,-2.3268,-2.3415,-2.3541,-2.3554,-2.3688,-2.3981,-2.3981,-2.4062,-2.4209,-2.4209,-2.4048,-2.3803,-2.3803,-2.3803,0.0,0.0,0.0,0.0,0.0,0.4972,0.0,0.0,0.0,0.0232,0.0,0.0,0.0,0.0,0.0,0.0,0.0,0.0,0.0,0.0,0.0,0.0,0.0,0.0,-0.8774,-0.9069,-0.9294,-0.9544,-0.97,-0.9765,-0.9792,-0.9792,-0.9792,-0.9792,-0.9792,-0.9792,-0.9792,-0.9792,-0.9792,-0.9792,-0.9792,-0.9805,-0.9846,-1.0154,-1.0297,-1.0337,-1.0602,-1.1696,-1.3456,-1.5167,-1.6915,-1.8544,-1.8864,-1.9865,-2.1176,-2.1764,-2.1991,-2.2104,-2.2693,-2.2893,-2.2893,-2.2893,-2.2893,-2.2893,-2.2893,-2.2893,-2.2893,-2.2893,-2.2893,-2.2893,-2.2893,-2.2893,-2.2893,-2.2893,-2.2893,-2.2893,-2.2893,-2.2893,-2.2893,-2.2893,-2.2893,-2.2893,-2.2893,-2.2893,-2.2893,-2.2893,-2.2893,-2.2893,-2.2893,-2.2893,-2.2893,-2.2893,-2.2947,-2.2987,-2.2987,-2.3233,-2.3407,-2.3407,-2.3634,-2.383,-2.3884,-2.395,-2.4048,-2.4289,-2.4289,-2.4359,-2.4599,-2.4599,-2.4396,-2.3941,-2.3941,-2.3941,0.0,0.0,0.0,0.0,0.5097,0.0,0.0,0.0,0.0177,0.0025,0.0,0.0,0.0,0.0,0.0,0.0,0.0,0.0,0.0,0.0,0.0,0.0,0.0,0.0,0.0,-0.9069,-0.9254,-0.9424,-0.9551,-0.9686,-0.9785,-0.9792,-0.9792,-0.9792,-0.9792,-0.9792,-0.9792,-0.9792,-0.9792,-0.9792,-0.9792,-0.9859,-1.0001,-1.0202,-1.0351,-1.048,-1.0649,-1.1696,-1.3456,-1.5167,-1.6915,-1.864,-2.0195,-2.0919,-2.1176,-2.1764,-2.1991,-2.2104,-2.2693,-2.2893,-2.2893,-2.2893,-2.2893,-2.2893,-2.2893,-2.2893,-2.2893,-2.2893,-2.2893,-2.2893,-2.2893,-2.2893,-2.2893,-2.2893,-2.2893,-2.2893,-2.2893,-2.2893,-2.2893,-2.2893,-2.2893,-2.2893,-2.2893,-2.2893,-2.2893,-2.2893,-2.2893,-2.2893,-2.2893,-2.2893,-2.2893,-2.2893,-2.3113,-2.3238,-2.3238,-2.3554,-2.375,-2.375,-2.379,-2.3924,-2.4142,-2.4359,-2.4519,-2.4546,-2.4546,-2.4572,-2.4599,-2.4599,-2.4572,-2.4506,-2.4506,-2.4506,0.0,0.0,0.0,0.0,0.0,0.0,0.0,0.0,0.0,0.0,0.0,0.0,0.0,0.0,0.0,0.0,0.0,0.0,0.0,0.0,0.0,0.0,0.0,0.0,0.0,0.0,0.0,0.0,-0.9469,-0.9639,-0.9693,-0.9744,-0.9792,-0.9792,-0.9792,-0.9792,-0.9792,-0.9792,-0.9792,-0.9792,-0.9792,-0.9873,-1.0021,-1.0209,-1.0358,-1.05,-1.0656,-1.1696,-1.3357,-1.4101,-1.601,-1.8576,-1.9323,-2.033,-2.1448,-2.1863,-2.2098,-2.2298,-2.2746,-2.2893,-2.2893,-2.2893,-2.2893,-2.2893,-2.2893,-2.2893,-2.2893,-2.2893,-2.2893,-2.2893,-2.2893,-2.2893,-2.2893,-2.2893,-2.2893,-2.2893,-2.2893,-2.2893,-2.2893,-2.2893,-2.2893,-2.2893,-2.2893,-2.2893,-2.2893,-2.2893,-2.2893,-2.2893,-2.2893,-2.3054,-2.3126,-2.3126,-2.3407,-2.3581,-2.3581,-2.3848,-2.4022,-2.4022,-2.4182,-2.4329,-2.4412,-2.4532,-2.4599,-2.4599,-2.4599,-2.4599,-2.4599,-2.4599,-2.4599,-2.4599,-2.4599,-2.4599,0.7559,0.0,0.0,0.0,0.0,0.0,0.0,0.0,0.0,0.0,0.0,0.0,0.0,0.0,0.0,0.0,0.0,0.0,0.0,0.0,0.0,0.0,0.0,0.0,0.0,0.0,0.0,-0.9207,-0.9424,-0.9564,-0.9605,-0.971,-0.9792,-0.9792,-0.9792,-0.9792,-0.9792,-0.9792,-0.9792,-0.9792,-0.9792,-0.9893,-1.0082,-1.0229,-1.0378,-1.0561,-1.067,-1.1696,-1.3292,-1.3292,-1.507,-1.7827,-1.8308,-1.9532,-2.1098,-2.1733,-2.2164,-2.2458,-2.2786,-2.2893,-2.2893,-2.2893,-2.2893,-2.2893,-2.2893,-2.2893,-2.2893,-2.2893,-2.2893,-2.2893,-2.2893,-2.2893,-2.2893,-2.2893,-2.2893,-2.2893,-2.2893,-2.2893,-2.2893,-2.2893,-2.2893,-2.2893,-2.2893,-2.2893,-2.2893,-2.2893,-2.2974,-2.3027,-2.3027,-2.326,-2.3447,-2.3447,-2.3714,-2.3924,-2.3924,-2.4155,-2.4329,-2.4329,-2.4479,-2.4599,-2.4599,-2.4599,-2.4599,-2.4599,-2.4599,-2.4599,-2.4599,-2.4599,-2.4599,-2.4599,-2.4599,-2.4599,0.0,0.0,0.0,0.2741,0.0,0.0,0.0,0.0,0.0,0.0,0.0,0.0,0.0,0.0,0.0,0.0,0.0,0.0,0.0,0.0,0.0,0.0,0.0,0.0,0.0,0.0,-0.9001,-0.92,-0.9328,-0.9456,-0.9598,-0.971,-0.9792,-0.9792,-0.9792,-0.9792,-0.9792,-0.9792,-0.9792,-0.9792,-0.9792,-0.9978,-1.0308,-1.0308,-1.0439,-1.0677,-1.0684,-1.1696,-1.3292,-1.3292,-1.4362,-1.614,-1.7827,-1.8883,-1.9675,-2.1371,-2.2164,-2.2458,-2.2786,-2.2893,-2.2893,-2.2893,-2.2893,-2.2893,-2.2893,-2.2893,-2.2893,-2.2893,-2.2893,-2.2893,-2.2893,-2.2893,-2.2893,-2.2893,-2.2893,-2.2893,-2.2893,-2.2893,-2.2893,-2.2893,-2.2893,-2.2893,-2.2893,-2.2893,-2.2893,-2.2893,-2.3113,-2.3278,-2.3278,-2.3567,-2.379,-2.379,-2.4022,-2.4195,-2.4195,-2.4412,-2.4586,-2.4586,-2.4599,-2.4599,-2.4599,-2.4599,-2.4599,-2.4599,-2.4599,-2.4599,-2.4599,-2.4599,-2.4599,-2.4599,-2.4599,-2.4599,0.0,0.0,0.5754,0.3907,0.0,0.0,0.0,0.0,0.0,0.0,0.0,0.0,0.0,0.0,0.0,0.0,0.0,0.0,0.0,0.0,0.0,0.0,0.0,0.0,0.0,0.0,0.0,-0.9008,-0.9239,-0.943,-0.9456,-0.9686,-0.9792,-0.9792,-0.9792,-0.9792,-0.9792,-0.9792,-0.9792,-0.9792,-0.9792,-0.9985,-1.0315,-1.0315,-1.0439,-1.0684,-1.0684,-1.1049,-1.1563,-1.1563,-1.261,-1.4362,-1.6108,-1.7871,-1.9609,-2.1371,-2.2298,-2.276,-2.2867,-2.2893,-2.2893,-2.2893,-2.2893,-2.2893,-2.2893,-2.2893,-2.2893,-2.2893,-2.2893,-2.2893,-2.2893,-2.2893,-2.2893,-2.2893,-2.2893,-2.2893,-2.2893,-2.2893,-2.2893,-2.2893,-2.2893,-2.2893,-2.2893,-2.3033,-2.3166,-2.3166,-2.3225,-2.3394,-2.3594,-2.3875,-2.4062,-2.4062,-2.4315,-2.4452,-2.4452,-2.4546,-2.4599,-2.4599,-2.4599,-2.4599,-2.4599,-2.4599,-2.4599,-2.4599,-2.4599,-2.4599,-2.4599,-2.4599,-2.4599,-2.4599,-2.4599,-2.4599,0.7258,0.6279,0.0,0.3186,0.1994,0.0,0.0187,0.0,0.0,0.0,0.0,0.0,0.0,0.0,0.0,0.0,0.0,0.0,0.0,-0.26,0.0,0.0,0.0,0.0,0.0,0.0,-0.8912,-0.8912,-0.9164,-0.9349,0.0,-0.9612,-0.9737,-0.9792,-0.9792,-0.9792,-0.9792,-0.9792,-0.9792,-0.9792,-0.9846,-1.0032,-1.0315,-1.0363,-1.0487,-1.0684,-1.0684,-1.0684,-1.0684,-1.0684,-1.1372,-1.2553,-1.4346,-1.6455,-1.8763,-2.1139,-2.2385,-2.2893,-2.2893,-2.2893,-2.2893,-2.2893,-2.2893,-2.2893,-2.2893,-2.2893,-2.2893,-2.2893,-2.2893,-2.2893,-2.2893,-2.2893,-2.2893,-2.2893,-2.2893,-2.2893,-2.2893,-2.2893,-2.2893,-2.2893,-2.2893,-2.2934,-2.3041,-2.3193,-2.3292,-2.3292,-2.3465,-2.3714,-2.3901,-2.4182,-2.4356,-2.4356,-2.4492,-2.4599,-2.4599,-2.4599,-2.4599,-2.4599,-2.4599,-2.4599,-2.4599,-2.4599,-2.4653,-2.4796,-2.4653,-2.4653,-2.4796,-2.4653,-2.4599,-2.4599,-2.4706,-2.4796]},{"header":{"parameterUnit":"m.s-1","parameterCategory":1,"la1":30.6,"la2":29.2853,"lo1":-89.7004,"lo2":-87.6739,"dy":0.0162,"dx":0.0183,"nx":112,"ny":82,"refTime":"2024-02-25T18:00:00:Z","depth":0,"parameterNumber":3,"parameterNumberName":"V-component_of_WINDS"},"data":[0.0,0.0,0.0,0.0,0.0,0.0,0.0,0.0,0.0,0.0,0.0,0.0,0.0,0.0,0.0,0.0,0.0,0.0,0.0,0.0,0.0,0.0,0.0,0.0,0.0,0.0,0.0,0.0,0.0,0.0,0.0,0.0,0.0,0.0,0.0,0.0,0.0,0.0,0.0,0.0,0.0,0.0,0.0,0.0,0.0,0.0,0.0,0.0,0.0,0.0,0.0,0.0,0.0,0.0,0.0,0.0,0.0,0.0,0.0,0.0,0.0,0.0,0.0,0.0,0.0,0.0,0.0,0.0,0.0,0.0,0.0,0.0,0.0,0.0,0.0,0.0,0.0,0.0,0.0,0.0,0.0,0.0,0.0,0.0,0.0,0.0,0.0,0.0,0.0,0.0,0.0,4.5849,4.5973,4.6054,4.6054,4.6054,4.6342,4.7067,0.0,0.0,0.0,0.0,0.0,0.0,0.0,0.0,0.0,0.0,0.0,0.0,0.0,0.0,0.0,0.0,0.0,0.0,0.0,0.0,0.0,0.0,0.0,0.0,0.0,0.0,0.0,0.0,0.0,0.0,0.0,0.0,0.0,0.0,0.0,0.0,0.0,0.0,0.0,0.0,0.0,0.0,0.0,0.0,0.0,0.0,0.0,0.0,0.0,0.0,0.0,0.0,0.0,0.0,0.0,0.0,0.0,0.0,0.0,0.0,0.0,0.0,0.0,0.0,0.0,0.0,0.0,0.0,0.0,0.0,0.0,0.0,0.0,0.0,0.0,0.0,0.0,0.0,0.0,0.0,0.0,0.0,0.0,0.0,0.0,0.0,0.0,0.0,0.0,0.0,0.0,0.0,0.0,0.0,0.0,0.0,0.0,0.0,0.0,0.0,0.0,0.0,0.0,0.0,4.6836,4.6947,4.7629,4.8061,4.8061,4.8061,4.808,4.8076,0.0,0.0,0.0,0.0,0.0,0.0,0.0,0.0,0.0,0.0,0.0,0.0,0.0,0.0,0.0,0.0,0.0,0.0,0.0,0.0,0.0,0.0,0.0,0.0,0.0,0.0,0.0,0.0,0.0,0.0,0.0,0.0,0.0,0.0,0.0,0.0,0.0,0.0,0.0,0.0,0.0,0.0,0.0,0.0,0.0,0.0,0.0,0.0,0.0,0.0,0.0,0.0,0.0,0.0,0.0,0.0,0.0,0.0,0.0,0.0,0.0,0.0,0.0,0.0,0.0,0.0,0.0,0.0,0.0,0.0,0.0,0.0,0.0,0.0,0.0,0.0,0.0,0.0,0.0,0.0,0.0,0.0,0.0,0.0,0.0,0.0,0.0,0.0,0.0,0.0,0.0,0.0,0.0,0.0,0.0,0.0,0.0,0.0,0.0,0.0,0.0,0.0,0.0,4.7481,4.7746,4.7905,4.8271,4.8507,4.8507,4.8507,4.8674,4.9071,4.8725,0.0,0.0,0.0,0.0,0.0,0.0,0.0,0.0,0.0,0.0,0.0,0.0,0.0,0.0,0.0,0.0,0.0,0.0,0.0,0.0,0.0,0.0,0.0,0.0,0.0,0.0,0.0,0.0,0.0,0.0,0.0,0.0,0.0,0.0,0.0,0.0,0.0,0.0,0.0,0.0,0.0,0.0,0.0,0.0,0.0,0.0,0.0,0.0,0.0,0.0,0.0,0.0,0.0,0.0,0.0,0.0,0.0,0.0,0.0,0.0,0.0,0.0,0.0,0.0,0.0,0.0,0.0,0.0,0.0,0.0,0.0,0.0,0.0,0.0,0.0,0.0,0.0,0.0,0.0,0.0,0.0,0.0,0.0,0.0,0.0,0.0,0.0,0.0,0.0,0.0,0.0,0.0,0.0,0.0,0.0,0.0,0.0,0.0,0.0,0.0,0.0,0.0,4.8724,4.8791,4.8881,4.9085,4.9163,4.9163,4.9163,4.9464,5.0098,5.0135,0.0,0.0,0.0,0.0,0.0,0.0,0.0,0.0,0.0,0.0,0.0,0.0,0.0,0.0,0.0,0.0,0.0,0.0,0.0,0.0,0.0,0.0,0.0,0.0,0.0,0.0,0.0,0.0,0.0,0.0,0.0,0.0,0.0,0.0,0.0,0.0,0.0,0.0,0.0,0.0,0.0,0.0,0.0,0.0,0.0,0.0,0.0,0.0,0.0,0.0,0.0,0.0,0.0,0.0,0.0,0.0,0.0,0.0,0.0,0.0,0.0,0.0,0.0,0.0,0.0,0.0,0.0,0.0,0.0,0.0,0.0,0.0,0.0,0.0,0.0,0.0,0.0,0.0,0.0,0.0,0.0,0.0,0.0,0.0,0.0,0.0,0.0,0.0,0.0,0.0,0.0,0.0,0.0,0.0,0.0,0.0,0.0,0.0,0.0,0.0,0.0,0.0,4.9983,5.0076,5.0077,5.0741,5.121,5.121,5.121,5.1164,5.1122,5.1118,0.0,0.0,0.0,0.0,0.0,0.0,0.0,0.0,0.0,0.0,0.0,0.0,0.0,0.0,0.0,0.0,0.0,0.0,0.0,0.0,0.0,0.0,0.0,0.0,0.0,0.0,0.0,0.0,0.0,0.0,0.0,0.0,0.0,0.0,0.0,0.0,0.0,0.0,0.0,0.0,0.0,0.0,0.0,0.0,0.0,0.0,0.0,0.0,0.0,0.0,0.0,0.0,0.0,0.0,0.0,0.0,0.0,0.0,0.0,0.0,0.0,0.0,0.0,0.0,0.0,0.0,0.0,0.0,0.0,0.0,0.0,0.0,0.0,0.0,0.0,0.0,0.0,0.0,0.0,0.0,0.0,0.0,0.0,0.0,0.0,0.0,0.0,0.0,0.0,0.0,0.0,0.0,0.0,0.0,0.0,0.0,0.0,0.0,0.0,0.0,0.0,0.0,5.0791,5.0849,0.0,5.1211,5.1406,5.1406,5.1406,5.1367,5.1322,0.0,0.0,0.0,0.0,0.0,0.0,0.0,0.0,0.0,0.0,0.0,0.0,0.0,0.0,0.0,0.0,0.0,0.0,0.0,0.0,0.0,0.0,0.0,0.0,0.0,0.0,0.0,0.0,0.0,0.0,0.0,0.0,0.0,0.0,0.0,0.0,0.0,0.0,0.0,0.0,0.0,0.0,0.0,0.0,0.0,0.0,0.0,0.0,0.0,0.0,0.0,0.0,0.0,0.0,0.0,0.0,0.0,0.0,0.0,0.0,0.0,0.0,0.0,0.0,0.0,0.0,0.0,0.0,0.0,0.0,0.0,0.0,0.0,0.0,0.0,0.0,0.0,0.0,0.0,0.0,0.0,0.0,0.0,0.0,0.0,0.0,0.0,0.0,0.0,0.0,0.0,0.0,0.0,0.0,0.0,0.0,0.0,0.0,0.0,0.0,0.0,0.0,5.1262,5.1267,5.1316,0.0,5.1406,5.1406,5.1406,5.1406,5.1406,5.1406,0.0,0.0,0.0,0.0,0.0,0.0,0.0,0.0,0.0,0.0,0.0,0.0,0.0,0.0,0.0,0.0,0.0,0.0,0.0,0.0,0.0,0.0,0.0,0.0,0.0,0.0,0.0,0.0,0.0,0.0,0.0,0.0,0.0,0.0,0.0,0.0,0.0,0.0,0.0,0.0,0.0,0.0,0.0,0.0,0.0,0.0,0.0,0.0,0.0,0.0,0.0,0.0,0.0,0.0,0.0,0.0,0.0,0.0,0.0,0.0,0.0,0.0,0.0,0.0,0.0,0.0,0.0,0.0,0.0,0.0,0.0,0.0,0.0,0.0,0.0,0.0,0.0,0.0,0.0,0.0,0.0,0.0,0.0,0.0,0.0,0.0,0.0,0.0,0.0,0.0,0.0,0.0,0.0,0.0,0.0,0.0,0.0,0.0,0.0,0.0,0.0,0.0,5.1406,5.1406,5.1406,5.1406,5.1406,5.1406,5.1406,5.1406,5.1406,0.0,0.0,0.0,0.0,0.0,0.0,0.0,0.0,0.0,0.0,0.0,0.0,0.0,0.0,0.0,0.0,0.0,0.0,0.0,0.0,0.0,0.0,0.0,0.0,0.0,0.0,0.0,0.0,0.0,0.0,0.0,0.0,0.0,0.0,0.0,0.0,0.0,0.0,0.0,0.0,0.0,0.0,0.0,0.0,0.0,0.0,0.0,0.0,0.0,0.0,0.0,0.0,0.0,0.0,0.0,0.0,0.0,0.0,0.0,0.0,0.0,0.0,0.0,0.0,0.0,0.0,0.0,0.0,0.0,0.0,0.0,0.0,0.0,0.0,0.0,0.0,0.0,0.0,0.0,0.0,0.0,0.0,0.0,0.0,0.0,0.0,0.0,0.0,0.0,0.0,0.0,0.0,0.0,0.0,0.0,0.0,0.0,0.0,0.0,0.0,0.0,0.0,0.0,5.1406,5.1406,5.1406,5.1406,5.1406,5.1406,5.1406,5.1406,5.1406,5.1406,0.0,0.0,0.0,0.0,0.0,0.0,0.0,0.0,0.0,0.0,0.0,0.0,0.0,0.0,0.0,0.0,0.0,0.0,0.0,0.0,0.0,0.0,0.0,0.0,0.0,0.0,0.0,0.0,0.0,0.0,0.0,0.0,0.0,0.0,0.0,0.0,0.0,0.0,0.0,0.0,0.0,0.0,0.0,0.0,0.0,0.0,0.0,0.0,0.0,0.0,0.0,0.0,0.0,0.0,0.0,0.0,0.0,0.0,0.0,0.0,0.0,0.0,0.0,0.0,0.0,0.0,0.0,0.0,0.0,0.0,0.0,0.0,0.0,0.0,0.0,0.0,0.0,0.0,0.0,0.0,0.0,0.0,0.0,0.0,0.0,0.0,0.0,0.0,0.0,0.0,0.0,0.0,0.0,0.0,0.0,0.0,0.0,0.0,0.0,0.0,0.0,0.0,5.1406,5.1406,5.1406,5.1406,5.1406,5.1406,5.1406,5.1406,5.1406,5.1406,0.0,0.0,0.0,0.0,0.0,0.0,0.0,0.0,0.0,0.0,0.0,0.0,0.0,0.0,0.0,0.0,0.0,0.0,0.0,0.0,0.0,0.0,0.0,0.0,0.0,0.0,0.0,0.0,0.0,0.0,0.0,0.0,0.0,0.0,0.0,0.0,0.0,0.0,0.0,0.0,0.0,0.0,0.0,0.0,0.0,0.0,0.0,0.0,0.0,0.0,0.0,0.0,0.0,0.0,0.0,0.0,0.0,0.0,0.0,0.0,0.0,0.0,0.0,0.0,0.0,0.0,0.0,0.0,0.0,0.0,0.0,0.0,0.0,0.0,0.0,0.0,0.0,0.0,0.0,0.0,0.0,0.0,0.0,0.0,0.0,0.0,0.0,0.0,0.0,0.0,0.0,0.0,0.0,0.0,0.0,0.0,0.0,0.0,0.0,0.0,0.0,0.0,5.1367,5.1366,5.1365,5.1365,5.1365,5.1365,5.1365,5.1366,5.1366,5.1365,0.0,0.0,0.0,0.0,0.0,0.0,0.0,0.0,0.0,0.0,0.0,0.0,0.0,0.0,0.0,0.0,0.0,0.0,0.0,0.0,0.0,0.0,0.0,0.0,0.0,0.0,0.0,0.0,0.0,0.0,0.0,0.0,0.0,0.0,0.0,0.0,0.0,0.0,0.0,0.0,0.0,0.0,0.0,0.0,0.0,0.0,0.0,0.0,0.0,0.0,0.0,0.0,0.0,0.0,0.0,0.0,0.0,0.0,0.0,0.0,4.3506,0.0,0.0,0.0,0.0,0.0,0.0,0.0,0.0,0.0,0.0,0.0,0.0,0.0,0.0,0.0,0.0,0.0,0.0,0.0,0.0,0.0,0.0,0.0,0.0,0.0,0.0,0.0,0.0,0.0,0.0,0.0,0.0,0.0,0.0,0.0,0.0,0.0,0.0,0.0,0.0,0.0,5.1221,5.1213,5.1166,5.1166,5.1166,5.1166,5.1166,5.1192,5.1201,5.1172,5.1194,0.0,0.0,0.0,0.0,0.0,0.0,0.0,0.0,0.0,0.0,0.0,0.0,0.0,0.0,0.0,0.0,0.0,0.0,0.0,0.0,0.0,0.0,0.0,0.0,0.0,0.0,0.0,0.0,0.0,0.0,0.0,0.0,0.0,0.0,0.0,0.0,0.0,0.0,0.0,0.0,0.0,0.0,0.0,0.0,0.0,0.0,0.0,0.0,0.0,0.0,0.0,0.0,0.0,0.0,0.0,0.0,0.0,0.0,0.0,0.0,4.3742,0.0,0.0,0.0,0.0,0.0,0.0,0.0,0.0,0.0,0.0,0.0,0.0,0.0,0.0,0.0,0.0,0.0,0.0,0.0,0.0,0.0,0.0,0.0,0.0,0.0,0.0,0.0,0.0,0.0,0.0,0.0,0.0,0.0,0.0,0.0,0.0,0.0,0.0,0.0,0.0,5.1783,5.1745,5.1826,5.2251,5.229,5.229,5.229,5.2312,5.236,5.2295,5.2312,0.0,0.0,0.0,0.0,0.0,0.0,0.0,0.0,0.0,0.0,0.0,0.0,0.0,0.0,0.0,0.0,0.0,0.0,0.0,0.0,0.0,0.0,0.0,0.0,0.0,0.0,0.0,0.0,0.0,0.0,0.0,0.0,0.0,0.0,0.0,0.0,0.0,0.0,0.0,0.0,0.0,0.0,0.0,0.0,0.0,0.0,0.0,0.0,0.0,0.0,0.0,0.0,0.0,4.4942,4.523,4.525,4.5717,4.6122,4.6422,4.5088,4.4513,4.4587,4.4907,0.0,0.0,0.0,0.0,0.0,0.0,0.0,0.0,0.0,0.0,0.0,0.0,0.0,0.0,0.0,0.0,0.0,0.0,0.0,0.0,0.0,0.0,0.0,0.0,5.0306,5.1171,0.0,0.0,0.0,0.0,0.0,0.0,0.0,0.0,0.0,0.0,0.0,0.0,5.2556,5.2534,5.2714,5.3449,5.3527,5.3527,5.3527,5.3551,5.3557,5.353,5.3554,5.3569,0.0,0.0,0.0,0.0,0.0,0.0,0.0,0.0,0.0,0.0,0.0,0.0,0.0,0.0,0.0,0.0,0.0,0.0,0.0,0.0,0.0,0.0,0.0,0.0,0.0,0.0,0.0,0.0,0.0,0.0,0.0,0.0,4.1693,4.1693,0.0,0.0,0.0,0.0,0.0,0.0,0.0,0.0,0.0,0.0,0.0,0.0,0.0,4.3864,4.4048,4.458,4.489,4.4998,4.5539,4.5792,4.5801,4.5856,4.6114,4.6496,4.6576,0.0,4.6698,4.6739,0.0,0.0,0.0,0.0,0.0,0.0,0.0,0.0,0.0,0.0,0.0,0.0,0.0,0.0,0.0,0.0,0.0,0.0,0.0,0.0,0.0,0.0,5.1169,5.1054,5.1211,5.1367,0.0,5.1211,5.1289,5.1367,5.1406,0.0,0.0,0.0,0.0,0.0,0.0,0.0,5.33,5.3177,5.3143,5.322,5.3258,5.3258,5.3258,5.3369,5.3398,5.3273,5.3373,5.3436,5.3436,5.342,0.0,0.0,0.0,0.0,0.0,0.0,0.0,0.0,0.0,0.0,0.0,0.0,0.0,0.0,0.0,0.0,0.0,0.0,0.0,0.0,0.0,0.0,0.0,0.0,0.0,0.0,0.0,0.0,0.0,4.1556,4.1832,4.1354,4.187,4.1944,0.0,0.0,0.0,0.0,0.0,0.0,0.0,0.0,0.0,4.4692,4.4713,4.5065,4.5822,4.6088,4.645,4.6898,4.7147,4.7241,4.7251,4.7497,4.7802,4.8221,4.8568,4.8877,4.906,4.8056,4.7745,4.7887,0.0,0.0,0.0,0.0,4.8082,4.8159,4.8663,4.8817,0.0,4.9394,0.0,0.0,0.0,0.0,0.0,0.0,0.0,0.0,0.0,0.0,5.1318,5.1367,5.1406,5.1406,5.1406,5.1797,5.1952,0.0,5.1663,5.2013,5.2016,0.0,0.0,0.0,0.0,5.3649,5.4099,5.4009,5.4087,5.4549,5.4626,5.4626,5.4626,5.4656,5.467,5.4598,5.4656,5.4675,5.4675,5.4766,5.464,0.0,0.0,0.0,0.0,0.0,0.0,0.0,0.0,0.0,0.0,0.0,0.0,0.0,0.0,0.0,0.0,0.0,0.0,0.0,0.0,0.0,0.0,0.0,0.0,0.0,0.0,0.0,0.0,4.23,4.2625,4.1789,4.2929,4.3288,0.0,0.0,0.0,0.0,0.0,0.0,4.4709,4.4909,4.5312,4.5896,4.5916,4.6411,4.7406,4.7406,4.7709,4.8296,4.8296,4.8336,4.8467,4.8761,4.9179,4.9659,4.9962,5.033,5.0592,4.9317,4.8779,4.8779,4.8779,4.8779,4.8788,4.8813,4.8835,4.8921,4.9598,4.9812,4.9928,5.0585,0.0,5.0816,5.0816,0.0,0.0,0.0,0.0,5.1127,5.1248,5.1419,5.1623,5.1718,5.1914,5.207,5.207,5.2538,5.2686,0.0,5.225,5.2827,5.2774,0.0,0.0,0.0,0.0,5.4265,5.4895,5.4858,5.5054,5.5631,5.5708,5.5708,5.5708,5.5708,5.5708,5.5708,5.5708,5.5708,5.5708,5.5817,5.5586,5.5013,0.0,0.0,0.0,0.0,0.0,0.0,0.0,0.0,0.0,0.0,0.0,0.0,0.0,0.0,0.0,0.0,0.0,0.0,0.0,0.0,0.0,0.0,0.0,0.0,0.0,0.0,0.0,0.0,0.0,4.3938,4.4525,0.0,0.0,0.0,0.0,4.4145,4.4796,4.5481,4.6147,4.6869,4.7508,4.8102,4.8157,4.8167,4.8223,4.8223,4.826,4.8296,4.8296,4.8514,4.889,4.8869,4.9333,5.0087,5.0105,5.033,5.0707,5.0592,5.0553,5.0553,5.0553,5.0553,5.0582,5.0728,5.0758,5.0784,5.0948,5.0993,5.1032,5.1071,5.1071,5.1071,5.1071,5.1076,0.0,0.0,5.1195,5.1211,5.1365,5.1992,5.2617,5.2617,5.3281,5.3867,5.3867,5.3813,5.3462,0.0,5.3144,5.3706,5.356,0.0,5.4771,5.468,5.5304,5.5728,5.5645,5.5637,5.567,5.5708,5.5708,5.5708,5.5708,5.5708,5.5708,5.5708,5.5708,5.5708,5.5708,5.5719,5.5769,5.5834,5.585,0.0,0.0,0.0,0.0,0.0,0.0,0.0,0.0,0.0,0.0,0.0,0.0,0.0,0.0,0.0,0.0,0.0,0.0,0.0,0.0,0.0,0.0,0.0,0.0,0.0,0.0,0.0,0.0,4.4272,4.5588,0.0,4.4981,4.5327,4.5782,4.623,4.6503,4.693,4.7547,4.7849,4.8075,4.8296,4.8296,4.8296,4.8296,4.8296,4.8296,4.8306,4.9132,4.9605,4.9777,5.0794,5.1436,5.1706,5.1978,5.2192,5.2318,5.2318,5.1669,5.0726,5.0804,5.0819,5.0844,5.0995,5.1017,5.1025,5.1074,5.1091,5.1091,5.1091,5.1444,5.1875,5.1875,5.2323,5.2849,5.2877,5.2947,5.3004,5.3047,5.3281,5.3555,5.3555,5.3789,5.3984,5.3984,5.4359,5.4537,5.4121,5.423,5.434,5.4329,5.4909,5.5415,5.5477,5.5637,5.574,5.5719,5.5708,5.5708,5.5708,5.5708,5.5708,5.5708,5.5708,5.5708,5.5708,5.5708,5.5708,5.5708,5.5708,5.5712,5.5769,5.5769,5.562,0.0,0.0,0.0,0.0,0.0,0.0,0.0,0.0,0.0,0.0,0.0,0.0,0.0,0.0,0.0,0.0,0.0,0.0,0.0,0.0,0.0,0.0,0.0,0.0,0.0,0.0,4.6252,4.5075,4.6586,4.7243,4.6114,4.6632,4.7219,4.7684,4.7705,4.8014,4.869,4.8746,4.8857,4.914,4.915,4.915,4.915,4.915,4.915,4.915,5.0128,5.0675,5.0841,5.2054,5.2684,5.2824,5.3086,5.3214,5.3262,5.3262,5.2622,5.1664,5.1726,5.1788,5.1829,5.1972,5.2015,5.2019,5.2053,5.2063,5.2063,5.2063,5.2454,5.2885,5.2885,5.335,5.3886,5.3886,5.394,5.3984,5.3984,5.4219,5.4453,5.4453,5.4648,5.4883,5.4883,5.5207,5.5428,5.5348,5.5193,5.5074,5.5054,5.5408,5.5728,5.5821,5.5745,5.5708,5.5708,5.5708,5.5708,5.5708,5.5708,5.5708,5.5708,5.5708,5.5708,5.5708,5.5708,5.5708,5.5708,5.5708,5.5708,5.5708,5.5708,5.5708,5.5708,0.0,0.0,0.0,0.0,0.0,0.0,0.0,0.0,0.0,0.0,0.0,0.0,0.0,0.0,0.0,0.0,0.0,0.0,0.0,0.0,0.0,0.0,0.0,4.6542,4.701,4.7176,4.6518,4.7554,4.8075,4.7517,4.8012,4.8333,4.837,4.837,4.8746,4.961,4.9647,5.0004,5.0765,5.0802,5.0802,5.0802,5.0802,5.0802,5.0802,5.125,5.1649,5.2054,5.2505,5.2912,5.3274,5.3274,5.3358,5.346,5.346,5.3579,5.3672,5.3475,5.3476,5.3621,5.376,5.3824,5.3832,5.3943,5.3984,5.3984,5.3984,5.4023,5.4023,5.4023,5.4062,5.4062,5.4062,5.4062,5.4062,5.4062,5.4726,5.5351,5.5351,5.5976,5.6601,5.6601,5.6385,5.6191,5.6186,5.6012,5.584,5.5712,5.5708,5.5708,5.5708,5.5708,0.0,5.5708,5.5708,5.5708,5.5708,5.5708,5.5708,5.5708,5.5708,5.5708,5.5708,5.5708,5.5708,5.5708,5.5708,5.5708,5.5708,5.5708,5.5708,5.5708,0.0,0.0,0.0,0.0,0.0,0.0,0.0,0.0,0.0,0.0,0.0,0.0,0.0,0.0,0.0,0.0,0.0,0.0,0.0,0.0,0.0,0.0,4.8709,4.788,4.7919,4.7995,4.7808,4.8085,4.8468,4.8962,4.9155,4.949,5.0068,5.0105,5.0215,5.0472,5.0472,5.0582,5.0802,5.0802,5.0802,5.0802,5.0802,5.0802,5.0812,5.2074,5.2768,5.2938,5.4237,5.4908,5.5011,5.5011,5.509,5.5226,5.5226,5.5381,5.55,5.4192,5.3692,5.3763,5.3894,5.3942,5.3942,5.3984,5.3984,5.3984,5.3984,5.4414,5.4922,5.4922,5.539,5.5898,5.5898,5.5898,5.5898,5.5898,5.6055,5.625,5.625,5.6445,5.6561,5.6463,5.6301,5.6161,5.5994,5.587,5.5753,5.5719,5.5708,5.5708,5.5708,5.5708,0.0,5.5708,5.5708,5.5708,5.5708,5.5708,5.5708,5.5708,5.5708,5.5708,5.5708,5.5708,5.5708,5.5708,5.5708,5.5708,5.5708,5.5708,5.5708,0.0,0.0,0.0,0.0,0.0,0.0,0.0,0.0,0.0,0.0,0.0,0.0,0.0,0.0,0.0,0.0,0.0,0.0,0.0,0.0,0.0,0.0,5.0078,4.9921,4.9407,4.9361,4.9361,4.9361,4.9361,4.9554,5.0041,5.0115,5.0298,5.0765,5.0802,5.0949,5.1279,5.1316,5.1463,5.1783,5.182,5.182,5.182,5.182,5.1905,5.207,5.3186,5.383,5.4016,5.5187,5.5708,5.5714,5.575,5.5896,5.6015,5.6087,5.6277,0.0,0.0,0.0,0.0,0.0,5.5078,5.5078,5.5078,5.5078,5.5078,5.5078,5.543,5.5859,5.5859,5.6211,5.6601,5.6601,5.6601,5.6601,5.6601,5.6601,5.6601,5.6601,5.656,5.6508,5.6438,5.6242,5.6022,5.5905,5.5769,0.0,5.5708,5.5708,5.5708,5.5708,5.5708,5.5708,5.5708,5.5708,5.5708,5.5708,5.5708,5.5708,5.5708,5.5708,0.0,0.0,0.0,5.5708,5.5708,5.5708,0.0,0.0,0.0,5.5708,5.5708,0.0,0.0,0.0,5.5478,5.5439,0.0,0.0,0.0,0.0,0.0,0.0,0.0,0.0,0.0,0.0,0.0,0.0,0.0,0.0,0.0,0.0,5.0949,5.0949,5.0949,5.1022,5.1012,5.0839,5.0802,5.0839,5.0949,5.0949,5.0986,5.1059,5.1059,5.1389,5.2097,0.0,0.0,0.0,0.0,5.3214,5.3214,5.3241,5.3444,5.3795,5.4322,5.4745,5.5121,5.5531,5.5724,5.5728,5.5836,5.6008,5.6225,5.6361,5.6464,5.6601,5.6461,5.6508,5.6601,5.6601,5.6601,5.6601,5.6601,0.0,0.0,5.6601,5.6601,5.6601,5.6601,5.6601,5.6601,5.6601,5.6601,5.6601,5.6601,5.6601,5.6562,5.6562,5.6463,5.6374,5.6365,5.6113,5.5911,5.5887,5.5789,5.5708,5.5708,5.5708,5.5708,5.5708,5.5708,5.5708,5.5708,5.5708,5.5708,5.5708,0.0,0.0,5.5708,5.5708,5.5708,5.5708,5.5708,5.5708,5.5708,5.5708,5.5708,5.5708,5.5708,5.5708,5.5708,5.5708,5.5708,5.5708,5.5632,5.5621,0.0,0.0,0.0,0.0,0.0,0.0,0.0,0.0,0.0,0.0,0.0,0.0,0.0,0.0,0.0,5.1767,5.1767,5.1767,5.1767,5.2344,5.226,5.0949,5.0802,5.1059,5.1693,5.1767,5.205,5.27,5.2737,5.281,5.2957,5.2957,5.3031,5.3214,5.3214,5.3214,5.3214,5.3506,5.372,5.3795,0.0,0.0,5.5121,5.5531,5.575,5.5857,5.5899,5.6077,5.6368,5.6385,5.6464,5.6601,5.6561,5.6562,5.6601,5.6601,5.6601,5.6601,5.6601,5.6601,5.6601,5.6601,5.6601,5.6601,5.6601,5.6601,0.0,5.6601,5.6601,5.6601,5.6601,5.6514,5.6449,5.6449,5.6351,5.6202,5.6029,5.5936,5.5866,5.575,5.5707,5.5708,5.5708,5.5708,5.5708,5.5708,5.5708,5.5708,5.5708,5.5708,5.5708,5.5708,5.5708,5.5708,5.5708,5.5708,5.5708,5.5708,5.5708,5.5708,5.5708,5.5708,5.5708,5.5708,5.5708,5.5708,5.5708,5.5708,5.5708,5.5703,5.5375,5.5212,0.0,0.0,0.0,0.0,0.0,0.0,0.0,0.0,0.0,0.0,0.0,5.2601,5.2601,0.0,5.2601,5.2601,5.2601,5.2601,5.2601,5.2957,5.2884,5.2113,5.2003,5.216,5.2564,5.2601,5.2784,5.3177,5.3214,5.3214,5.3214,5.3214,5.3214,5.3214,5.341,5.3514,5.3514,5.3952,5.4263,5.4446,5.4897,5.5205,5.5417,5.5671,5.5852,5.5893,5.6083,5.6262,5.6393,5.6462,5.6558,5.6601,5.6601,5.6601,5.6601,5.6601,5.6601,5.6601,5.6601,5.6601,5.6601,5.6601,5.6601,5.6601,5.6601,5.6601,5.6601,5.6601,5.6559,5.6509,5.6509,5.6702,5.6905,5.6905,5.7117,5.7317,5.7218,5.7141,5.7091,5.7,5.7011,5.7011,5.7011,5.7011,5.6703,5.5824,5.5708,5.5708,5.5708,5.5708,5.5708,5.5708,5.5708,5.5708,5.5708,5.5708,5.5708,5.5708,5.6093,5.6362,5.6362,5.678,5.7011,5.7011,5.7011,5.7011,5.7011,5.6768,5.6645,5.6632,5.5959,5.5663,0.0,0.0,0.0,0.0,0.0,0.0,0.0,0.0,5.3214,5.3214,5.3214,5.3214,5.3214,5.3214,5.3214,5.3214,5.3214,5.3214,5.3214,5.3214,5.3214,5.3214,5.3214,5.3214,5.3214,5.3214,5.3251,5.3434,5.3434,5.3508,5.3654,5.3734,5.3797,5.3797,5.4213,5.4436,5.4436,5.4856,5.5268,5.5572,5.5676,5.5927,5.6264,5.6347,5.6432,5.6488,5.6817,5.6956,5.6961,5.7067,5.7109,5.7109,5.7109,5.7109,5.707,5.6719,5.6601,5.6601,5.6601,5.6601,5.6601,5.6601,5.6679,5.6794,5.6794,5.6909,5.7021,5.7021,5.6917,5.6831,5.6831,5.7218,5.7618,5.7618,5.8056,5.8479,5.8479,5.8397,5.8313,5.8313,5.8313,5.8313,5.8313,5.8313,5.7819,5.6434,5.6203,5.6203,5.6203,5.6203,5.6203,5.6203,5.6203,5.6203,5.6203,5.6203,5.6203,5.6203,5.6863,5.7247,5.7247,5.7934,5.8247,5.8183,5.8144,5.8115,5.8048,5.7638,5.7481,5.7421,5.659,5.6224,5.0143,5.1169,5.1752,5.191,5.2506,5.3067,0.0,0.0,5.3214,5.3214,5.3214,5.3214,5.3214,5.3214,5.3214,5.3214,5.3214,5.3214,5.3214,5.3214,5.3214,5.3214,5.3214,5.3214,5.3214,5.3214,5.3508,5.4216,5.4289,5.4583,5.5291,5.5714,5.5945,5.5945,5.6417,5.6627,5.6627,5.7051,5.7291,5.7333,5.7753,5.8042,5.8183,5.8209,5.8334,5.8598,5.8779,5.8905,5.8906,5.8906,5.8906,5.8906,5.8906,5.8906,5.8711,5.7187,5.6601,5.6601,5.6601,5.6601,5.6601,5.6601,5.6982,5.749,5.749,5.794,5.8475,5.8475,5.8465,5.8451,5.8451,5.8414,5.8388,5.8388,5.8365,5.8325,5.8325,5.8297,5.8313,5.8313,5.8313,5.8313,5.8313,5.8313,5.8236,5.805,5.8011,5.8011,5.8011,5.8011,5.8011,5.8011,5.8011,5.8011,5.8011,5.8011,5.8011,5.8011,5.8088,5.8159,5.8159,5.8236,5.8103,5.7704,5.7659,5.7489,5.7065,5.7016,5.6991,5.6974,5.6426,5.6189,5.113,5.2087,5.2721,0.0,5.2959,5.3214,5.3214,5.3214,5.3214,5.3214,5.3214,5.3214,5.3214,5.3214,5.3214,0.0,5.3214,5.3214,5.3214,5.3214,5.3214,5.3214,5.3214,5.3214,5.3214,5.3618,5.4032,5.4363,5.484,5.5369,5.5973,5.6176,5.6435,5.6697,5.7131,5.7339,5.7339,5.7773,5.8009,5.8016,5.8284,5.8431,5.85,5.8644,5.8852,5.9093,5.9179,5.9219,5.9219,5.9219,5.9219,5.9219,5.9219,5.9137,5.8966,5.8358,5.8125,5.8086,5.7995,5.7947,5.7943,5.7861,5.8011,5.8242,5.8242,5.8475,5.8698,5.8698,5.8632,5.859,5.859,5.8824,5.9068,5.9068,5.9441,5.9742,5.9742,5.9742,5.9742,5.9742,5.9742,5.9742,5.9742,5.9742,5.9742,5.9742,5.8934,5.8313,5.8313,5.8313,5.8313,5.8313,5.8313,5.8313,5.8313,5.8313,5.8313,5.8313,5.8482,5.8604,5.8604,5.8821,5.8851,5.8635,5.8664,5.8538,5.8345,5.8061,5.796,5.7941,5.7454,5.7237,5.216,5.2737,0.0,5.3214,5.3214,5.3214,5.3214,5.3214,5.3214,5.3214,5.3214,5.3214,5.3214,5.3214,5.3214,5.3214,5.3214,5.3214,5.3214,5.3214,5.3214,5.3214,5.3214,5.3287,5.3508,5.4069,5.4583,5.5023,5.5738,5.6382,5.6935,5.7192,5.7505,5.7845,5.8258,5.8475,5.8475,5.8824,5.9012,5.906,5.9141,5.925,5.9332,5.9565,5.9755,5.9883,5.9883,5.9883,5.9883,5.9883,5.9883,5.9883,5.9841,5.9746,5.9631,5.9739,5.9473,5.9039,5.8908,5.8845,5.8831,5.8735,5.8823,5.8982,5.8982,5.91,5.9293,5.9293,5.9228,5.9142,5.9142,5.9505,5.9858,5.9858,6.0319,6.0787,6.0787,6.0787,6.0787,6.0787,6.0787,6.0787,6.0787,6.0787,6.0787,6.0787,5.9781,5.8973,5.8973,5.8973,5.8973,5.8973,5.8973,5.8973,5.8973,5.8853,5.8799,5.8799,5.8887,5.8973,5.8973,5.9257,5.9328,5.9203,5.9194,5.913,5.9028,5.8683,5.8524,5.8513,5.8164,5.7997,5.3177,0.0,5.3214,5.3214,5.3214,5.3214,5.3214,5.3214,5.3214,5.3214,5.3214,5.3214,5.3214,5.3214,5.3214,5.3214,5.3214,5.3214,5.3214,5.3214,5.3214,5.3214,5.3214,5.3508,0.0,5.4399,5.506,5.659,5.7169,5.7772,5.8564,5.9475,6.0005,6.002,6.0444,6.0692,6.0692,6.0704,6.0778,6.0915,6.0919,6.1094,6.1421,6.1555,6.1601,6.1601,6.1601,6.1601,6.1601,6.1601,6.1601,6.1601,6.1493,6.1427,6.1415,6.1271,6.0164,5.8712,5.8707,5.8704,5.8704,5.8698,5.9131,5.9672,5.9672,6.0166,6.0733,6.0733,6.0727,6.0721,6.0721,6.0754,6.0748,6.0748,6.0787,6.0787,6.0787,6.0787,6.0787,6.0787,6.0787,6.0787,6.0787,6.0787,6.0787,6.0787,6.0748,6.0704,6.0704,6.0704,6.0704,6.0704,6.0704,6.0704,6.0704,6.0295,6.0049,6.0049,5.9628,5.9377,5.9377,5.9398,5.9176,5.8716,5.8706,5.8513,5.8054,5.8031,5.8031,5.8031,5.8008,5.7997,5.3214,0.0,5.3214,5.3214,5.3214,5.3214,5.3214,5.3214,5.3214,5.3214,5.3618,5.3995,5.3995,5.3995,5.3995,5.3995,5.3544,5.3214,5.3214,5.3214,5.3214,5.3214,5.3654,0.0,0.0,0.0,0.0,5.7184,5.8202,5.9,5.9601,5.9924,6.0224,6.054,6.0728,6.0787,6.0787,6.0787,6.086,6.1006,6.1226,6.1439,6.1634,6.1679,6.1719,6.1719,6.1719,6.1719,6.1679,6.1587,6.1576,6.153,6.1406,6.1304,6.1161,6.1135,6.0661,6.0109,6.0191,6.0243,6.022,6.0103,6.0262,6.042,6.042,6.0591,6.0787,6.0787,6.0787,6.0787,6.0787,6.0787,6.0787,6.0787,6.0787,6.0787,6.0787,6.0787,6.0787,6.0787,6.0787,6.0787,6.0787,6.0787,6.0787,6.0787,6.0787,6.0787,6.0787,6.0787,6.0787,6.0787,6.0787,6.0659,6.0358,6.0182,5.9962,5.968,5.9185,5.8942,5.8942,5.8642,5.8386,5.8238,5.8227,5.8164,5.7997,5.7997,5.7997,5.7997,5.7997,5.7997,5.3214,5.3214,5.3214,5.3214,5.3214,5.3214,5.3214,5.3214,5.3214,5.3214,5.3849,5.4399,5.4399,5.4399,5.4473,5.4766,5.4142,5.3728,5.4032,5.4069,5.4069,5.4069,5.4509,5.5344,0.0,0.0,0.0,5.8109,5.9079,5.9792,6.0096,6.0276,6.0489,6.0775,6.0787,6.0839,6.0866,6.0866,6.0973,6.1185,6.1444,6.1631,6.1719,6.1719,6.1719,6.1719,6.1719,6.1678,6.1632,6.1522,6.1485,6.1402,6.1265,6.112,6.0993,6.094,6.0871,6.0816,6.0884,6.0945,6.0915,6.0811,6.0787,6.0787,6.0787,6.0787,6.0787,6.0787,6.0787,6.0787,6.0787,6.0787,6.0787,6.0787,6.0787,6.0787,6.0787,6.0787,6.0787,6.0787,6.0787,6.0787,6.0787,6.0653,6.0533,6.0533,6.043,6.0436,6.0757,6.0787,6.074,6.0585,6.0533,6.0358,5.9893,5.9712,5.9458,5.9158,5.8723,5.8461,5.8461,5.8175,5.7997,5.7997,5.7997,5.7997,5.7997,5.7997,5.7997,5.7997,5.829,5.8437,5.3214,5.3214,5.3214,5.3214,5.3214,5.3214,5.3214,5.3214,5.3214,5.3251,5.3922,5.4473,0.0,0.0,5.473,5.5548,5.495,5.4693,5.5475,5.5585,5.5585,0.0,0.0,0.0,0.0,0.0,0.0,5.9429,0.0,6.0139,6.0139,6.0578,6.0787,6.0787,6.0787,6.085,6.0997,6.1023,6.1188,6.1504,6.1634,6.1719,6.1719,6.1719,6.1719,6.1679,6.1679,6.159,6.1496,6.1493,6.1394,6.1259,6.1069,6.0984,6.0957,6.085,6.0787,6.0787,6.0787,6.0787,6.0787,6.0787,6.0787,6.0787,6.0787,6.0787,6.0787,6.0787,6.0787,6.0787,6.0787,6.0787,6.0787,6.0787,6.0787,6.0787,6.0787,6.0787,6.0787,6.0787,6.0787,6.0781,6.0763,6.0385,6.0103,6.0081,5.9704,5.9736,6.0616,6.0734,6.0578,6.0118,6.0081,5.9878,5.9398,5.8971,5.8703,5.8673,5.8238,5.7997,5.7997,5.7997,5.7997,5.7997,5.7997,5.7997,5.7997,5.8033,5.807,5.807,5.8902,5.9269,5.3214,5.3214,5.3214,5.3214,5.3214,5.3214,5.3214,5.3214,5.3361,5.3959,5.473,5.5475,0.0,0.0,0.0,5.6345,5.5317,0.0,5.5475,5.5585,0.0,5.5585,0.0,5.728,5.7944,5.8997,0.0,0.0,6.054,6.0622,6.0622,6.074,6.0787,6.0787,6.0787,6.085,6.0997,6.125,6.1419,6.1504,6.1634,6.1719,6.1719,6.1719,6.1636,6.1568,6.1568,6.1487,6.1334,6.1178,6.1093,6.1061,6.0895,6.0861,6.085,6.0816,6.0787,6.0787,6.0787,6.0787,6.0787,6.0787,6.0787,6.0787,6.0787,6.0787,6.0787,6.0787,6.0787,6.0787,6.0787,6.0787,6.0787,6.0787,6.0787,6.0787,6.0787,6.0787,6.0787,6.0787,6.0787,6.0671,6.0338,6.0175,5.9969,5.9617,5.9467,5.9475,5.9744,5.9776,5.969,5.9576,5.9568,5.9381,5.8923,5.8756,5.8539,5.8183,5.8088,5.7997,5.7997,5.7997,5.7997,5.7997,5.7997,5.7997,5.7997,5.8609,5.8902,5.8902,5.971,6.0077,5.3214,5.3214,5.3214,5.3214,5.3214,5.3287,5.3654,5.3728,5.3959,5.4766,5.5574,0.0,0.0,0.0,0.0,0.0,0.0,0.0,5.6503,5.6834,5.6969,0.0,5.7784,0.0,5.8976,5.968,6.0304,0.0,6.0787,6.0787,6.0787,6.0787,6.0787,6.0787,6.0872,6.1005,6.122,6.1454,6.1583,6.1583,6.1678,6.1719,6.1719,6.1719,6.1633,6.1504,0.0,6.1383,6.1165,6.1052,6.0977,6.09,6.0811,6.0787,6.0787,6.0787,6.0787,6.0787,6.0787,6.0787,6.0787,6.0787,6.0787,6.0787,6.0787,6.0787,6.0787,6.0787,6.1095,6.1364,6.1364,6.1627,6.1897,6.1897,6.1897,6.1897,6.1897,6.1897,6.1781,6.1441,6.0903,6.0391,6.0146,5.9924,5.9617,5.9148,5.8923,5.8776,5.8776,5.913,5.931,5.9102,5.9075,5.8903,5.8439,5.8386,5.8282,5.802,5.7997,5.7997,5.7997,5.7997,5.7997,5.7997,5.8364,5.8547,5.8547,5.9343,5.9747,5.9747,6.0566,6.0933,5.3214,5.3214,5.3214,5.3214,5.3214,5.3398,5.4216,5.4399,5.4656,5.5585,0.0,5.6811,5.6921,5.6308,5.6209,5.7593,0.0,5.6268,5.7743,5.8376,5.8706,5.8776,5.9194,5.9633,6.0074,6.0154,6.0358,6.0763,6.0787,6.0787,6.0787,6.0787,6.0804,6.0844,6.0991,6.1208,6.1502,6.1634,6.1719,6.1719,6.1719,6.1719,6.1719,6.1679,6.1587,6.1485,6.1435,0.0,6.0952,6.0952,6.09,6.0787,6.0787,6.0787,6.0787,6.0787,6.0787,6.0787,6.0787,6.0787,6.0787,6.0787,6.0787,6.0825,6.0941,6.0979,6.0979,6.1089,6.1672,6.2249,6.2249,6.2781,6.3314,6.3314,6.3314,6.3314,6.3314,6.3238,6.3027,6.2391,6.1207,6.0327,6.0334,5.9866,5.9318,5.8832,5.8334,5.7997,5.7997,5.8723,5.9075,5.8662,5.8601,5.845,5.8042,5.7997,5.7997,5.7997,5.7997,5.8033,5.8143,5.8143,5.8217,5.8327,5.9013,5.938,5.938,6.015,6.0566,6.0566,6.1374,6.1741,5.3214,5.3214,5.3214,5.3214,5.3214,5.3398,5.4216,5.4399,0.0,0.0,5.6701,5.6994,5.7666,5.7116,0.0,5.6957,0.0,0.0,0.0,0.0,5.8845,0.0,0.0,0.0,0.0,0.0,0.0,0.0,0.0,6.0787,6.0787,6.0787,6.0861,6.0973,6.1253,6.1434,6.1502,6.1634,6.1719,6.1719,6.1719,6.1719,6.1719,6.1582,6.1478,6.1318,6.1144,0.0,6.0828,6.0828,6.0833,6.0787,6.0787,6.0787,6.0787,6.0787,6.0787,6.0787,6.0787,6.0787,6.0787,6.0787,6.0787,6.0941,6.1672,6.1864,6.2018,6.266,6.2968,6.3083,6.3083,6.3198,6.3314,6.3314,6.3314,6.3314,6.3314,6.3005,6.2796,6.3027,6.2224,6.1507,6.158,6.0604,5.9647,5.9181,5.847,5.7997,5.7997,5.8153,5.8205,5.813,5.8119,5.8074,5.8008,5.7997,5.7997,5.7997,5.7997,5.829,5.8976,5.8976,5.9306,5.9979,6.0126,6.0187,6.0187,6.1006,6.1374,6.141,6.2218,6.2572,5.3214,5.3214,5.3214,5.3214,5.3214,5.3398,5.4216,0.0,0.0,0.0,5.6811,5.7042,5.785,0.0,0.0,0.0,0.0,0.0,0.0,0.0,0.0,0.0,0.0,0.0,0.0,0.0,0.0,0.0,0.0,6.0787,6.0787,6.0855,6.0993,6.1253,6.1419,6.1521,6.1587,6.1678,6.1719,6.1719,6.1719,6.1677,6.1584,6.1519,6.138,6.1147,6.1048,0.0,6.0787,6.0787,6.0787,6.0787,6.0787,6.0787,6.0787,6.0787,6.0787,6.0787,6.0787,6.1095,6.1479,6.1479,6.1479,6.1633,6.2474,6.2704,6.282,6.3198,6.3622,6.3968,6.3968,6.4314,6.4666,6.4666,6.4448,6.4178,6.3932,6.3162,6.262,6.3106,6.2225,6.1444,6.1464,6.0944,6.0353,5.9915,5.9501,5.9245,5.9245,5.9245,5.8914,5.807,5.7997,5.818,5.8572,5.8609,5.8792,5.9208,5.9245,5.9428,5.982,5.982,6.0003,6.037,6.0823,6.1006,6.1043,6.1814,6.2218,6.2218,6.2609,6.2793,5.3214,5.3214,5.3214,5.3214,5.3214,5.3398,5.4216,5.4399,0.0,0.0,5.6664,5.7005,5.7629,0.0,0.0,0.0,0.0,0.0,0.0,0.0,0.0,0.0,0.0,0.0,0.0,0.0,0.0,0.0,0.0,0.0,6.0845,6.0993,6.1229,6.1499,6.1519,6.1584,6.1719,6.1719,6.1719,6.1719,6.1678,6.1587,6.1502,6.1424,6.125,6.0997,6.0986,0.0,0.0,6.0787,6.0787,6.0787,6.0787,6.0787,6.0787,6.0787,6.0787,6.0825,6.1018,6.1518,6.2172,6.2518,6.2518,6.2518,6.3314,6.3583,6.3609,6.3687,6.4167,6.4692,6.4573,6.5057,6.5601,6.5601,6.5245,6.4841,6.4472,6.3491,6.2805,6.3276,6.2327,6.151,6.164,6.1416,6.1063,6.0711,6.0529,6.0419,6.0419,6.0419,5.9905,5.8657,5.851,5.8767,5.9416,5.9453,5.9747,6.037,6.0419,6.0493,6.0639,6.0676,6.075,6.0921,6.1557,6.1851,6.1851,6.2499,6.2793,6.2793,6.2793,6.2793,5.3214,5.3214,5.3214,5.3214,5.3214,5.3398,5.4216,0.0,0.0,5.5548,5.6308,5.6811,5.6884,5.7446,0.0,0.0,0.0,5.825,0.0,0.0,0.0,0.0,0.0,0.0,0.0,0.0,0.0,0.0,0.0,0.0,6.097,6.1279,6.1487,6.1502,6.1631,6.1679,6.1719,6.1719,6.1719,6.1719,6.1579,6.1509,6.1498,6.1188,6.104,6.0988,6.0866,0.0,0.0,6.0787,6.0787,6.0787,6.0787,6.0787,6.0787,6.0787,6.0787,6.0902,6.171,6.2018,6.2364,6.3897,6.382,6.3352,6.4205,6.4474,6.4526,6.4839,6.5009,6.4961,6.4521,6.448,6.4556,6.4556,6.4481,6.4435,6.4398,6.392,6.3643,6.4162,6.3374,6.2805,6.3297,6.2353,6.1557,6.1496,6.086,6.0419,6.0419,6.0419,6.0346,6.0199,6.0199,6.0199,6.026,6.0309,6.0309,6.0419,6.0419,6.075,6.1459,6.1496,6.1814,6.2572,6.2646,6.2683,6.2683,6.2756,6.2793,6.2793,6.2793,6.2793,5.3214,5.3214,5.3214,5.3214,5.3214,5.3287,5.3581,0.0,5.3911,5.4693,5.5133,5.55,5.5978,5.6535,5.6856,5.6754,5.7017,0.0,0.0,0.0,0.0,0.0,0.0,0.0,0.0,0.0,0.0,0.0,0.0,0.0,6.1295,6.1426,6.1522,6.1631,6.1678,6.1719,6.1719,6.1719,6.1677,6.1579,6.1517,6.1404,6.1198,6.1042,6.0959,6.0876,6.0839,0.0,0.0,6.0787,6.0787,6.0787,6.0787,6.0787,6.0787,6.0787,6.0787,6.0941,6.1787,6.2403,6.3012,6.4205,6.4705,6.4936,6.5282,6.5177,6.4929,6.5077,6.4883,6.4626,6.4435,6.4379,6.4303,6.4016,6.3934,6.384,6.352,6.3285,6.318,6.3397,6.3073,6.288,6.3061,6.2683,6.2328,6.2328,6.2059,6.1838,6.1838,6.1838,6.1838,6.1838,6.0958,6.0603,6.108,6.1117,6.1337,6.1802,6.1838,6.1985,6.2316,6.2328,6.2462,6.2793,6.2793,6.2793,6.2793,6.2793,6.2793,6.2793,6.2793,6.2793,5.3214,5.3214,5.3214,5.3214,5.3214,5.3214,0.0,0.0,5.3361,5.3922,5.4216,5.46,5.5286,5.5856,5.6302,5.6563,5.6655,5.6646,5.653,0.0,0.0,0.0,0.0,0.0,0.0,0.0,0.0,0.0,0.0,0.0,6.1572,6.1572,6.1587,6.1719,6.1719,6.1719,6.1719,6.1677,6.1584,6.1502,6.1409,6.1229,6.0997,6.0963,6.0902,6.0787,6.0787,0.0,0.0,6.0787,6.0787,6.0787,6.0787,6.0787,6.0787,6.0787,6.0787,6.0979,6.2056,6.282,6.3506,6.4628,6.5288,6.567,6.567,6.541,6.5051,6.4748,6.4313,6.3944,6.3944,6.3944,6.384,6.3453,6.3351,6.3273,6.2892,6.2793,6.2793,6.2793,6.2793,6.2793,6.2793,6.2793,6.2793,6.2793,6.2793,6.2793,6.2793,6.2793,6.2793,6.2793,6.1802,6.1337,6.1924,6.1961,6.2218,6.2756,6.2793,6.2793,6.2793,6.2793,6.2793,6.2793,6.2793,6.2793,6.2793,6.2793,6.2793,6.2793,6.2793,6.2679,5.3214,5.3214,5.3214,5.3214,5.3214,5.3214,0.0,0.0,5.3214,5.3214,5.3838,5.4533,5.4947,5.5657,5.65,5.7421,5.7589,5.7459,5.7049,0.0,0.0,0.0,0.0,0.0,0.0,0.0,0.0,0.0,0.0,0.0,6.1679,6.1719,6.1719,6.1719,6.1719,6.1719,6.1719,6.1576,6.1504,6.1501,6.1165,6.1006,6.0993,6.085,6.0787,0.0,0.0,0.0,0.0,6.0787,6.0787,6.0787,6.0787,6.0787,6.0787,6.0787,6.0787,6.105,6.2698,6.3275,6.3583,6.532,6.5549,6.5115,6.5115,6.5107,6.4883,6.3886,6.3238,6.2818,6.2818,6.2818,6.2805,6.2805,6.2805,6.2805,6.2793,6.2793,6.2793,6.2793,6.2793,6.2793,6.2793,6.2793,6.2793,6.2793,6.2793,6.2793,6.2793,6.2793,6.2793,6.2793,6.2793,6.2793,6.2793,6.2793,6.2793,6.2793,6.2793,6.2793,6.2793,6.2793,6.2793,6.2793,6.2793,6.2793,6.2793,6.2793,6.2793,6.2793,6.2793,6.2363,5.3214,5.3214,5.3214,5.3214,5.3214,5.3214,5.3214,0.0,5.3282,5.3546,5.3799,5.4111,5.4562,5.5074,5.5534,5.5822,5.6135,5.6245,0.0,0.0,0.0,0.0,0.0,0.0,0.0,0.0,0.0,0.0,0.0,0.0,6.1719,6.1719,6.1719,6.1719,6.1719,6.1719,6.1719,6.1576,6.1434,6.1354,6.1135,6.0954,6.0844,6.0827,6.0787,0.0,0.0,0.0,0.0,6.0787,6.0787,6.0787,6.0787,6.0787,6.0787,6.0787,6.0787,6.0979,6.2095,6.2858,6.3506,6.4628,6.5288,6.5569,6.5192,6.4634,6.3927,6.3262,6.2917,6.2793,6.2793,6.2793,6.2793,6.2793,6.2793,6.2793,6.2793,6.2793,6.2793,6.2793,6.2793,6.2793,6.2793,6.2793,6.2793,6.2793,6.2793,6.2793,6.2793,6.2793,6.2793,6.2793,6.2793,6.2793,6.2793,6.2793,6.2793,6.2793,6.2793,6.2793,6.2793,6.2793,6.2793,6.2793,6.2793,6.2793,6.2793,6.2793,6.2793,6.278,6.2245,6.1824,5.3104,5.3214,5.3214,5.3214,5.3214,5.3214,0.0,0.0,5.3297,5.372,5.3786,5.3995,5.4617,5.4919,5.5153,5.5287,5.5549,0.0,0.0,0.0,0.0,0.0,0.0,0.0,0.0,0.0,0.0,0.0,0.0,0.0,6.1719,6.1719,6.1719,6.1719,6.1719,6.1679,6.1632,6.1498,6.1349,6.119,6.1018,6.0887,6.0787,6.0787,6.0787,0.0,0.0,0.0,0.0,6.0787,6.0787,6.0787,6.0787,6.0787,6.0787,6.0787,6.0787,6.0941,6.1787,6.2627,6.3429,6.4314,6.4913,6.5215,6.4696,6.4109,6.3498,6.2941,6.2793,6.2793,6.2793,6.2793,6.2793,6.2793,6.2793,6.2793,6.2793,6.2793,6.2793,6.2793,6.2793,6.2793,6.2793,6.2793,6.2793,6.2793,6.2793,6.2793,6.2793,6.2793,6.2793,6.2793,6.2793,6.2793,6.2793,6.2793,6.2793,6.2793,6.2793,6.2793,6.2793,6.2793,6.2793,6.2793,6.2793,6.2793,6.2793,6.2793,6.2793,6.278,6.1982,6.145,0.0,5.3177,5.3214,5.3214,5.3214,5.3214,5.3214,0.0,0.0,5.3777,5.3869,5.4132,5.4981,5.5147,5.5256,5.5627,0.0,0.0,0.0,0.0,0.0,0.0,0.0,0.0,0.0,0.0,0.0,0.0,0.0,0.0,6.1719,6.1719,6.1719,6.1719,6.1719,6.1634,6.1504,6.1359,6.1204,6.0997,6.085,6.0787,6.0787,6.0787,6.0787,0.0,0.0,0.0,0.0,6.0787,6.0787,6.0787,6.0787,6.0787,6.0787,6.0787,6.0787,6.0941,6.171,6.2551,6.3346,6.425,6.4505,6.4332,6.3777,6.355,6.3442,6.2929,6.2793,6.2793,6.2793,6.2793,6.2793,6.2793,6.2793,6.2793,6.2793,6.2793,6.2793,6.2793,6.2793,6.2793,6.2793,6.2793,6.2793,6.2793,6.2793,6.2793,6.2793,6.2793,6.2793,6.2793,6.2793,6.2793,6.2793,6.2793,6.2793,6.2793,6.2793,6.2793,6.2793,6.2793,6.2793,6.2793,6.2793,6.2793,6.2793,6.2793,6.2793,6.278,6.1982,6.1157,5.205,0.0,5.3214,5.3214,5.3214,5.3214,0.0,0.0,0.0,0.0,0.0,5.4954,5.5458,5.5566,5.5588,0.0,0.0,0.0,0.0,0.0,0.0,0.0,0.0,0.0,0.0,0.0,0.0,0.0,0.0,6.1719,6.1719,6.1719,6.1719,6.1719,6.1719,6.1634,6.1504,6.1359,6.1204,6.0997,6.085,6.0787,6.0787,6.0787,6.0787,0.0,0.0,0.0,6.0787,6.0787,6.0787,6.0787,6.0787,6.0787,6.0787,6.0787,6.0787,6.0825,6.1018,6.1672,6.2553,6.365,6.442,6.4765,6.3855,6.3294,6.2953,6.283,6.2793,6.2793,6.2793,6.2793,6.2793,6.2793,6.2793,6.2793,6.2793,6.2793,6.2793,6.2793,6.2793,6.2793,6.2793,6.2793,6.2793,6.2793,6.2793,6.2793,6.2793,6.2793,6.2793,6.2793,6.2793,6.2793,6.2793,6.2793,6.2793,6.2793,6.2793,6.2793,6.2793,6.2793,6.2793,6.2793,6.2793,6.2793,6.2793,6.2793,6.2793,6.278,6.1982,6.1157,5.1242,5.205,5.2747,5.3104,5.3214,5.3241,5.3424,0.0,0.0,0.0,0.0,5.5218,5.5616,0.0,0.0,0.0,0.0,0.0,0.0,0.0,0.0,0.0,0.0,0.0,0.0,0.0,0.0,0.0,0.0,6.1719,6.1719,6.1719,6.1719,6.1719,6.1635,6.1526,6.1398,6.1328,6.1158,6.0905,6.0828,6.0787,6.0787,6.0787,6.0787,0.0,0.0,0.0,6.0787,6.0787,6.0787,6.0787,6.0787,6.0787,6.0787,6.0787,6.0787,6.0787,6.0787,6.1492,6.2504,6.3482,6.409,6.4332,6.3777,6.3227,6.2793,6.2793,6.2793,6.2793,6.2793,6.2793,6.2793,6.2793,6.2793,6.2793,6.2793,6.2793,6.2793,6.2793,6.2793,6.2793,6.2793,6.2793,6.2793,6.2793,6.2793,6.2793,6.2793,6.2793,6.2793,6.2793,6.2793,6.2793,6.2793,6.2793,6.2793,6.2793,6.2793,6.2793,6.2793,6.2793,6.2793,6.2793,6.2793,6.2793,6.2793,6.2793,6.2793,6.278,6.1982,6.1157,5.0398,5.1096,5.184,5.2627,5.292,5.3103,5.3525,0.0,0.0,0.0,0.0,0.0,0.0,0.0,0.0,0.0,0.0,0.0,0.0,0.0,0.0,0.0,0.0,0.0,0.0,0.0,0.0,0.0,0.0,6.1719,6.1719,6.1719,6.1719,6.1719,6.1577,6.146,6.1286,6.1262,6.1112,6.0787,6.0787,6.0787,6.0787,6.0787,6.0787,6.0787,0.0,0.0,6.0787,6.0787,6.0787,6.0787,6.0787,6.0787,6.0787,6.0787,6.0787,6.0787,6.0787,6.1587,6.2696,6.3289,6.3521,6.3561,6.3509,6.3156,6.2793,6.2793,6.2793,6.2793,6.2793,6.2793,6.2793,6.2793,6.2793,6.2793,6.2793,6.2793,6.2793,6.2793,6.2793,6.2793,6.2793,6.2793,6.2793,6.2793,6.2793,6.2793,6.2793,6.2793,6.2793,6.2793,6.2793,6.2793,6.2793,6.2793,6.2793,6.2793,6.2793,6.2793,6.2793,6.2793,6.2793,6.2793,6.2793,6.2793,6.2793,6.2793,6.2793,6.278,6.2089,6.1329,4.9564,4.9858,5.0151,5.0986,5.1683,5.2277,5.2698,0.0,0.0,0.0,0.0,0.0,0.0,0.0,0.0,0.0,0.0,0.0,0.0,0.0,0.0,0.0,0.0,0.0,0.0,0.0,0.0,0.0,0.0,6.1719,6.1719,6.1719,6.1719,6.1719,6.1577,6.146,6.1286,6.1139,6.0954,6.0787,6.0787,6.0787,6.0787,6.0787,6.0787,6.0787,0.0,6.0787,6.0787,6.0787,6.0787,6.0787,6.0787,6.0787,6.0787,6.0787,6.0787,6.0787,6.0787,6.1587,6.2536,6.2225,6.2763,6.352,6.3074,6.2867,6.2793,6.2793,6.2793,6.2793,6.2793,6.2793,6.2793,6.2793,6.2793,6.2793,6.2793,6.2793,6.2793,6.2793,6.2793,6.2793,6.2793,6.2793,6.2793,6.2793,6.2793,6.2793,6.2793,6.2793,6.2793,6.2793,6.2793,6.2793,6.2793,6.2793,6.2793,6.2793,6.2793,6.2793,6.2793,6.2793,6.2793,6.2793,6.2793,6.2793,6.2793,6.2793,6.2793,6.2793,6.2655,6.2156,4.8783,4.8903,4.9034,4.9631,5.0694,5.1779,5.2443,0.0,0.0,0.0,0.0,0.0,0.0,0.0,0.0,0.0,0.0,0.0,0.0,0.0,0.0,0.0,0.0,0.0,0.0,0.0,0.0,0.0,0.0,0.0,6.1719,6.1719,6.1678,6.1584,6.1478,6.1318,6.1147,6.0963,6.0844,6.0787,6.0787,6.0787,6.0787,6.0787,6.0787,6.0787,0.0,6.0787,6.0787,6.0787,6.0787,6.0787,6.0787,6.0787,6.0787,6.0787,6.0787,6.0787,6.0787,6.1413,6.2159,6.2239,6.2658,6.318,6.3227,6.3038,6.2793,6.2793,6.2793,6.2793,6.2793,6.2793,6.2793,6.2793,6.2793,6.2793,6.2793,6.2793,6.2793,6.2793,6.2793,6.2793,6.2793,6.2793,6.2793,6.2793,6.2793,6.2793,6.2793,6.2793,6.2793,6.2793,6.2793,6.2793,6.2793,6.2793,6.2793,6.2793,6.2793,6.2793,6.2793,6.2793,6.2793,6.2793,6.2793,6.2793,6.2793,6.2793,6.2793,6.2793,6.2793,6.2363,4.8296,4.8296,4.8411,4.8932,0.0,5.1245,5.2109,0.0,0.0,0.0,0.0,0.0,0.0,0.0,0.0,0.0,0.0,0.0,0.0,0.0,0.0,0.0,0.0,0.0,0.0,0.0,0.0,0.0,0.0,0.0,6.168,6.1719,6.1635,6.1505,6.1361,6.1207,6.1001,6.0855,6.0787,6.0787,6.0787,6.0787,6.0787,6.0787,6.0787,6.0787,6.0787,6.0787,6.0787,6.0787,6.0787,6.0787,6.0787,6.0787,6.0787,6.0787,6.0787,6.0787,6.0787,6.1311,6.2057,6.2489,6.2775,6.3074,6.3476,6.3227,6.2793,6.2793,6.2793,6.2793,6.2793,6.2793,6.2793,6.2793,6.2793,6.2793,6.2793,6.2793,6.2793,6.2793,6.2793,6.2793,6.2793,6.2793,6.2793,6.2793,6.2793,6.2793,6.2793,6.2793,6.2793,6.2793,6.2793,6.2793,6.2793,6.2793,6.2793,6.2793,6.2793,6.2793,6.2793,6.2793,6.2793,6.2793,6.2793,6.2793,6.2793,6.2793,6.2793,6.2793,6.2793,6.2477,4.8296,4.8296,4.8495,4.9257,4.983,0.0,5.1223,5.2006,0.0,5.314,0.0,0.0,0.0,0.0,0.0,0.0,0.0,0.0,0.0,0.0,0.0,0.0,0.0,0.0,0.0,0.0,0.0,0.0,0.0,0.0,6.164,6.1719,6.1635,6.1505,6.1361,6.1207,6.1001,6.0855,6.0787,6.0787,6.0787,6.0787,6.0787,6.0787,6.0787,6.0787,6.0787,6.0787,6.0787,6.0787,6.0787,6.0787,6.0787,6.0787,6.0787,6.0787,6.0787,6.0787,6.0787,6.1567,6.2551,6.2582,6.3021,6.3565,6.3609,6.3227,6.2793,6.2793,6.2793,6.2793,6.2793,6.2793,6.2793,6.2793,6.2793,6.2793,6.2793,6.2793,6.2793,6.2793,6.2793,6.2793,6.2793,6.2793,6.2793,6.2793,6.2793,6.2793,6.2793,6.2793,6.2793,6.2793,6.2793,6.2793,6.2793,6.2793,6.2793,6.2793,6.2793,6.2793,6.2793,6.2793,6.2793,6.2793,6.2793,6.2793,6.2793,6.2793,6.2793,6.2793,6.2793,6.2768,4.8296,4.8495,4.8805,4.9363,4.9788,0.0,0.0,5.1196,5.1453,0.0,0.0,0.0,0.0,0.0,0.0,0.0,0.0,0.0,0.0,0.0,0.0,0.0,0.0,0.0,0.0,0.0,0.0,0.0,0.0,0.0,6.164,6.1719,6.1587,6.1373,6.1318,6.115,6.0882,6.0844,6.0787,6.0787,6.0787,6.0787,6.0787,6.0787,6.0787,6.0787,6.0787,6.0787,6.0787,6.0787,6.0787,6.0787,6.0787,6.0787,6.0787,6.0787,6.0787,6.0787,6.0787,6.1587,6.2597,6.2597,6.3039,6.362,6.362,6.3227,6.2793,6.2793,6.2793,6.2793,6.2793,6.2793,6.2793,6.2793,6.2793,6.2793,6.2793,6.2793,6.2793,6.2793,6.2793,6.2793,6.2793,6.2793,6.2793,6.2793,6.2793,6.2793,6.2793,6.2793,6.2793,6.2793,6.2793,6.2793,6.2793,6.2793,6.2793,6.2793,6.2793,6.2793,6.2793,6.2793,6.2793,6.2793,6.2793,6.2793,6.2793,6.2793,6.2793,6.2793,6.2793,6.2793,4.8504,4.8674,4.9019,4.9554,0.0,0.0,5.0589,5.0707,5.0707,0.0,0.0,0.0,0.0,0.0,0.0,0.0,0.0,0.0,0.0,0.0,0.0,0.0,0.0,0.0,0.0,0.0,0.0,0.0,0.0,0.0,0.0,6.1521,6.1521,6.1295,6.1237,6.1083,6.0787,6.0787,6.0787,6.0787,6.0787,6.0787,6.0787,6.0787,6.0787,6.0787,6.0787,6.0787,6.0787,6.0787,6.0787,6.0787,6.0787,6.0787,6.0787,6.0787,6.0787,6.0787,6.0787,6.1704,6.2806,6.2635,6.3156,6.3829,6.3637,6.3227,6.2793,6.2793,6.2793,6.2793,6.2793,6.2793,6.2793,6.2793,6.2793,6.2793,6.2793,6.2793,6.2793,6.2793,6.2793,6.2793,6.2793,6.2793,6.2793,6.2793,6.2793,6.2793,6.2793,6.2793,6.2793,6.2793,6.2793,6.2793,6.2793,6.2793,6.2793,6.2793,6.2793,6.2793,6.2793,6.2793,6.2793,6.2793,6.2793,6.2793,6.2793,6.2793,6.2793,6.2793,6.2793,6.2793,4.8886,4.8886,4.91,0.0,0.0,0.0,5.0509,5.0707,5.0707,0.0,0.0,0.0,0.0,0.0,0.0,0.0,0.0,0.0,0.0,0.0,0.0,0.0,0.0,0.0,0.0,0.0,0.0,0.0,0.0,0.0,0.0,6.1109,6.1422,6.1292,6.1112,6.092,6.0787,6.0787,6.0787,6.0787,6.0787,6.0787,6.0787,6.0787,6.0787,6.0787,6.0787,6.0787,6.0787,6.0787,6.0787,6.0787,6.0787,6.0787,6.0787,6.0787,6.0787,6.0787,6.0787,6.1897,6.3213,6.2762,6.3411,6.4275,6.3755,6.3227,6.2793,6.2793,6.2793,6.2793,6.2793,6.2793,6.2793,6.2793,6.2793,6.2793,6.2793,6.2793,6.2793,6.2793,6.2793,6.2793,6.2793,6.2793,6.2793,6.2793,6.2793,6.2793,6.2793,6.2793,6.2793,6.2793,6.2793,6.2793,6.2793,6.2793,6.2793,6.2793,6.2793,6.2793,6.2793,6.2793,6.2793,6.2793,6.2793,6.2793,6.2793,6.2793,6.2793,6.2793,6.2793,6.2793,4.883,4.91,0.0,0.0,0.0,0.0,0.0,5.0707,0.0,0.0,0.0,0.0,0.0,0.0,0.0,0.0,0.0,0.0,0.0,0.0,0.0,0.0,0.0,0.0,0.0,0.0,0.0,0.0,0.0,0.0,0.0,6.0522,6.0797,6.1292,6.1112,6.092,6.0787,6.0787,6.0787,6.0787,6.0787,6.0787,6.0787,6.0787,6.0787,6.0787,6.0787,6.0787,6.0787,6.0787,6.0787,6.0787,6.0787,6.0787,6.0787,6.0787,6.0787,6.0787,6.0787,6.1697,6.271,6.2193,6.2852,6.3734,6.3203,6.2941,6.2793,6.2793,6.2793,6.2793,6.2793,6.2793,6.2793,6.2793,6.2793,6.2793,6.2793,6.2793,6.2793,6.2793,6.2793,6.2793,6.2793,6.2793,6.2793,6.2793,6.2793,6.2793,6.2793,6.2793,6.2793,6.2793,6.2793,6.2793,6.2793,6.2793,6.2793,6.2793,6.2793,6.2793,6.2793,6.2793,6.2793,6.2793,6.2793,6.2793,6.2793,6.2793,6.2793,6.2793,6.2793,6.2793,4.9272,4.9554,0.0,0.0,0.0,0.0,0.0,0.0,0.0,0.0,0.0,0.0,0.0,0.0,0.0,0.0,0.0,0.0,0.0,0.0,0.0,0.0,0.0,0.0,0.0,0.0,0.0,0.0,0.0,0.0,0.0,5.9818,6.0295,6.0688,6.0829,6.0887,6.0787,6.0787,6.0787,6.0787,6.0787,6.0787,6.0787,6.0787,6.0787,6.0787,6.0787,6.0787,6.0787,6.0787,6.0787,6.0787,6.0787,6.0787,6.0787,6.0787,6.0787,6.0802,6.0968,6.1687,6.2535,6.2137,6.2708,6.3509,6.2953,6.2793,6.2793,6.2793,6.2793,6.2793,6.2793,6.2793,6.2793,6.2793,6.2793,6.2793,6.2793,6.2793,6.2793,6.2793,6.2793,6.2793,6.2793,6.2793,6.2793,6.2793,6.2793,6.2793,6.2793,6.2793,6.2793,6.2793,6.2793,6.2793,6.2793,6.2793,6.2793,6.2793,6.2793,6.2793,6.2793,6.2793,6.2793,6.2793,6.2793,6.2793,6.2793,6.2793,6.2793,6.2793,6.2793,6.2793,4.9936,0.0,0.0,0.0,0.0,0.0,0.0,0.0,0.0,0.0,0.0,0.0,0.0,0.0,0.0,0.0,0.0,0.0,0.0,0.0,0.0,0.0,0.0,0.0,0.0,0.0,0.0,0.0,0.0,0.0,0.0,5.9022,5.9727,5.9697,6.0326,6.0671,6.0671,6.0748,6.0787,6.0787,6.0787,6.0787,6.0787,6.0787,6.0787,6.0787,6.0787,6.0787,6.0787,6.0787,6.0787,6.0787,6.0787,6.0787,6.0787,6.0787,6.0787,6.0849,6.1196,6.1835,6.2515,6.2368,6.2858,6.3442,6.2941,6.2793,6.2793,6.2793,6.2793,6.2793,6.2793,6.2793,6.2793,6.2793,6.2793,6.2793,6.2793,6.2793,6.2793,6.2793,6.2793,6.2793,6.2793,6.2793,6.2793,6.2793,6.2793,6.2793,6.2793,6.2793,6.2793,6.2793,6.2793,6.2793,6.2793,6.2793,6.2793,6.2793,6.2793,6.2793,6.2793,6.2793,6.2793,6.2793,6.2793,6.2793,6.2793,6.2793,6.2793,6.2793,6.2793,6.2793,4.9518,4.9872,0.0,0.0,0.0,0.0,0.0,0.0,0.0,0.0,0.0,0.0,0.0,0.0,0.0,0.0,0.0,0.0,0.0,0.0,0.0,0.0,0.0,0.0,0.0,0.0,0.0,0.0,0.0,0.0,5.7683,5.7855,5.8215,5.8767,5.9439,5.9781,5.9781,6.0473,6.0787,0.0,6.0787,6.0787,6.0787,6.0787,6.0787,6.0787,6.0787,6.0787,6.0787,6.0787,6.0787,6.0787,6.0787,6.0787,6.0787,6.0787,6.0787,6.0849,6.1196,6.1592,6.1993,6.2234,6.2604,6.2941,6.283,6.2793,6.2793,6.2793,6.2793,6.2793,6.2793,6.2793,6.2793,6.2793,6.2793,6.2793,6.2793,6.2793,6.2793,6.2793,6.2793,6.2793,6.2793,6.2793,6.2793,6.2793,6.2793,6.2793,6.2793,6.2793,6.2793,6.2793,6.2793,6.2793,6.2793,6.2793,6.2793,6.2793,6.2793,6.2793,6.2793,6.2793,6.2793,6.2793,6.2793,6.2793,6.2793,6.2793,6.2793,6.2793,6.2793,6.2793,0.0,0.0,0.0,0.0,0.0,0.0,0.0,0.0,0.0,0.0,0.0,0.0,0.0,0.0,0.0,0.0,0.0,0.0,0.0,0.0,0.0,0.0,0.0,0.0,0.0,0.0,0.0,0.0,0.0,5.6647,5.696,5.7175,5.7459,5.7786,5.8517,5.8934,5.8934,5.9742,6.0165,6.0165,6.0589,6.0787,6.0787,6.0787,6.0787,6.0787,6.0787,6.0787,6.0787,6.0787,6.0787,6.0787,6.0787,6.0787,6.0787,6.0787,6.0909,6.1085,6.1429,6.1766,6.2085,6.2424,6.2645,6.2793,6.2793,6.2793,6.2793,6.2793,6.2793,6.2793,6.2793,6.2793,6.2793,6.2793,6.2793,6.2793,6.2793,6.2793,6.2793,6.2793,6.2793,6.2793,6.2793,6.2793,6.2793,6.2793,6.2793,6.2793,6.2793,6.2793,6.2793,6.2793,6.2793,6.2793,6.2793,6.2793,6.2793,6.2793,6.2793,6.2793,6.2793,6.2793,6.2793,6.2793,6.2793,6.2793,6.2793,6.2793,6.2793,6.2793,6.2793,6.2793,0.0,0.0,0.0,0.0,0.0,0.0,0.0,0.0,0.0,0.0,0.0,0.0,0.0,0.0,0.0,0.0,0.0,0.0,0.0,0.0,0.0,0.0,0.0,0.0,0.0,0.0,0.0,0.0,0.0,5.6347,5.6164,5.6671,5.6896,5.6796,5.7627,5.8088,5.8088,5.8896,5.9281,5.9319,6.0165,6.0666,6.0787,6.0787,6.0787,6.0787,6.0787,6.0787,6.0787,6.0787,6.0787,6.0787,6.0787,6.0787,6.0775,6.0722,6.0928,6.1324,6.1587,6.1939,6.2372,6.2695,6.2793,6.2793,6.2793,6.2793,6.2793,6.2793,6.2793,6.2793,6.2793,6.2793,6.2793,6.2793,6.2793,6.2793,6.2793,6.2793,6.2793,6.2793,6.2793,6.2793,6.2793,6.2793,6.2793,6.2793,6.2793,6.2793,6.2793,6.2793,6.2793,6.2793,6.2793,6.2793,6.2793,6.2793,6.2793,6.2793,6.2793,6.2793,6.2793,6.2793,6.2793,6.2793,6.2793,6.2793,6.2793,6.2793,6.2793,6.2793,6.2793,6.2793,0.0,0.0,0.0,0.0,0.0,0.0,0.0,0.0,0.0,0.0,0.0,0.0,0.0,0.0,0.0,0.0,0.0,0.0,0.0,0.0,0.0,0.0,0.0,0.0,0.0,0.0,0.0,0.0,5.6395,5.6275,5.5943,5.6013,5.6011,5.5868,5.6709,5.717,5.717,5.8011,5.8467,5.8467,5.9281,6.0089,6.0787,6.0787,6.0787,6.0787,6.0787,6.0787,6.0787,6.0787,6.0787,6.0787,6.0787,6.0787,6.0752,6.0338,6.0666,6.1286,6.1203,6.1677,6.2372,6.2695,6.2793,6.2793,6.2793,6.2793,6.2793,6.2793,6.2793,6.2793,6.2793,6.2793,6.2793,6.2793,6.2793,6.2793,6.2793,6.2793,6.2793,6.2793,6.2793,6.2793,6.2793,6.2793,6.2793,6.2793,6.2793,6.2793,6.2793,6.2793,6.2793,6.2793,6.2793,6.2793,6.2793,6.2793,6.2793,6.2793,6.2793,6.2793,6.2793,6.2793,6.2793,6.2793,6.2793,6.2793,6.2793,6.2793,6.2793,6.2793,6.2793,6.2793,4.8063,0.0,0.0,0.0,0.0,0.0,0.0,0.0,0.0,0.0,0.0,0.0,0.0,0.0,0.0,0.0,0.0,0.0,0.0,0.0,0.0,0.0,0.0,0.0,0.0,0.0,0.0,0.0,5.6347,5.6155,5.5897,5.5839,5.575,5.5708,5.6055,5.6285,5.6285,5.7132,5.7819,5.8313,5.866,5.9281,6.0089,6.0089,6.0319,6.0787,6.0787,6.0787,6.0787,6.0787,6.0787,6.0787,6.0787,6.0634,6.0371,6.0168,6.0549,6.1187,6.111,6.1741,6.2593,6.2733,6.2793,6.2793,6.2793,6.2793,6.2793,6.2793,6.2793,6.2793,6.2793,6.2793,6.2793,6.2793,6.2793,6.2793,6.2793,6.2793,6.2793,6.2793,6.2793,6.2793,6.2793,6.2793,6.2793,6.2793,6.2793,6.2793,6.2793,6.2793,6.2793,6.2793,6.2793,6.2793,6.2793,6.2793,6.2793,6.2793,6.2793,6.2793,6.2793,6.2793,6.2793,6.2793,6.2793,6.2793,6.2793,6.2793,6.2793,6.2793,6.2793,6.2793,0.0,0.0,0.0,0.0,0.0,0.0,0.0,0.0,0.0,0.0,0.0,0.0,0.0,0.0,0.0,0.0,0.0,0.0,0.0,0.0,0.0,0.0,0.0,0.0,0.0,0.0,0.0,0.0,5.6217,5.6057,5.5849,5.574,5.5708,5.5708,5.5708,5.5708,5.5708,5.6324,5.7093,5.7973,5.7973,5.8511,5.9511,5.9511,5.9973,6.0787,6.0787,6.0787,6.0787,6.0787,6.0787,6.0787,6.0787,6.0508,6.0096,5.9954,6.0428,6.1082,6.0969,6.1742,6.2793,6.2793,6.2793,6.2793,6.2793,6.2793,6.2793,6.2793,6.2793,6.2793,6.2793,6.2793,6.2793,6.2793,6.2793,6.2793,6.2793,6.2793,6.2793,6.2793,6.2793,6.2793,6.2793,6.2793,6.2793,6.2793,6.2793,6.2793,6.2793,6.2793,6.2793,6.2793,6.2793,6.2793,6.2793,6.2793,6.2793,6.2793,6.2793,6.2793,6.2793,6.2793,6.2793,6.2793,6.2793,6.2793,6.2793,6.2793,6.2793,6.2793,6.2793,6.2793,0.0,0.0,0.0,0.0,0.0,0.0,0.0,0.0,0.0,0.0,0.0,0.0,0.0,0.0,0.0,0.0,0.0,0.0,0.0,0.0,0.0,0.0,0.0,0.0,0.0,0.0,0.0,0.0,5.6012,5.5879,5.5707,5.5714,5.5708,5.5708,5.5708,5.5708,5.5708,5.5747,5.6209,5.7055,5.7055,5.794,5.9511,5.9511,5.9973,6.0787,6.0787,6.0787,6.0787,6.0787,6.0787,6.0787,6.0787,6.0508,6.0067,5.9584,6.0135,6.1055,6.0582,6.1459,6.2793,6.2793,6.2793,6.2793,6.2793,6.2793,6.2793,6.2793,6.2793,6.2793,6.2793,6.2793,6.2793,6.2793,6.2793,6.2793,6.2793,6.2793,6.2793,6.2793,6.2793,6.2793,6.2793,6.2793,6.2793,6.2793,6.2793,6.2793,6.2793,6.2793,6.2793,6.2793,6.2793,6.2793,6.2793,6.2793,6.2793,6.2793,6.2793,6.2793,6.2793,6.2793,6.2793,6.2793,6.2793,6.2793,6.2793,6.2793,6.2793,6.2793,6.2793,6.2793,0.0,0.0,0.0,0.0,0.0,0.0,0.0,0.0,0.0,0.0,0.0,0.0,0.0,0.0,0.0,0.0,0.0,0.0,0.0,0.0,0.0,0.0,0.0,0.0,0.0,0.0,0.0,0.0,0.0,5.5822,5.5719,5.5708,5.5708,5.5708,5.5708,5.5708,5.5708,5.5708,5.5862,5.617,5.617,5.6786,5.7901,5.8473,5.9165,6.0012,6.0556,6.0787,6.0787,6.0787,6.0787,6.0763,6.0476,6.0081,5.9584,5.9112,5.9684,6.0628,6.0454,6.1435,6.2793,6.2793,6.2793,6.2793,6.2793,6.2793,6.2793,6.2793,6.2793,6.2793,6.2793,6.2793,6.2793,6.2793,6.2793,6.2793,6.2793,6.2793,6.2793,6.2793,6.2793,6.2793,6.2793,6.2793,6.2793,6.2793,6.2793,6.2793,6.2793,6.2793,6.2793,6.2793,6.2793,6.2793,6.2793,6.2793,6.2793,6.2793,6.2793,6.2793,6.2793,6.2793,6.2793,6.2793,6.2793,6.2793,6.2793,6.2793,6.2793,6.2793,6.2793,6.2793,0.0,0.0,0.0,0.0,0.0,0.0,0.0,0.0,0.0,0.0,0.0,0.0,0.0,0.0,0.0,0.0,0.0,0.0,0.0,0.0,0.0,0.0,0.0,0.0,0.0,0.0,0.0,0.0,0.0,0.0,5.5719,5.5708,5.5708,5.5708,5.5708,5.5708,5.5708,5.5708,5.5708,5.5708,5.5708,5.617,5.7016,5.7896,5.8742,5.955,6.0435,6.0787,6.0787,6.0787,6.0787,6.0752,6.0297,5.9908,5.9589,5.9232,5.9764,6.0653,6.0748,6.1692,6.2793,6.2793,6.2793,6.2793,6.2793,6.2793,6.2793,6.2793,6.2793,6.2793,6.2793,6.2793,6.2793,6.2793,6.2793,6.2793,6.2793,6.2793,6.2793,6.2793,6.2793,6.2793,6.2793,6.2793,6.2793,6.2793,6.2793,6.2793,6.2793,6.2793,6.2793,6.2793,6.2793,6.2793,6.2793,6.2793,6.2793,6.2793,6.2793,6.2793,6.2793,6.2793,6.2793,6.2793,6.2793,6.2793,6.2793,6.2793,6.2793,6.2793,6.2793,6.2793,0.0,0.0,0.0,0.0,0.0,0.0,0.0,0.0,0.0,0.0,0.0,0.0,0.0,0.0,0.0,0.0,0.0,0.0,0.0,0.0,0.0,0.0,0.0,0.0,0.0,0.0,0.0,0.0,5.5774,5.5708,5.5708,5.5708,5.5708,5.5708,5.5708,5.5708,5.5708,5.5708,5.5708,5.5708,5.5708,5.6132,5.6983,5.7896,5.8742,5.9511,6.0396,6.0787,6.0787,6.0787,6.0781,6.074,6.0276,6.0081,6.0053,5.9908,6.0401,6.1145,6.1468,6.2144,6.2793,6.2793,6.2793,6.2793,6.2793,6.2793,6.2793,6.2793,6.2793,6.2793,6.2793,6.2793,6.2793,6.2793,6.2793,6.2793,6.2793,6.2793,6.2793,6.2793,6.2793,6.2793,6.2793,6.2793,6.2793,6.2793,6.2793,6.2793,6.2793,6.2793,6.2793,6.2793,6.2793,6.2793,6.2793,6.2793,6.2793,6.2793,6.2793,6.2793,6.2793,6.2793,6.2793,6.2793,6.2793,6.2793,6.2793,6.2793,6.2793,6.2793,6.2793,6.2793,4.5594,0.0,0.0,0.0,0.0,0.0,4.7505,4.8144,0.0,0.0,0.0,0.0,0.0,0.0,0.0,0.0,0.0,0.0,0.0,0.0,0.0,0.0,0.0,0.0,0.0,0.0,0.0,0.0,5.5712,5.5708,5.5708,5.5708,5.5708,5.5708,5.5708,5.5708,5.5708,5.5708,5.5708,5.5708,5.5708,5.5824,5.6093,5.7627,5.8429,5.8698,6.0165,6.0787,6.0787,6.0787,6.061,6.0269,5.9792,5.9381,5.9103,5.9312,5.9882,6.0681,6.1361,6.2144,6.2793,6.2793,6.2793,6.2793,6.2793,6.2793,6.2793,6.2793,6.2793,6.2793,6.2793,6.2793,6.2793,6.2793,6.2793,6.2793,6.2793,6.2793,6.2793,6.2793,6.2793,6.2793,6.2793,6.2793,6.2793,6.2793,6.2793,6.2793,6.2793,6.2793,6.2793,6.2793,6.2793,6.2793,6.2793,6.2793,6.2793,6.2793,6.2793,6.2793,6.2793,6.2793,6.2793,6.2793,6.2793,6.2793,6.2793,6.2793,6.2793,6.2793,6.2793,6.2793,0.0,0.0,0.0,0.0,0.0,0.0,4.6852,4.7696,4.8683,0.0,0.0,0.0,0.0,0.0,0.0,0.0,0.0,0.0,0.0,0.0,0.0,0.0,0.0,0.0,0.0,5.4333,5.4834,5.5191,5.5516,5.5708,5.5708,5.5708,5.5708,5.5708,5.5708,5.5708,5.5708,5.5708,5.5708,5.5708,5.5708,5.5708,5.5747,5.7511,5.8313,5.8396,6.005,6.0787,6.0775,6.0603,6.0345,6.0028,5.9568,5.9221,5.9063,5.9519,6.0132,6.0822,6.1752,6.2389,6.2793,6.2793,6.2793,6.2793,6.2793,6.2793,6.2793,6.2793,6.2793,6.2793,6.2793,6.2793,6.2793,6.2793,6.2793,6.2793,6.2793,6.2793,6.2793,6.2793,6.2793,6.2793,6.2793,6.2793,6.2793,6.2793,6.2793,6.2793,6.2793,6.2793,6.2793,6.2793,6.2793,6.2793,6.2793,6.2793,6.2793,6.2793,6.2793,6.2793,6.2793,6.2793,6.2793,6.2793,6.316,6.349,6.382,6.3123,6.2793,6.2793,6.2793,6.2793,0.0,0.0,0.0,0.0,0.0,0.0,4.6697,4.7592,4.8509,4.9512,0.0,0.0,0.0,0.0,0.0,0.0,0.0,0.0,0.0,0.0,0.0,0.0,0.0,0.0,5.2119,5.3507,5.4422,5.4493,5.5247,5.5708,5.5708,5.5708,5.5708,5.5708,5.5708,5.5708,5.5708,5.5708,5.5708,5.5708,5.5708,5.5708,5.5747,5.7511,5.8313,5.8396,6.005,6.0787,6.0757,6.0304,6.0081,5.9969,5.9501,5.9284,5.9346,6.0115,6.0637,6.1191,6.2401,6.2793,6.2793,6.2793,6.2793,6.2793,6.2793,6.2793,6.2793,6.2793,6.2793,6.2793,6.2793,6.2793,6.2793,6.2793,6.2793,6.2793,6.2793,6.2793,6.2793,6.2793,6.2793,6.2793,6.2793,6.2793,6.2793,6.2793,6.2793,6.2793,6.2793,6.2793,6.2793,6.2793,6.2793,6.2793,6.2793,6.2793,6.2793,6.2793,6.2793,6.2829,6.2939,6.2939,6.2976,6.3086,6.3833,6.4604,6.5288,6.3783,6.3086,6.3086,6.3086,6.3086,0.0,0.0,0.0,0.0,0.0,0.0,4.6002,4.6298,4.6817,0.0,0.0,0.0,0.0,0.0,0.0,0.0,0.0,0.0,0.0,0.0,0.0,0.0,0.0,0.0,5.2054,5.2314,5.3027,5.44,5.5247,5.5708,5.5708,5.5708,5.5708,5.5708,5.5708,5.5708,5.5708,5.5708,5.5708,5.5708,5.5708,5.5708,5.5747,5.7511,5.8313,5.8396,6.005,6.0787,6.0757,6.0304,5.9878,5.9484,5.9037,5.8601,5.8434,5.9878,6.0454,6.0758,6.2279,6.2793,6.2793,6.2793,6.2793,6.2793,6.2793,6.2793,6.2793,6.2793,6.2793,6.2793,6.2793,6.2793,6.2793,6.2793,6.2793,6.2793,6.2793,6.2793,6.2793,6.2793,6.2793,6.2793,6.2793,6.2793,6.2793,6.2793,6.2793,6.2793,6.2793,6.2793,6.2793,6.2793,6.2793,6.2793,6.2793,6.2793,6.2793,6.2793,6.2793,6.3123,6.3796,6.3833,6.4163,6.4811,6.4995,6.5141,6.5288,6.4958,6.4811,6.4811,6.4811,6.4811,0.0,0.0,0.0,4.5692,0.0,0.0,0.0,4.6351,4.6879,4.7408,0.0,0.0,0.0,0.0,0.0,0.0,0.0,0.0,0.0,0.0,0.0,0.0,0.0,0.0,5.1361,5.1698,5.262,5.4357,5.5247,5.5708,5.5708,5.5708,5.5708,5.5708,5.5708,5.5708,5.5708,5.5708,5.5708,5.5708,5.5708,5.5708,5.5747,5.7511,5.8313,5.8396,6.005,6.0659,6.0398,5.9939,5.9467,5.9047,5.8786,5.8407,5.818,5.9795,6.0419,6.0627,6.2242,6.2793,6.2793,6.2793,6.2793,6.2793,6.2793,6.2793,6.2793,6.2793,6.2793,6.2793,6.2793,6.2793,6.2793,6.2793,6.2793,6.2793,6.2793,6.2793,6.2793,6.2793,6.2793,6.2793,6.2793,6.2793,6.2793,6.2793,6.2793,6.2793,6.2793,6.2793,6.2793,6.2793,6.2793,6.2793,6.2793,6.3209,6.3466,6.3466,6.382,6.4224,6.4677,6.4714,6.5081,6.5888,6.5888,6.6109,6.6512,6.6512,6.6072,6.5288,6.5288,6.5288,0.0,0.0,0.0,0.0,0.0,4.5864,0.0,0.0,0.0,4.7343,0.0,0.0,0.0,0.0,0.0,0.0,0.0,0.0,0.0,0.0,0.0,0.0,0.0,0.0,5.0731,5.1433,5.2544,5.4126,5.5011,5.5555,5.5708,5.5708,5.5708,5.5708,5.5708,5.5708,5.5708,5.5708,5.5708,5.5708,5.5708,5.5785,5.6016,5.7588,5.8396,5.8627,6.0127,6.0521,6.0074,5.9584,5.9112,5.8703,5.8601,5.8311,5.818,5.9795,6.0419,6.0627,6.2242,6.2793,6.2793,6.2793,6.2793,6.2793,6.2793,6.2793,6.2793,6.2793,6.2793,6.2793,6.2793,6.2793,6.2793,6.2793,6.2793,6.2793,6.2793,6.2793,6.2793,6.2793,6.2793,6.2793,6.2793,6.2793,6.2793,6.2793,6.2793,6.2793,6.2793,6.2793,6.2793,6.2793,6.2939,6.305,6.305,6.3833,6.431,6.431,6.4934,6.5362,6.5508,6.5692,6.6072,6.6733,6.6733,6.704,6.77,6.77,6.7026,6.5778,6.5778,6.5778,0.0,0.0,0.0,0.0,4.585,0.0,0.0,0.0,4.6445,4.6445,0.0,0.0,0.0,0.0,0.0,0.0,0.0,0.0,0.0,0.0,0.0,0.0,0.0,0.0,0.0,5.1433,5.2313,5.3274,5.4164,5.4934,5.567,5.5708,5.5708,5.5708,5.5708,5.5708,5.5708,5.5708,5.5708,5.5708,5.5708,5.6093,5.6901,5.7857,5.8704,5.9435,6.0396,6.0521,6.0074,5.9584,5.9112,5.8673,5.8238,5.8065,5.818,5.9795,6.0419,6.0627,6.2242,6.2793,6.2793,6.2793,6.2793,6.2793,6.2793,6.2793,6.2793,6.2793,6.2793,6.2793,6.2793,6.2793,6.2793,6.2793,6.2793,6.2793,6.2793,6.2793,6.2793,6.2793,6.2793,6.2793,6.2793,6.2793,6.2793,6.2793,6.2793,6.2793,6.2793,6.2793,6.2793,6.2793,6.3503,6.3956,6.3956,6.4714,6.5141,6.5141,6.5251,6.5618,6.6329,6.704,6.748,6.7554,6.7554,6.7627,6.77,6.77,6.7627,6.7444,6.7444,6.7444,0.0,0.0,0.0,0.0,0.0,0.0,0.0,0.0,4.6289,0.0,0.0,0.0,0.0,0.0,0.0,0.0,5.0898,0.0,0.0,0.0,0.0,0.0,0.0,0.0,0.0,0.0,0.0,0.0,5.3703,5.4664,5.4972,5.5439,5.5708,5.5708,5.5708,5.5708,5.5708,5.5708,5.5708,5.5708,5.5708,5.617,5.7016,5.7896,5.8742,5.955,6.0435,6.0521,6.0096,5.9885,5.9363,5.8693,5.8492,5.8522,5.8829,5.9967,6.0713,6.1263,6.2389,6.2793,6.2793,6.2793,6.2793,6.2793,6.2793,6.2793,6.2793,6.2793,6.2793,6.2793,6.2793,6.2793,6.2793,6.2793,6.2793,6.2793,6.2793,6.2793,6.2793,6.2793,6.2793,6.2793,6.2793,6.2793,6.2793,6.2793,6.2793,6.2793,6.2793,6.3233,6.3539,6.3539,6.431,6.4787,6.4787,6.5521,6.5999,6.5999,6.6439,6.6843,6.7187,6.7517,6.77,6.77,6.77,6.77,6.77,6.77,6.77,6.77,6.77,6.77,4.5628,0.0,0.0,0.0,0.0,0.0,0.0,0.0,0.0,0.0,0.0,0.0,0.0,0.0,0.0,0.0,0.0,0.0,0.0,0.0,0.0,0.0,0.0,0.0,0.0,0.0,0.0,5.1885,5.3274,5.4241,5.4472,5.5247,5.5708,5.5708,5.5708,5.5708,5.5708,5.5708,5.5708,5.5708,5.5708,5.6285,5.7363,5.8011,5.8858,5.9896,6.0512,6.0521,6.011,6.011,5.9609,5.8884,5.8736,5.9123,5.9785,6.0222,6.0896,6.1704,6.2499,6.2793,6.2793,6.2793,6.2793,6.2793,6.2793,6.2793,6.2793,6.2793,6.2793,6.2793,6.2793,6.2793,6.2793,6.2793,6.2793,6.2793,6.2793,6.2793,6.2793,6.2793,6.2793,6.2793,6.2793,6.2793,6.2793,6.2793,6.3013,6.316,6.316,6.3906,6.442,6.442,6.5154,6.5618,6.5618,6.6366,6.6843,6.6843,6.737,6.77,6.77,6.77,6.77,6.77,6.77,6.77,6.77,6.77,6.77,6.77,6.77,6.77,0.0,0.0,0.0,4.6051,0.0,0.0,0.0,0.0,4.6289,0.0,0.0,0.0,0.0,0.0,0.0,0.0,0.0,0.0,0.0,0.0,0.0,0.0,0.0,0.0,0.0,0.0,5.1048,5.1846,5.2736,5.3626,5.4434,5.5247,5.5708,5.5708,5.5708,5.5708,5.5708,5.5708,5.5708,5.5708,5.5708,5.6588,5.8275,5.8275,5.9204,6.0748,6.0787,6.0521,6.011,6.011,5.9823,5.9328,5.8884,5.9661,6.1007,6.0558,6.0896,6.1704,6.2499,6.2793,6.2793,6.2793,6.2793,6.2793,6.2793,6.2793,6.2793,6.2793,6.2793,6.2793,6.2793,6.2793,6.2793,6.2793,6.2793,6.2793,6.2793,6.2793,6.2793,6.2793,6.2793,6.2793,6.2793,6.2793,6.2793,6.2793,6.3503,6.4066,6.4066,6.4751,6.5251,6.5251,6.5999,6.6476,6.6476,6.7187,6.7664,6.7664,6.77,6.77,6.77,6.77,6.77,6.77,6.77,6.77,6.77,6.77,6.77,6.77,6.77,6.77,0.0,0.0,4.7504,4.7652,0.0,0.0,0.0,0.0,0.0,0.0,0.0,0.0,0.0,0.0,0.0,0.0,0.0,0.0,0.0,0.0,0.0,0.0,0.0,0.0,0.0,0.0,0.0,5.1087,5.2395,5.3313,5.3626,5.4934,5.5708,5.5708,5.5708,5.5708,5.5708,5.5708,5.5708,5.5708,5.5708,5.6626,5.8313,5.8313,5.9204,6.0787,6.0787,6.0722,6.0546,6.0546,6.0297,5.9823,5.9337,5.9972,6.1029,6.0558,6.1263,6.2426,6.2719,6.2793,6.2793,6.2793,6.2793,6.2793,6.2793,6.2793,6.2793,6.2793,6.2793,6.2793,6.2793,6.2793,6.2793,6.2793,6.2793,6.2793,6.2793,6.2793,6.2793,6.2793,6.2793,6.2793,6.2793,6.3282,6.3649,6.3649,6.3919,6.4273,6.4824,6.5595,6.6109,6.6109,6.6806,6.7297,6.7297,6.7554,6.77,6.77,6.77,6.77,6.77,6.77,6.77,6.77,6.77,6.77,6.77,6.77,6.77,6.77,6.77,6.77,4.8207,4.8304,0.0,4.8607,4.8709,0.0,4.8867,0.0,0.0,0.0,0.0,0.0,0.0,0.0,0.0,0.0,0.0,0.0,0.0,5.1223,0.0,0.0,0.0,0.0,0.0,0.0,5.0707,5.0707,5.1972,5.2851,0.0,5.4511,5.5401,5.5708,5.5708,5.5708,5.5708,5.5708,5.5708,5.5708,5.6016,5.6896,5.8313,5.8583,5.9473,6.0787,6.0787,6.0787,6.0787,6.0787,6.0622,6.0349,6.0189,6.0619,6.1253,6.064,6.1398,6.2793,6.2793,6.2793,6.2793,6.2793,6.2793,6.2793,6.2793,6.2793,6.2793,6.2793,6.2793,6.2793,6.2793,6.2793,6.2793,6.2793,6.2793,6.2793,6.2793,6.2793,6.2793,6.2793,6.2793,6.2903,6.3196,6.3723,6.4103,6.4103,6.458,6.5154,6.5668,6.6439,6.6916,6.6916,6.7407,6.77,6.77,6.77,6.77,6.77,6.77,6.77,6.77,6.77,6.7847,6.8128,6.7847,6.7847,6.8128,6.7847,6.77,6.77,6.7994,6.8128]}]]